<?xml version="1.0" encoding="UTF-8" standalone="no" ?><gpx xmlns="http://www.topografix.com/GPX/1/1" xmlns:gpxx="http://www.garmin.com/xmlschemas/GpxExtensions/v3" xmlns:wptx1="http://www.garmin.com/xmlschemas/WaypointExtension/v1" xmlns:gpxtpx="http://www.garmin.com/xmlschemas/TrackPointExtension/v1" creator="GuideVTT.com" version="1.1" xmlns:xsi="http://www.w3.org/2001/XMLSchema-instance" xsi:schemaLocation="http://www.topografix.com/GPX/1/1 http://www.topografix.com/GPX/1/1/gpx.xsd http://www.garmin.com/xmlschemas/GpxExtensions/v3 http://www8.garmin.com/xmlschemas/GpxExtensionsv3.xsd http://www.garmin.com/xmlschemas/WaypointExtension/v1 http://www8.garmin.com/xmlschemas/WaypointExtensionv1.xsd http://www.garmin.com/xmlschemas/TrackPointExtension/v1 http://www.garmin.com/xmlschemas/TrackPointExtensionv1.xsd">
<metadata><link href="http://www.garmin.com"><text>Garmin International</text></link><time>2013-06-22T15:13:50Z</time></metadata>
<trk><name>vtt_23912957064858940409449543.gpx</name><extensions><gpxx:TrackExtension><gpxx:DisplayColor>Cyan</gpxx:DisplayColor></gpxx:TrackExtension></extensions><trkseg>
<trkpt lat="48.883869171143" lon="2.6307172775269"><ele>48</ele><time>2026-4-30T17:29:1Z</time></trkpt>
<trkpt lat="48.883941650391" lon="2.6307213306427"><ele>48</ele><time>2026-4-30T17:29:4Z</time></trkpt>
<trkpt lat="48.88399887085" lon="2.6306779384613"><ele>48</ele><time>2026-4-30T17:29:7Z</time></trkpt>
<trkpt lat="48.884048461914" lon="2.6306207180023"><ele>48</ele><time>2026-4-30T17:29:10Z</time></trkpt>
<trkpt lat="48.884098052979" lon="2.6305503845215"><ele>49</ele><time>2026-4-30T17:29:13Z</time></trkpt>
<trkpt lat="48.884162902832" lon="2.6304559707642"><ele>49</ele><time>2026-4-30T17:29:16Z</time></trkpt>
<trkpt lat="48.88423538208" lon="2.6303625106812"><ele>49</ele><time>2026-4-30T17:29:19Z</time></trkpt>
<trkpt lat="48.884300231934" lon="2.6302919387817"><ele>49</ele><time>2026-4-30T17:29:22Z</time></trkpt>
<trkpt lat="48.884365081787" lon="2.630211353302"><ele>50</ele><time>2026-4-30T17:29:25Z</time></trkpt>
<trkpt lat="48.884433746338" lon="2.6301264762878"><ele>50</ele><time>2026-4-30T17:29:28Z</time></trkpt>
<trkpt lat="48.884502410889" lon="2.6300570964813"><ele>50</ele><time>2026-4-30T17:29:31Z</time></trkpt>
<trkpt lat="48.88455581665" lon="2.6300058364868"><ele>50</ele><time>2026-4-30T17:29:34Z</time></trkpt>
<trkpt lat="48.884616851807" lon="2.629962682724"><ele>50</ele><time>2026-4-30T17:29:37Z</time></trkpt>
<trkpt lat="48.884704589844" lon="2.6299088001251"><ele>50</ele><time>2026-4-30T17:29:40Z</time></trkpt>
<trkpt lat="48.884788513184" lon="2.6298308372498"><ele>50</ele><time>2026-4-30T17:29:43Z</time></trkpt>
<trkpt lat="48.884838104248" lon="2.6297705173492"><ele>50</ele><time>2026-4-30T17:29:46Z</time></trkpt>
<trkpt lat="48.884895324707" lon="2.6297078132629"><ele>51</ele><time>2026-4-30T17:29:49Z</time></trkpt>
<trkpt lat="48.884952545166" lon="2.6296372413635"><ele>51</ele><time>2026-4-30T17:29:52Z</time></trkpt>
<trkpt lat="48.885009765625" lon="2.6295819282532"><ele>51</ele><time>2026-4-30T17:29:55Z</time></trkpt>
<trkpt lat="48.885070800781" lon="2.6295435428619"><ele>51</ele><time>2026-4-30T17:29:58Z</time></trkpt>
<trkpt lat="48.885070800781" lon="2.6295435428619"><ele>51</ele><time>2026-4-30T17:30:1Z</time></trkpt>
<trkpt lat="48.885120391846" lon="2.6294591426849"><ele>51</ele><time>2026-4-30T17:30:4Z</time></trkpt>
<trkpt lat="48.885185241699" lon="2.6293942928314"><ele>51</ele><time>2026-4-30T17:30:7Z</time></trkpt>
<trkpt lat="48.88525390625" lon="2.6293144226074"><ele>51</ele><time>2026-4-30T17:30:10Z</time></trkpt>
<trkpt lat="48.885330200195" lon="2.6292195320129"><ele>51</ele><time>2026-4-30T17:30:13Z</time></trkpt>
<trkpt lat="48.885402679443" lon="2.6291215419769"><ele>52</ele><time>2026-4-30T17:30:16Z</time></trkpt>
<trkpt lat="48.885467529297" lon="2.6290240287781"><ele>52</ele><time>2026-4-30T17:30:19Z</time></trkpt>
<trkpt lat="48.885536193848" lon="2.6289370059967"><ele>52</ele><time>2026-4-30T17:30:22Z</time></trkpt>
<trkpt lat="48.885597229004" lon="2.6289045810699"><ele>52</ele><time>2026-4-30T17:30:25Z</time></trkpt>
<trkpt lat="48.885665893555" lon="2.6289474964142"><ele>51</ele><time>2026-4-30T17:30:28Z</time></trkpt>
<trkpt lat="48.885757446289" lon="2.6289935112"><ele>51</ele><time>2026-4-30T17:30:31Z</time></trkpt>
<trkpt lat="48.885837554932" lon="2.6289358139038"><ele>51</ele><time>2026-4-30T17:30:34Z</time></trkpt>
<trkpt lat="48.885902404785" lon="2.6288595199585"><ele>51</ele><time>2026-4-30T17:30:37Z</time></trkpt>
<trkpt lat="48.885963439941" lon="2.6287834644318"><ele>52</ele><time>2026-4-30T17:30:40Z</time></trkpt>
<trkpt lat="48.886035919189" lon="2.6286971569061"><ele>52</ele><time>2026-4-30T17:30:43Z</time></trkpt>
<trkpt lat="48.886035919189" lon="2.6286971569061"><ele>52</ele><time>2026-4-30T17:30:46Z</time></trkpt>
<trkpt lat="48.886119842529" lon="2.628559589386"><ele>52</ele><time>2026-4-30T17:30:49Z</time></trkpt>
<trkpt lat="48.886192321777" lon="2.6284577846527"><ele>52</ele><time>2026-4-30T17:30:52Z</time></trkpt>
<trkpt lat="48.886253356934" lon="2.6283724308014"><ele>52</ele><time>2026-4-30T17:30:55Z</time></trkpt>
<trkpt lat="48.886322021484" lon="2.6283068656921"><ele>53</ele><time>2026-4-30T17:30:58Z</time></trkpt>
<trkpt lat="48.886379241943" lon="2.6282334327698"><ele>53</ele><time>2026-4-30T17:31:1Z</time></trkpt>
<trkpt lat="48.886428833008" lon="2.6281652450562"><ele>53</ele><time>2026-4-30T17:31:4Z</time></trkpt>
<trkpt lat="48.886486053467" lon="2.6280913352966"><ele>53</ele><time>2026-4-30T17:31:7Z</time></trkpt>
<trkpt lat="48.886558532715" lon="2.6280188560486"><ele>53</ele><time>2026-4-30T17:31:10Z</time></trkpt>
<trkpt lat="48.886631011963" lon="2.62797498703"><ele>53</ele><time>2026-4-30T17:31:13Z</time></trkpt>
<trkpt lat="48.886711120605" lon="2.627917766571"><ele>53</ele><time>2026-4-30T17:31:16Z</time></trkpt>
<trkpt lat="48.886775970459" lon="2.627854347229"><ele>53</ele><time>2026-4-30T17:31:19Z</time></trkpt>
<trkpt lat="48.886840820312" lon="2.627777338028"><ele>53</ele><time>2026-4-30T17:31:22Z</time></trkpt>
<trkpt lat="48.886917114258" lon="2.6276926994324"><ele>53</ele><time>2026-4-30T17:31:25Z</time></trkpt>
<trkpt lat="48.886985778809" lon="2.627610206604"><ele>53</ele><time>2026-4-30T17:31:28Z</time></trkpt>
<trkpt lat="48.887058258057" lon="2.6275203227997"><ele>53</ele><time>2026-4-30T17:31:31Z</time></trkpt>
<trkpt lat="48.887130737305" lon="2.6274280548096"><ele>54</ele><time>2026-4-30T17:31:34Z</time></trkpt>
<trkpt lat="48.887199401855" lon="2.6273436546326"><ele>54</ele><time>2026-4-30T17:31:37Z</time></trkpt>
<trkpt lat="48.887268066406" lon="2.6272571086884"><ele>54</ele><time>2026-4-30T17:31:40Z</time></trkpt>
<trkpt lat="48.887340545654" lon="2.6271681785583"><ele>54</ele><time>2026-4-30T17:31:43Z</time></trkpt>
<trkpt lat="48.887393951416" lon="2.6271135807037"><ele>54</ele><time>2026-4-30T17:31:46Z</time></trkpt>
<trkpt lat="48.887393951416" lon="2.6271135807037"><ele>54</ele><time>2026-4-30T17:31:49Z</time></trkpt>
<trkpt lat="48.88745880127" lon="2.6270353794098"><ele>54</ele><time>2026-4-30T17:31:52Z</time></trkpt>
<trkpt lat="48.887516021729" lon="2.6269528865814"><ele>54</ele><time>2026-4-30T17:31:55Z</time></trkpt>
<trkpt lat="48.887573242188" lon="2.6268734931946"><ele>54</ele><time>2026-4-30T17:31:58Z</time></trkpt>
<trkpt lat="48.887630462646" lon="2.6268258094788"><ele>54</ele><time>2026-4-30T17:32:1Z</time></trkpt>
<trkpt lat="48.8876953125" lon="2.6268362998962"><ele>54</ele><time>2026-4-30T17:32:4Z</time></trkpt>
<trkpt lat="48.887752532959" lon="2.626885175705"><ele>54</ele><time>2026-4-30T17:32:7Z</time></trkpt>
<trkpt lat="48.887817382812" lon="2.6269547939301"><ele>54</ele><time>2026-4-30T17:32:10Z</time></trkpt>
<trkpt lat="48.887878417969" lon="2.6270434856415"><ele>54</ele><time>2026-4-30T17:32:13Z</time></trkpt>
<trkpt lat="48.887928009033" lon="2.6271524429321"><ele>54</ele><time>2026-4-30T17:32:16Z</time></trkpt>
<trkpt lat="48.8879737854" lon="2.6272647380829"><ele>54</ele><time>2026-4-30T17:32:19Z</time></trkpt>
<trkpt lat="48.888027191162" lon="2.6273674964905"><ele>54</ele><time>2026-4-30T17:32:22Z</time></trkpt>
<trkpt lat="48.888080596924" lon="2.6274707317352"><ele>54</ele><time>2026-4-30T17:32:25Z</time></trkpt>
<trkpt lat="48.888145446777" lon="2.6275780200958"><ele>54</ele><time>2026-4-30T17:32:28Z</time></trkpt>
<trkpt lat="48.88818359375" lon="2.6276524066925"><ele>54</ele><time>2026-4-30T17:32:31Z</time></trkpt>
<trkpt lat="48.888217926025" lon="2.6277358531952"><ele>54</ele><time>2026-4-30T17:32:34Z</time></trkpt>
<trkpt lat="48.888256072998" lon="2.6278269290924"><ele>54</ele><time>2026-4-30T17:32:37Z</time></trkpt>
<trkpt lat="48.888305664062" lon="2.6279196739197"><ele>54</ele><time>2026-4-30T17:32:40Z</time></trkpt>
<trkpt lat="48.888374328613" lon="2.6280462741852"><ele>53</ele><time>2026-4-30T17:32:43Z</time></trkpt>
<trkpt lat="48.888442993164" lon="2.6281723976135"><ele>53</ele><time>2026-4-30T17:32:46Z</time></trkpt>
<trkpt lat="48.888523101807" lon="2.6283140182495"><ele>53</ele><time>2026-4-30T17:32:49Z</time></trkpt>
<trkpt lat="48.888599395752" lon="2.628449678421"><ele>54</ele><time>2026-4-30T17:32:52Z</time></trkpt>
<trkpt lat="48.888675689697" lon="2.6285927295685"><ele>53</ele><time>2026-4-30T17:32:55Z</time></trkpt>
<trkpt lat="48.888751983643" lon="2.6287384033203"><ele>53</ele><time>2026-4-30T17:32:58Z</time></trkpt>
<trkpt lat="48.88883972168" lon="2.6288995742798"><ele>53</ele><time>2026-4-30T17:33:1Z</time></trkpt>
<trkpt lat="48.888927459717" lon="2.6290571689606"><ele>53</ele><time>2026-4-30T17:33:4Z</time></trkpt>
<trkpt lat="48.889022827148" lon="2.6292238235474"><ele>52</ele><time>2026-4-30T17:33:7Z</time></trkpt>
<trkpt lat="48.889125823975" lon="2.6293985843658"><ele>51</ele><time>2026-4-30T17:33:10Z</time></trkpt>
<trkpt lat="48.889221191406" lon="2.6295628547668"><ele>51</ele><time>2026-4-30T17:33:13Z</time></trkpt>
<trkpt lat="48.889316558838" lon="2.6297407150269"><ele>50</ele><time>2026-4-30T17:33:16Z</time></trkpt>
<trkpt lat="48.88941192627" lon="2.6299095153809"><ele>50</ele><time>2026-4-30T17:33:19Z</time></trkpt>
<trkpt lat="48.889499664307" lon="2.6300745010376"><ele>49</ele><time>2026-4-30T17:33:22Z</time></trkpt>
<trkpt lat="48.889587402344" lon="2.63023853302"><ele>49</ele><time>2026-4-30T17:33:25Z</time></trkpt>
<trkpt lat="48.889678955078" lon="2.630396604538"><ele>49</ele><time>2026-4-30T17:33:28Z</time></trkpt>
<trkpt lat="48.889770507812" lon="2.6305665969849"><ele>49</ele><time>2026-4-30T17:33:31Z</time></trkpt>
<trkpt lat="48.88985824585" lon="2.6307299137115"><ele>49</ele><time>2026-4-30T17:33:34Z</time></trkpt>
<trkpt lat="48.889945983887" lon="2.6308875083923"><ele>49</ele><time>2026-4-30T17:33:37Z</time></trkpt>
<trkpt lat="48.890029907227" lon="2.631044626236"><ele>49</ele><time>2026-4-30T17:33:40Z</time></trkpt>
<trkpt lat="48.890098571777" lon="2.6311800479889"><ele>49</ele><time>2026-4-30T17:33:43Z</time></trkpt>
<trkpt lat="48.890159606934" lon="2.6313128471375"><ele>49</ele><time>2026-4-30T17:33:46Z</time></trkpt>
<trkpt lat="48.890235900879" lon="2.6314489841461"><ele>49</ele><time>2026-4-30T17:33:49Z</time></trkpt>
<trkpt lat="48.890319824219" lon="2.6315984725952"><ele>50</ele><time>2026-4-30T17:33:52Z</time></trkpt>
<trkpt lat="48.89038848877" lon="2.6317183971405"><ele>50</ele><time>2026-4-30T17:33:55Z</time></trkpt>
<trkpt lat="48.890438079834" lon="2.6318118572235"><ele>51</ele><time>2026-4-30T17:33:58Z</time></trkpt>
<trkpt lat="48.890491485596" lon="2.6319236755371"><ele>51</ele><time>2026-4-30T17:34:1Z</time></trkpt>
<trkpt lat="48.890537261963" lon="2.6320126056671"><ele>52</ele><time>2026-4-30T17:34:4Z</time></trkpt>
<trkpt lat="48.890586853027" lon="2.6321070194244"><ele>52</ele><time>2026-4-30T17:34:7Z</time></trkpt>
<trkpt lat="48.890628814697" lon="2.6322021484375"><ele>52</ele><time>2026-4-30T17:34:10Z</time></trkpt>
<trkpt lat="48.890659332275" lon="2.6322829723358"><ele>53</ele><time>2026-4-30T17:34:13Z</time></trkpt>
<trkpt lat="48.890697479248" lon="2.6323924064636"><ele>53</ele><time>2026-4-30T17:34:16Z</time></trkpt>
<trkpt lat="48.890720367432" lon="2.632515668869"><ele>54</ele><time>2026-4-30T17:34:19Z</time></trkpt>
<trkpt lat="48.890735626221" lon="2.6326007843018"><ele>54</ele><time>2026-4-30T17:34:22Z</time></trkpt>
<trkpt lat="48.890735626221" lon="2.6326007843018"><ele>54</ele><time>2026-4-30T17:34:25Z</time></trkpt>
<trkpt lat="48.890758514404" lon="2.6327838897705"><ele>54</ele><time>2026-4-30T17:34:28Z</time></trkpt>
<trkpt lat="48.890758514404" lon="2.6328995227814"><ele>54</ele><time>2026-4-30T17:34:31Z</time></trkpt>
<trkpt lat="48.890773773193" lon="2.6330025196075"><ele>55</ele><time>2026-4-30T17:34:34Z</time></trkpt>
<trkpt lat="48.890800476074" lon="2.6331102848053"><ele>55</ele><time>2026-4-30T17:34:37Z</time></trkpt>
<trkpt lat="48.890838623047" lon="2.6332356929779"><ele>55</ele><time>2026-4-30T17:34:40Z</time></trkpt>
<trkpt lat="48.890892028809" lon="2.6333544254303"><ele>55</ele><time>2026-4-30T17:34:43Z</time></trkpt>
<trkpt lat="48.890941619873" lon="2.6334757804871"><ele>55</ele><time>2026-4-30T17:34:46Z</time></trkpt>
<trkpt lat="48.890991210938" lon="2.6335883140564"><ele>55</ele><time>2026-4-30T17:34:49Z</time></trkpt>
<trkpt lat="48.891044616699" lon="2.6337070465088"><ele>55</ele><time>2026-4-30T17:34:52Z</time></trkpt>
<trkpt lat="48.891101837158" lon="2.6338062286377"><ele>55</ele><time>2026-4-30T17:34:55Z</time></trkpt>
<trkpt lat="48.891174316406" lon="2.6339383125305"><ele>55</ele><time>2026-4-30T17:34:58Z</time></trkpt>
<trkpt lat="48.891262054443" lon="2.6340565681458"><ele>55</ele><time>2026-4-30T17:35:1Z</time></trkpt>
<trkpt lat="48.891330718994" lon="2.6341955661774"><ele>55</ele><time>2026-4-30T17:35:4Z</time></trkpt>
<trkpt lat="48.891384124756" lon="2.6343376636505"><ele>55</ele><time>2026-4-30T17:35:7Z</time></trkpt>
<trkpt lat="48.891426086426" lon="2.6344382762909"><ele>55</ele><time>2026-4-30T17:35:10Z</time></trkpt>
<trkpt lat="48.891487121582" lon="2.6344606876373"><ele>55</ele><time>2026-4-30T17:35:13Z</time></trkpt>
<trkpt lat="48.891487121582" lon="2.6344606876373"><ele>55</ele><time>2026-4-30T17:35:16Z</time></trkpt>
<trkpt lat="48.891544342041" lon="2.6344742774963"><ele>55</ele><time>2026-4-30T17:35:19Z</time></trkpt>
<trkpt lat="48.891590118408" lon="2.6345357894897"><ele>55</ele><time>2026-4-30T17:35:22Z</time></trkpt>
<trkpt lat="48.891628265381" lon="2.6346442699432"><ele>56</ele><time>2026-4-30T17:35:25Z</time></trkpt>
<trkpt lat="48.891674041748" lon="2.6347525119781"><ele>56</ele><time>2026-4-30T17:35:28Z</time></trkpt>
<trkpt lat="48.891712188721" lon="2.6348657608032"><ele>56</ele><time>2026-4-30T17:35:31Z</time></trkpt>
<trkpt lat="48.891742706299" lon="2.6349711418152"><ele>57</ele><time>2026-4-30T17:35:34Z</time></trkpt>
<trkpt lat="48.891777038574" lon="2.6350858211517"><ele>57</ele><time>2026-4-30T17:35:37Z</time></trkpt>
<trkpt lat="48.89181137085" lon="2.6351890563965"><ele>56</ele><time>2026-4-30T17:35:40Z</time></trkpt>
<trkpt lat="48.891860961914" lon="2.6353077888489"><ele>56</ele><time>2026-4-30T17:35:43Z</time></trkpt>
<trkpt lat="48.891910552979" lon="2.6354105472565"><ele>56</ele><time>2026-4-30T17:35:46Z</time></trkpt>
<trkpt lat="48.891944885254" lon="2.6354982852936"><ele>56</ele><time>2026-4-30T17:35:49Z</time></trkpt>
<trkpt lat="48.891986846924" lon="2.6355834007263"><ele>56</ele><time>2026-4-30T17:35:52Z</time></trkpt>
<trkpt lat="48.892051696777" lon="2.6356620788574"><ele>55</ele><time>2026-4-30T17:35:55Z</time></trkpt>
<trkpt lat="48.892116546631" lon="2.6357414722443"><ele>55</ele><time>2026-4-30T17:35:58Z</time></trkpt>
<trkpt lat="48.892147064209" lon="2.6358211040497"><ele>55</ele><time>2026-4-30T17:36:1Z</time></trkpt>
<trkpt lat="48.892189025879" lon="2.6359386444092"><ele>54</ele><time>2026-4-30T17:36:4Z</time></trkpt>
<trkpt lat="48.892219543457" lon="2.6360464096069"><ele>55</ele><time>2026-4-30T17:36:7Z</time></trkpt>
<trkpt lat="48.892250061035" lon="2.6361470222473"><ele>55</ele><time>2026-4-30T17:36:10Z</time></trkpt>
<trkpt lat="48.892276763916" lon="2.6362392902374"><ele>55</ele><time>2026-4-30T17:36:13Z</time></trkpt>
<trkpt lat="48.892303466797" lon="2.636328458786"><ele>55</ele><time>2026-4-30T17:36:16Z</time></trkpt>
<trkpt lat="48.892372131348" lon="2.6364800930023"><ele>55</ele><time>2026-4-30T17:36:19Z</time></trkpt>
<trkpt lat="48.892395019531" lon="2.6365756988525"><ele>55</ele><time>2026-4-30T17:36:22Z</time></trkpt>
<trkpt lat="48.892414093018" lon="2.636659860611"><ele>55</ele><time>2026-4-30T17:36:25Z</time></trkpt>
<trkpt lat="48.892414093018" lon="2.636659860611"><ele>55</ele><time>2026-4-30T17:36:28Z</time></trkpt>
<trkpt lat="48.892459869385" lon="2.6368064880371"><ele>56</ele><time>2026-4-30T17:36:31Z</time></trkpt>
<trkpt lat="48.892498016357" lon="2.6368930339813"><ele>56</ele><time>2026-4-30T17:36:34Z</time></trkpt>
<trkpt lat="48.892543792725" lon="2.6369822025299"><ele>56</ele><time>2026-4-30T17:36:37Z</time></trkpt>
<trkpt lat="48.892570495605" lon="2.6370708942413"><ele>56</ele><time>2026-4-30T17:36:40Z</time></trkpt>
<trkpt lat="48.892570495605" lon="2.6370708942413"><ele>56</ele><time>2026-4-30T17:36:43Z</time></trkpt>
<trkpt lat="48.892608642578" lon="2.6372113227844"><ele>57</ele><time>2026-4-30T17:36:46Z</time></trkpt>
<trkpt lat="48.892669677734" lon="2.6372830867767"><ele>57</ele><time>2026-4-30T17:36:49Z</time></trkpt>
<trkpt lat="48.892753601074" lon="2.6374197006226"><ele>57</ele><time>2026-4-30T17:36:52Z</time></trkpt>
<trkpt lat="48.892799377441" lon="2.6375343799591"><ele>58</ele><time>2026-4-30T17:36:55Z</time></trkpt>
<trkpt lat="48.89289855957" lon="2.637761592865"><ele>58</ele><time>2026-4-30T17:36:58Z</time></trkpt>
<trkpt lat="48.892948150635" lon="2.6378712654114"><ele>59</ele><time>2026-4-30T17:37:1Z</time></trkpt>
<trkpt lat="48.892993927002" lon="2.6379556655884"><ele>59</ele><time>2026-4-30T17:37:4Z</time></trkpt>
<trkpt lat="48.893051147461" lon="2.638046503067"><ele>59</ele><time>2026-4-30T17:37:7Z</time></trkpt>
<trkpt lat="48.893093109131" lon="2.6381299495697"><ele>60</ele><time>2026-4-30T17:37:10Z</time></trkpt>
<trkpt lat="48.893093109131" lon="2.6381299495697"><ele>60</ele><time>2026-4-30T17:37:13Z</time></trkpt>
<trkpt lat="48.893165588379" lon="2.6382632255554"><ele>60</ele><time>2026-4-30T17:37:16Z</time></trkpt>
<trkpt lat="48.893245697021" lon="2.6382765769958"><ele>60</ele><time>2026-4-30T17:37:19Z</time></trkpt>
<trkpt lat="48.893325805664" lon="2.6382794380188"><ele>60</ele><time>2026-4-30T17:37:22Z</time></trkpt>
<trkpt lat="48.893367767334" lon="2.6383581161499"><ele>60</ele><time>2026-4-30T17:37:25Z</time></trkpt>
<trkpt lat="48.893413543701" lon="2.6384670734406"><ele>60</ele><time>2026-4-30T17:37:28Z</time></trkpt>
<trkpt lat="48.893447875977" lon="2.6385591030121"><ele>60</ele><time>2026-4-30T17:37:31Z</time></trkpt>
<trkpt lat="48.893501281738" lon="2.6386127471924"><ele>60</ele><time>2026-4-30T17:37:34Z</time></trkpt>
<trkpt lat="48.893562316895" lon="2.6386313438416"><ele>60</ele><time>2026-4-30T17:37:37Z</time></trkpt>
<trkpt lat="48.893615722656" lon="2.6386258602142"><ele>60</ele><time>2026-4-30T17:37:40Z</time></trkpt>
<trkpt lat="48.893703460693" lon="2.6386106014252"><ele>60</ele><time>2026-4-30T17:37:43Z</time></trkpt>
<trkpt lat="48.89380645752" lon="2.6385877132416"><ele>60</ele><time>2026-4-30T17:37:46Z</time></trkpt>
<trkpt lat="48.893898010254" lon="2.6385638713837"><ele>60</ele><time>2026-4-30T17:37:49Z</time></trkpt>
<trkpt lat="48.893978118896" lon="2.6385531425476"><ele>60</ele><time>2026-4-30T17:37:52Z</time></trkpt>
<trkpt lat="48.894035339355" lon="2.6385571956635"><ele>60</ele><time>2026-4-30T17:37:55Z</time></trkpt>
<trkpt lat="48.894096374512" lon="2.638575553894"><ele>60</ele><time>2026-4-30T17:37:58Z</time></trkpt>
<trkpt lat="48.894161224365" lon="2.6386110782623"><ele>60</ele><time>2026-4-30T17:38:1Z</time></trkpt>
<trkpt lat="48.894161224365" lon="2.6386110782623"><ele>60</ele><time>2026-4-30T17:38:4Z</time></trkpt>
<trkpt lat="48.894233703613" lon="2.638768196106"><ele>60</ele><time>2026-4-30T17:38:7Z</time></trkpt>
<trkpt lat="48.89427947998" lon="2.6388654708862"><ele>60</ele><time>2026-4-30T17:38:10Z</time></trkpt>
<trkpt lat="48.894313812256" lon="2.6389603614807"><ele>60</ele><time>2026-4-30T17:38:13Z</time></trkpt>
<trkpt lat="48.89436340332" lon="2.6390669345856"><ele>61</ele><time>2026-4-30T17:38:16Z</time></trkpt>
<trkpt lat="48.894412994385" lon="2.6391673088074"><ele>61</ele><time>2026-4-30T17:38:19Z</time></trkpt>
<trkpt lat="48.894474029541" lon="2.6392447948456"><ele>61</ele><time>2026-4-30T17:38:22Z</time></trkpt>
<trkpt lat="48.894523620605" lon="2.6393077373505"><ele>61</ele><time>2026-4-30T17:38:25Z</time></trkpt>
<trkpt lat="48.894580841064" lon="2.6393914222717"><ele>61</ele><time>2026-4-30T17:38:28Z</time></trkpt>
<trkpt lat="48.894630432129" lon="2.6394786834717"><ele>61</ele><time>2026-4-30T17:38:31Z</time></trkpt>
<trkpt lat="48.894680023193" lon="2.6395738124847"><ele>61</ele><time>2026-4-30T17:38:34Z</time></trkpt>
<trkpt lat="48.894721984863" lon="2.6396563053131"><ele>61</ele><time>2026-4-30T17:38:37Z</time></trkpt>
<trkpt lat="48.894760131836" lon="2.6397430896759"><ele>61</ele><time>2026-4-30T17:38:40Z</time></trkpt>
<trkpt lat="48.894794464111" lon="2.6398389339447"><ele>61</ele><time>2026-4-30T17:38:43Z</time></trkpt>
<trkpt lat="48.894836425781" lon="2.6399340629578"><ele>61</ele><time>2026-4-30T17:38:46Z</time></trkpt>
<trkpt lat="48.894889831543" lon="2.6400444507599"><ele>61</ele><time>2026-4-30T17:38:49Z</time></trkpt>
<trkpt lat="48.894947052002" lon="2.6401515007019"><ele>61</ele><time>2026-4-30T17:38:52Z</time></trkpt>
<trkpt lat="48.895000457764" lon="2.6402549743652"><ele>62</ele><time>2026-4-30T17:38:55Z</time></trkpt>
<trkpt lat="48.895057678223" lon="2.6403636932373"><ele>62</ele><time>2026-4-30T17:38:58Z</time></trkpt>
<trkpt lat="48.89510345459" lon="2.6404569149017"><ele>62</ele><time>2026-4-30T17:39:1Z</time></trkpt>
<trkpt lat="48.895153045654" lon="2.6405634880066"><ele>62</ele><time>2026-4-30T17:39:4Z</time></trkpt>
<trkpt lat="48.895210266113" lon="2.6406960487366"><ele>62</ele><time>2026-4-30T17:39:7Z</time></trkpt>
<trkpt lat="48.895210266113" lon="2.6406960487366"><ele>62</ele><time>2026-4-30T17:39:10Z</time></trkpt>
<trkpt lat="48.89527130127" lon="2.6408808231354"><ele>62</ele><time>2026-4-30T17:39:13Z</time></trkpt>
<trkpt lat="48.89527130127" lon="2.6408808231354"><ele>62</ele><time>2026-4-30T17:39:16Z</time></trkpt>
<trkpt lat="48.895359039307" lon="2.6410782337189"><ele>62</ele><time>2026-4-30T17:39:19Z</time></trkpt>
<trkpt lat="48.895412445068" lon="2.6411724090576"><ele>62</ele><time>2026-4-30T17:39:22Z</time></trkpt>
<trkpt lat="48.895477294922" lon="2.6412763595581"><ele>62</ele><time>2026-4-30T17:39:25Z</time></trkpt>
<trkpt lat="48.895542144775" lon="2.6413869857788"><ele>61</ele><time>2026-4-30T17:39:28Z</time></trkpt>
<trkpt lat="48.895606994629" lon="2.641503572464"><ele>61</ele><time>2026-4-30T17:39:31Z</time></trkpt>
<trkpt lat="48.895606994629" lon="2.641503572464"><ele>61</ele><time>2026-4-30T17:39:34Z</time></trkpt>
<trkpt lat="48.89571762085" lon="2.6417262554169"><ele>61</ele><time>2026-4-30T17:39:37Z</time></trkpt>
<trkpt lat="48.895771026611" lon="2.6418373584747"><ele>62</ele><time>2026-4-30T17:39:40Z</time></trkpt>
<trkpt lat="48.895843505859" lon="2.6420493125916"><ele>62</ele><time>2026-4-30T17:39:43Z</time></trkpt>
<trkpt lat="48.895893096924" lon="2.6421492099762"><ele>63</ele><time>2026-4-30T17:39:46Z</time></trkpt>
<trkpt lat="48.895893096924" lon="2.6421492099762"><ele>63</ele><time>2026-4-30T17:39:49Z</time></trkpt>
<trkpt lat="48.896003723145" lon="2.6423561573029"><ele>63</ele><time>2026-4-30T17:39:52Z</time></trkpt>
<trkpt lat="48.896068572998" lon="2.6424744129181"><ele>63</ele><time>2026-4-30T17:39:55Z</time></trkpt>
<trkpt lat="48.896125793457" lon="2.6425907611847"><ele>63</ele><time>2026-4-30T17:39:58Z</time></trkpt>
<trkpt lat="48.896183013916" lon="2.6427087783813"><ele>63</ele><time>2026-4-30T17:40:1Z</time></trkpt>
<trkpt lat="48.896244049072" lon="2.6428365707397"><ele>63</ele><time>2026-4-30T17:40:4Z</time></trkpt>
<trkpt lat="48.896301269531" lon="2.6429536342621"><ele>63</ele><time>2026-4-30T17:40:7Z</time></trkpt>
<trkpt lat="48.896366119385" lon="2.6430563926697"><ele>62</ele><time>2026-4-30T17:40:10Z</time></trkpt>
<trkpt lat="48.896366119385" lon="2.6430563926697"><ele>62</ele><time>2026-4-30T17:40:13Z</time></trkpt>
<trkpt lat="48.896446228027" lon="2.6432316303253"><ele>62</ele><time>2026-4-30T17:40:16Z</time></trkpt>
<trkpt lat="48.896446228027" lon="2.6432316303253"><ele>62</ele><time>2026-4-30T17:40:19Z</time></trkpt>
<trkpt lat="48.896446228027" lon="2.6432316303253"><ele>62</ele><time>2026-4-30T17:40:22Z</time></trkpt>
<trkpt lat="48.896389007568" lon="2.6432957649231"><ele>62</ele><time>2026-4-30T17:40:25Z</time></trkpt>
<trkpt lat="48.896392822266" lon="2.6434895992279"><ele>63</ele><time>2026-4-30T17:40:28Z</time></trkpt>
<trkpt lat="48.896461486816" lon="2.6436536312103"><ele>63</ele><time>2026-4-30T17:40:31Z</time></trkpt>
<trkpt lat="48.896560668945" lon="2.6438899040222"><ele>63</ele><time>2026-4-30T17:40:34Z</time></trkpt>
<trkpt lat="48.896640777588" lon="2.6439669132233"><ele>63</ele><time>2026-4-30T17:40:37Z</time></trkpt>
<trkpt lat="48.896724700928" lon="2.6440086364746"><ele>64</ele><time>2026-4-30T17:40:40Z</time></trkpt>
<trkpt lat="48.896808624268" lon="2.6440436840057"><ele>64</ele><time>2026-4-30T17:40:43Z</time></trkpt>
<trkpt lat="48.896892547607" lon="2.6441190242767"><ele>64</ele><time>2026-4-30T17:40:46Z</time></trkpt>
<trkpt lat="48.896942138672" lon="2.6442222595215"><ele>64</ele><time>2026-4-30T17:40:49Z</time></trkpt>
<trkpt lat="48.896965026855" lon="2.6443753242493"><ele>64</ele><time>2026-4-30T17:40:52Z</time></trkpt>
<trkpt lat="48.896976470947" lon="2.6444871425629"><ele>64</ele><time>2026-4-30T17:40:55Z</time></trkpt>
<trkpt lat="48.896995544434" lon="2.6445896625519"><ele>64</ele><time>2026-4-30T17:40:58Z</time></trkpt>
<trkpt lat="48.897018432617" lon="2.6446750164032"><ele>64</ele><time>2026-4-30T17:41:1Z</time></trkpt>
<trkpt lat="48.897018432617" lon="2.6446750164032"><ele>64</ele><time>2026-4-30T17:41:4Z</time></trkpt>
<trkpt lat="48.897018432617" lon="2.6446750164032"><ele>64</ele><time>2026-4-30T17:41:7Z</time></trkpt>
<trkpt lat="48.897083282471" lon="2.6448287963867"><ele>65</ele><time>2026-4-30T17:41:10Z</time></trkpt>
<trkpt lat="48.897083282471" lon="2.6448287963867"><ele>65</ele><time>2026-4-30T17:41:13Z</time></trkpt>
<trkpt lat="48.897136688232" lon="2.6449735164642"><ele>65</ele><time>2026-4-30T17:41:16Z</time></trkpt>
<trkpt lat="48.897155761719" lon="2.6450664997101"><ele>65</ele><time>2026-4-30T17:41:19Z</time></trkpt>
<trkpt lat="48.897178649902" lon="2.6451575756073"><ele>65</ele><time>2026-4-30T17:41:22Z</time></trkpt>
<trkpt lat="48.897190093994" lon="2.6452465057373"><ele>65</ele><time>2026-4-30T17:41:25Z</time></trkpt>
<trkpt lat="48.897205352783" lon="2.6453523635864"><ele>65</ele><time>2026-4-30T17:41:28Z</time></trkpt>
<trkpt lat="48.897232055664" lon="2.6454639434814"><ele>65</ele><time>2026-4-30T17:41:31Z</time></trkpt>
<trkpt lat="48.89725112915" lon="2.6456253528595"><ele>64</ele><time>2026-4-30T17:41:34Z</time></trkpt>
<trkpt lat="48.897281646729" lon="2.6457052230835"><ele>64</ele><time>2026-4-30T17:41:37Z</time></trkpt>
<trkpt lat="48.897312164307" lon="2.6458127498627"><ele>64</ele><time>2026-4-30T17:41:40Z</time></trkpt>
<trkpt lat="48.897338867188" lon="2.6459262371063"><ele>64</ele><time>2026-4-30T17:41:43Z</time></trkpt>
<trkpt lat="48.897384643555" lon="2.6460480690002"><ele>63</ele><time>2026-4-30T17:41:46Z</time></trkpt>
<trkpt lat="48.897384643555" lon="2.6460480690002"><ele>63</ele><time>2026-4-30T17:41:49Z</time></trkpt>
<trkpt lat="48.89741897583" lon="2.646181344986"><ele>63</ele><time>2026-4-30T17:41:52Z</time></trkpt>
<trkpt lat="48.897464752197" lon="2.6462523937225"><ele>62</ele><time>2026-4-30T17:41:55Z</time></trkpt>
<trkpt lat="48.897518157959" lon="2.6463303565979"><ele>62</ele><time>2026-4-30T17:41:58Z</time></trkpt>
<trkpt lat="48.897575378418" lon="2.6464116573334"><ele>61</ele><time>2026-4-30T17:42:1Z</time></trkpt>
<trkpt lat="48.897636413574" lon="2.6464912891388"><ele>60</ele><time>2026-4-30T17:42:4Z</time></trkpt>
<trkpt lat="48.897701263428" lon="2.6465742588043"><ele>59</ele><time>2026-4-30T17:42:7Z</time></trkpt>
<trkpt lat="48.897777557373" lon="2.6466648578644"><ele>58</ele><time>2026-4-30T17:42:10Z</time></trkpt>
<trkpt lat="48.897956848145" lon="2.6468596458435"><ele>57</ele><time>2026-4-30T17:42:13Z</time></trkpt>
<trkpt lat="48.898082733154" lon="2.6469752788544"><ele>56</ele><time>2026-4-30T17:42:16Z</time></trkpt>
<trkpt lat="48.898204803467" lon="2.6470906734467"><ele>56</ele><time>2026-4-30T17:42:19Z</time></trkpt>
<trkpt lat="48.898315429688" lon="2.6471965312958"><ele>56</ele><time>2026-4-30T17:42:22Z</time></trkpt>
<trkpt lat="48.898433685303" lon="2.6472990512848"><ele>56</ele><time>2026-4-30T17:42:25Z</time></trkpt>
<trkpt lat="48.898540496826" lon="2.6474046707153"><ele>57</ele><time>2026-4-30T17:42:28Z</time></trkpt>
<trkpt lat="48.898643493652" lon="2.647513628006"><ele>57</ele><time>2026-4-30T17:42:31Z</time></trkpt>
<trkpt lat="48.898727416992" lon="2.6476051807404"><ele>58</ele><time>2026-4-30T17:42:34Z</time></trkpt>
<trkpt lat="48.898807525635" lon="2.6476900577545"><ele>58</ele><time>2026-4-30T17:42:37Z</time></trkpt>
<trkpt lat="48.898899078369" lon="2.6477727890015"><ele>59</ele><time>2026-4-30T17:42:40Z</time></trkpt>
<trkpt lat="48.898994445801" lon="2.6478652954102"><ele>59</ele><time>2026-4-30T17:42:43Z</time></trkpt>
<trkpt lat="48.899089813232" lon="2.6479551792145"><ele>60</ele><time>2026-4-30T17:42:46Z</time></trkpt>
<trkpt lat="48.899192810059" lon="2.6480226516724"><ele>61</ele><time>2026-4-30T17:42:49Z</time></trkpt>
<trkpt lat="48.899299621582" lon="2.6480593681335"><ele>62</ele><time>2026-4-30T17:42:52Z</time></trkpt>
<trkpt lat="48.899406433105" lon="2.6480827331543"><ele>62</ele><time>2026-4-30T17:42:55Z</time></trkpt>
<trkpt lat="48.899517059326" lon="2.648101568222"><ele>63</ele><time>2026-4-30T17:42:58Z</time></trkpt>
<trkpt lat="48.899616241455" lon="2.6481070518494"><ele>64</ele><time>2026-4-30T17:43:1Z</time></trkpt>
<trkpt lat="48.899711608887" lon="2.6481084823608"><ele>64</ele><time>2026-4-30T17:43:4Z</time></trkpt>
<trkpt lat="48.899787902832" lon="2.6481049060822"><ele>65</ele><time>2026-4-30T17:43:7Z</time></trkpt>
<trkpt lat="48.899868011475" lon="2.6481025218964"><ele>65</ele><time>2026-4-30T17:43:10Z</time></trkpt>
<trkpt lat="48.899940490723" lon="2.6481101512909"><ele>65</ele><time>2026-4-30T17:43:13Z</time></trkpt>
<trkpt lat="48.900020599365" lon="2.6481108665466"><ele>66</ele><time>2026-4-30T17:43:16Z</time></trkpt>
<trkpt lat="48.9001121521" lon="2.6481132507324"><ele>66</ele><time>2026-4-30T17:43:19Z</time></trkpt>
<trkpt lat="48.900196075439" lon="2.6481196880341"><ele>66</ele><time>2026-4-30T17:43:22Z</time></trkpt>
<trkpt lat="48.900260925293" lon="2.6481199264526"><ele>66</ele><time>2026-4-30T17:43:25Z</time></trkpt>
<trkpt lat="48.900329589844" lon="2.6481263637543"><ele>66</ele><time>2026-4-30T17:43:28Z</time></trkpt>
<trkpt lat="48.900402069092" lon="2.648143529892"><ele>67</ele><time>2026-4-30T17:43:31Z</time></trkpt>
<trkpt lat="48.90047454834" lon="2.6481666564941"><ele>67</ele><time>2026-4-30T17:43:34Z</time></trkpt>
<trkpt lat="48.900550842285" lon="2.6481854915619"><ele>67</ele><time>2026-4-30T17:43:37Z</time></trkpt>
<trkpt lat="48.900550842285" lon="2.6481854915619"><ele>67</ele><time>2026-4-30T17:43:40Z</time></trkpt>
<trkpt lat="48.900684356689" lon="2.6482400894165"><ele>67</ele><time>2026-4-30T17:43:43Z</time></trkpt>
<trkpt lat="48.900756835938" lon="2.6482713222504"><ele>68</ele><time>2026-4-30T17:43:46Z</time></trkpt>
<trkpt lat="48.900814056396" lon="2.6483104228973"><ele>68</ele><time>2026-4-30T17:43:49Z</time></trkpt>
<trkpt lat="48.900890350342" lon="2.6483612060547"><ele>68</ele><time>2026-4-30T17:43:52Z</time></trkpt>
<trkpt lat="48.900966644287" lon="2.6484198570251"><ele>68</ele><time>2026-4-30T17:43:55Z</time></trkpt>
<trkpt lat="48.90104675293" lon="2.6484715938568"><ele>68</ele><time>2026-4-30T17:43:58Z</time></trkpt>
<trkpt lat="48.90104675293" lon="2.6484715938568"><ele>68</ele><time>2026-4-30T17:44:1Z</time></trkpt>
<trkpt lat="48.901161193848" lon="2.6485686302185"><ele>68</ele><time>2026-4-30T17:44:4Z</time></trkpt>
<trkpt lat="48.901218414307" lon="2.6486167907715"><ele>68</ele><time>2026-4-30T17:44:7Z</time></trkpt>
<trkpt lat="48.901218414307" lon="2.6486167907715"><ele>68</ele><time>2026-4-30T17:44:10Z</time></trkpt>
<trkpt lat="48.901298522949" lon="2.6487228870392"><ele>68</ele><time>2026-4-30T17:44:13Z</time></trkpt>
<trkpt lat="48.901298522949" lon="2.6487228870392"><ele>68</ele><time>2026-4-30T17:44:16Z</time></trkpt>
<trkpt lat="48.901298522949" lon="2.6487228870392"><ele>68</ele><time>2026-4-30T17:44:19Z</time></trkpt>
<trkpt lat="48.901378631592" lon="2.6488094329834"><ele>68</ele><time>2026-4-30T17:44:22Z</time></trkpt>
<trkpt lat="48.901378631592" lon="2.6488094329834"><ele>68</ele><time>2026-4-30T17:44:25Z</time></trkpt>
<trkpt lat="48.90145111084" lon="2.6488738059998"><ele>68</ele><time>2026-4-30T17:44:28Z</time></trkpt>
<trkpt lat="48.90145111084" lon="2.6488738059998"><ele>68</ele><time>2026-4-30T17:44:31Z</time></trkpt>
<trkpt lat="48.901557922363" lon="2.6490120887756"><ele>67</ele><time>2026-4-30T17:44:34Z</time></trkpt>
<trkpt lat="48.901615142822" lon="2.6490771770477"><ele>67</ele><time>2026-4-30T17:44:37Z</time></trkpt>
<trkpt lat="48.901676177979" lon="2.6491417884827"><ele>67</ele><time>2026-4-30T17:44:40Z</time></trkpt>
<trkpt lat="48.901725769043" lon="2.6492083072662"><ele>67</ele><time>2026-4-30T17:44:43Z</time></trkpt>
<trkpt lat="48.901782989502" lon="2.6492655277252"><ele>67</ele><time>2026-4-30T17:44:46Z</time></trkpt>
<trkpt lat="48.901847839355" lon="2.6493194103241"><ele>66</ele><time>2026-4-30T17:44:49Z</time></trkpt>
<trkpt lat="48.901905059814" lon="2.6493813991547"><ele>66</ele><time>2026-4-30T17:44:52Z</time></trkpt>
<trkpt lat="48.901958465576" lon="2.6494402885437"><ele>66</ele><time>2026-4-30T17:44:55Z</time></trkpt>
<trkpt lat="48.902015686035" lon="2.6494989395142"><ele>66</ele><time>2026-4-30T17:44:58Z</time></trkpt>
<trkpt lat="48.902099609375" lon="2.6495840549469"><ele>66</ele><time>2026-4-30T17:45:1Z</time></trkpt>
<trkpt lat="48.90217590332" lon="2.64968085289"><ele>66</ele><time>2026-4-30T17:45:4Z</time></trkpt>
<trkpt lat="48.902229309082" lon="2.6497414112091"><ele>66</ele><time>2026-4-30T17:45:7Z</time></trkpt>
<trkpt lat="48.902351379395" lon="2.6498901844025"><ele>66</ele><time>2026-4-30T17:45:10Z</time></trkpt>
<trkpt lat="48.902446746826" lon="2.6500277519226"><ele>66</ele><time>2026-4-30T17:45:13Z</time></trkpt>
<trkpt lat="48.902568817139" lon="2.6501982212067"><ele>66</ele><time>2026-4-30T17:45:16Z</time></trkpt>
<trkpt lat="48.902610778809" lon="2.6502764225006"><ele>67</ele><time>2026-4-30T17:45:19Z</time></trkpt>
<trkpt lat="48.902648925781" lon="2.6503639221191"><ele>67</ele><time>2026-4-30T17:45:22Z</time></trkpt>
<trkpt lat="48.902717590332" lon="2.6504666805267"><ele>67</ele><time>2026-4-30T17:45:25Z</time></trkpt>
<trkpt lat="48.902770996094" lon="2.6505835056305"><ele>67</ele><time>2026-4-30T17:45:28Z</time></trkpt>
<trkpt lat="48.90283203125" lon="2.6507303714752"><ele>67</ele><time>2026-4-30T17:45:31Z</time></trkpt>
<trkpt lat="48.902896881104" lon="2.6508762836456"><ele>68</ele><time>2026-4-30T17:45:34Z</time></trkpt>
<trkpt lat="48.902961730957" lon="2.6510193347931"><ele>68</ele><time>2026-4-30T17:45:37Z</time></trkpt>
<trkpt lat="48.903026580811" lon="2.6511714458466"><ele>68</ele><time>2026-4-30T17:45:40Z</time></trkpt>
<trkpt lat="48.90308380127" lon="2.6513056755066"><ele>68</ele><time>2026-4-30T17:45:43Z</time></trkpt>
<trkpt lat="48.903156280518" lon="2.6514432430267"><ele>68</ele><time>2026-4-30T17:45:46Z</time></trkpt>
<trkpt lat="48.903240203857" lon="2.6515853404999"><ele>68</ele><time>2026-4-30T17:45:49Z</time></trkpt>
<trkpt lat="48.903327941895" lon="2.6517152786255"><ele>68</ele><time>2026-4-30T17:45:52Z</time></trkpt>
<trkpt lat="48.903419494629" lon="2.6518466472626"><ele>68</ele><time>2026-4-30T17:45:55Z</time></trkpt>
<trkpt lat="48.903499603271" lon="2.6519560813904"><ele>68</ele><time>2026-4-30T17:45:58Z</time></trkpt>
<trkpt lat="48.903594970703" lon="2.6520552635193"><ele>68</ele><time>2026-4-30T17:46:1Z</time></trkpt>
<trkpt lat="48.903709411621" lon="2.6521496772766"><ele>68</ele><time>2026-4-30T17:46:4Z</time></trkpt>
<trkpt lat="48.903823852539" lon="2.6522326469421"><ele>68</ele><time>2026-4-30T17:46:7Z</time></trkpt>
<trkpt lat="48.903938293457" lon="2.6523082256317"><ele>68</ele><time>2026-4-30T17:46:10Z</time></trkpt>
<trkpt lat="48.90406036377" lon="2.6523921489716"><ele>68</ele><time>2026-4-30T17:46:13Z</time></trkpt>
<trkpt lat="48.904167175293" lon="2.6524796485901"><ele>68</ele><time>2026-4-30T17:46:16Z</time></trkpt>
<trkpt lat="48.90425491333" lon="2.6525595188141"><ele>68</ele><time>2026-4-30T17:46:19Z</time></trkpt>
<trkpt lat="48.904342651367" lon="2.6526350975037"><ele>68</ele><time>2026-4-30T17:46:22Z</time></trkpt>
<trkpt lat="48.904438018799" lon="2.6527101993561"><ele>68</ele><time>2026-4-30T17:46:25Z</time></trkpt>
<trkpt lat="48.904518127441" lon="2.6527669429779"><ele>68</ele><time>2026-4-30T17:46:28Z</time></trkpt>
<trkpt lat="48.904598236084" lon="2.652827501297"><ele>68</ele><time>2026-4-30T17:46:31Z</time></trkpt>
<trkpt lat="48.904678344727" lon="2.6528856754303"><ele>68</ele><time>2026-4-30T17:46:34Z</time></trkpt>
<trkpt lat="48.904766082764" lon="2.6529536247253"><ele>68</ele><time>2026-4-30T17:46:37Z</time></trkpt>
<trkpt lat="48.904857635498" lon="2.6530294418335"><ele>68</ele><time>2026-4-30T17:46:40Z</time></trkpt>
<trkpt lat="48.904941558838" lon="2.6531105041504"><ele>68</ele><time>2026-4-30T17:46:43Z</time></trkpt>
<trkpt lat="48.905033111572" lon="2.6531898975372"><ele>68</ele><time>2026-4-30T17:46:46Z</time></trkpt>
<trkpt lat="48.905120849609" lon="2.6532835960388"><ele>67</ele><time>2026-4-30T17:46:49Z</time></trkpt>
<trkpt lat="48.905212402344" lon="2.6533799171448"><ele>67</ele><time>2026-4-30T17:46:52Z</time></trkpt>
<trkpt lat="48.905307769775" lon="2.6534721851349"><ele>68</ele><time>2026-4-30T17:46:55Z</time></trkpt>
<trkpt lat="48.905384063721" lon="2.6535446643829"><ele>68</ele><time>2026-4-30T17:46:58Z</time></trkpt>
<trkpt lat="48.905460357666" lon="2.6536245346069"><ele>68</ele><time>2026-4-30T17:47:1Z</time></trkpt>
<trkpt lat="48.905536651611" lon="2.6537072658539"><ele>68</ele><time>2026-4-30T17:47:4Z</time></trkpt>
<trkpt lat="48.905616760254" lon="2.6537871360779"><ele>68</ele><time>2026-4-30T17:47:7Z</time></trkpt>
<trkpt lat="48.905700683594" lon="2.6538598537445"><ele>68</ele><time>2026-4-30T17:47:10Z</time></trkpt>
<trkpt lat="48.905788421631" lon="2.6539492607117"><ele>68</ele><time>2026-4-30T17:47:13Z</time></trkpt>
<trkpt lat="48.905868530273" lon="2.6540343761444"><ele>68</ele><time>2026-4-30T17:47:16Z</time></trkpt>
<trkpt lat="48.905956268311" lon="2.6541225910187"><ele>68</ele><time>2026-4-30T17:47:19Z</time></trkpt>
<trkpt lat="48.906024932861" lon="2.654196023941"><ele>68</ele><time>2026-4-30T17:47:22Z</time></trkpt>
<trkpt lat="48.906093597412" lon="2.6542689800262"><ele>68</ele><time>2026-4-30T17:47:25Z</time></trkpt>
<trkpt lat="48.906169891357" lon="2.6543514728546"><ele>68</ele><time>2026-4-30T17:47:28Z</time></trkpt>
<trkpt lat="48.906242370605" lon="2.6544196605682"><ele>68</ele><time>2026-4-30T17:47:31Z</time></trkpt>
<trkpt lat="48.906303405762" lon="2.6544811725616"><ele>68</ele><time>2026-4-30T17:47:34Z</time></trkpt>
<trkpt lat="48.906352996826" lon="2.6545453071594"><ele>68</ele><time>2026-4-30T17:47:37Z</time></trkpt>
<trkpt lat="48.906414031982" lon="2.6546106338501"><ele>68</ele><time>2026-4-30T17:47:40Z</time></trkpt>
<trkpt lat="48.906490325928" lon="2.6546897888184"><ele>68</ele><time>2026-4-30T17:47:43Z</time></trkpt>
<trkpt lat="48.906566619873" lon="2.6547555923462"><ele>68</ele><time>2026-4-30T17:47:46Z</time></trkpt>
<trkpt lat="48.90665435791" lon="2.6548175811768"><ele>68</ele><time>2026-4-30T17:47:49Z</time></trkpt>
<trkpt lat="48.906723022461" lon="2.6548736095428"><ele>68</ele><time>2026-4-30T17:47:52Z</time></trkpt>
<trkpt lat="48.906795501709" lon="2.6549355983734"><ele>68</ele><time>2026-4-30T17:47:55Z</time></trkpt>
<trkpt lat="48.906867980957" lon="2.6549913883209"><ele>68</ele><time>2026-4-30T17:47:58Z</time></trkpt>
<trkpt lat="48.906925201416" lon="2.6550440788269"><ele>68</ele><time>2026-4-30T17:48:1Z</time></trkpt>
<trkpt lat="48.906986236572" lon="2.65509557724"><ele>68</ele><time>2026-4-30T17:48:4Z</time></trkpt>
<trkpt lat="48.907043457031" lon="2.655145406723"><ele>69</ele><time>2026-4-30T17:48:7Z</time></trkpt>
<trkpt lat="48.907112121582" lon="2.6551990509033"><ele>69</ele><time>2026-4-30T17:48:10Z</time></trkpt>
<trkpt lat="48.907188415527" lon="2.6552488803864"><ele>69</ele><time>2026-4-30T17:48:13Z</time></trkpt>
<trkpt lat="48.907287597656" lon="2.6553070545197"><ele>69</ele><time>2026-4-30T17:48:16Z</time></trkpt>
<trkpt lat="48.907405853271" lon="2.6553659439087"><ele>70</ele><time>2026-4-30T17:48:19Z</time></trkpt>
<trkpt lat="48.907508850098" lon="2.6554183959961"><ele>70</ele><time>2026-4-30T17:48:22Z</time></trkpt>
<trkpt lat="48.907596588135" lon="2.6554620265961"><ele>70</ele><time>2026-4-30T17:48:25Z</time></trkpt>
<trkpt lat="48.907669067383" lon="2.6554961204529"><ele>70</ele><time>2026-4-30T17:48:28Z</time></trkpt>
<trkpt lat="48.907741546631" lon="2.6555285453796"><ele>71</ele><time>2026-4-30T17:48:31Z</time></trkpt>
<trkpt lat="48.907741546631" lon="2.6555285453796"><ele>71</ele><time>2026-4-30T17:48:34Z</time></trkpt>
<trkpt lat="48.907836914062" lon="2.6555736064911"><ele>71</ele><time>2026-4-30T17:48:37Z</time></trkpt>
<trkpt lat="48.907836914062" lon="2.6555736064911"><ele>71</ele><time>2026-4-30T17:48:40Z</time></trkpt>
<trkpt lat="48.9079246521" lon="2.6556003093719"><ele>71</ele><time>2026-4-30T17:48:43Z</time></trkpt>
<trkpt lat="48.9079246521" lon="2.6556003093719"><ele>71</ele><time>2026-4-30T17:48:46Z</time></trkpt>
<trkpt lat="48.908004760742" lon="2.655636548996"><ele>71</ele><time>2026-4-30T17:48:49Z</time></trkpt>
<trkpt lat="48.908069610596" lon="2.6556587219238"><ele>71</ele><time>2026-4-30T17:48:52Z</time></trkpt>
<trkpt lat="48.908130645752" lon="2.6556832790375"><ele>72</ele><time>2026-4-30T17:48:55Z</time></trkpt>
<trkpt lat="48.908191680908" lon="2.655707359314"><ele>72</ele><time>2026-4-30T17:48:58Z</time></trkpt>
<trkpt lat="48.908260345459" lon="2.6557476520538"><ele>72</ele><time>2026-4-30T17:49:1Z</time></trkpt>
<trkpt lat="48.908340454102" lon="2.655796289444"><ele>72</ele><time>2026-4-30T17:49:4Z</time></trkpt>
<trkpt lat="48.908435821533" lon="2.6558420658112"><ele>72</ele><time>2026-4-30T17:49:7Z</time></trkpt>
<trkpt lat="48.908512115479" lon="2.6558802127838"><ele>73</ele><time>2026-4-30T17:49:10Z</time></trkpt>
<trkpt lat="48.908596038818" lon="2.6559190750122"><ele>73</ele><time>2026-4-30T17:49:13Z</time></trkpt>
<trkpt lat="48.908679962158" lon="2.655953168869"><ele>73</ele><time>2026-4-30T17:49:16Z</time></trkpt>
<trkpt lat="48.908744812012" lon="2.6559824943542"><ele>74</ele><time>2026-4-30T17:49:19Z</time></trkpt>
<trkpt lat="48.908805847168" lon="2.6560142040253"><ele>74</ele><time>2026-4-30T17:49:22Z</time></trkpt>
<trkpt lat="48.908870697021" lon="2.6560440063477"><ele>74</ele><time>2026-4-30T17:49:25Z</time></trkpt>
<trkpt lat="48.908935546875" lon="2.6560750007629"><ele>75</ele><time>2026-4-30T17:49:28Z</time></trkpt>
<trkpt lat="48.909004211426" lon="2.6561048030853"><ele>75</ele><time>2026-4-30T17:49:31Z</time></trkpt>
<trkpt lat="48.909080505371" lon="2.6561405658722"><ele>75</ele><time>2026-4-30T17:49:34Z</time></trkpt>
<trkpt lat="48.909149169922" lon="2.6561756134033"><ele>76</ele><time>2026-4-30T17:49:37Z</time></trkpt>
<trkpt lat="48.909206390381" lon="2.6562061309814"><ele>76</ele><time>2026-4-30T17:49:40Z</time></trkpt>
<trkpt lat="48.909206390381" lon="2.6562061309814"><ele>76</ele><time>2026-4-30T17:49:43Z</time></trkpt>
<trkpt lat="48.90930557251" lon="2.6562535762787"><ele>77</ele><time>2026-4-30T17:49:46Z</time></trkpt>
<trkpt lat="48.909370422363" lon="2.6562917232513"><ele>77</ele><time>2026-4-30T17:49:49Z</time></trkpt>
<trkpt lat="48.909427642822" lon="2.6563408374786"><ele>77</ele><time>2026-4-30T17:49:52Z</time></trkpt>
<trkpt lat="48.909481048584" lon="2.6563892364502"><ele>78</ele><time>2026-4-30T17:49:55Z</time></trkpt>
<trkpt lat="48.909530639648" lon="2.6564381122589"><ele>78</ele><time>2026-4-30T17:49:58Z</time></trkpt>
<trkpt lat="48.909587860107" lon="2.6564874649048"><ele>78</ele><time>2026-4-30T17:50:1Z</time></trkpt>
<trkpt lat="48.909641265869" lon="2.6565344333649"><ele>79</ele><time>2026-4-30T17:50:4Z</time></trkpt>
<trkpt lat="48.909694671631" lon="2.6565940380096"><ele>79</ele><time>2026-4-30T17:50:7Z</time></trkpt>
<trkpt lat="48.909759521484" lon="2.6566603183746"><ele>80</ele><time>2026-4-30T17:50:10Z</time></trkpt>
<trkpt lat="48.909812927246" lon="2.6567244529724"><ele>80</ele><time>2026-4-30T17:50:13Z</time></trkpt>
<trkpt lat="48.909873962402" lon="2.6567862033844"><ele>80</ele><time>2026-4-30T17:50:16Z</time></trkpt>
<trkpt lat="48.909938812256" lon="2.6568472385406"><ele>80</ele><time>2026-4-30T17:50:19Z</time></trkpt>
<trkpt lat="48.909996032715" lon="2.6569032669067"><ele>80</ele><time>2026-4-30T17:50:22Z</time></trkpt>
<trkpt lat="48.910041809082" lon="2.6569559574127"><ele>80</ele><time>2026-4-30T17:50:25Z</time></trkpt>
<trkpt lat="48.910091400146" lon="2.6570150852203"><ele>80</ele><time>2026-4-30T17:50:28Z</time></trkpt>
<trkpt lat="48.910167694092" lon="2.6570911407471"><ele>81</ele><time>2026-4-30T17:50:31Z</time></trkpt>
<trkpt lat="48.910224914551" lon="2.6571462154388"><ele>81</ele><time>2026-4-30T17:50:34Z</time></trkpt>
<trkpt lat="48.910293579102" lon="2.6572132110596"><ele>81</ele><time>2026-4-30T17:50:37Z</time></trkpt>
<trkpt lat="48.910358428955" lon="2.6572780609131"><ele>81</ele><time>2026-4-30T17:50:40Z</time></trkpt>
<trkpt lat="48.910415649414" lon="2.6573379039764"><ele>81</ele><time>2026-4-30T17:50:43Z</time></trkpt>
<trkpt lat="48.910480499268" lon="2.6573991775513"><ele>81</ele><time>2026-4-30T17:50:46Z</time></trkpt>
<trkpt lat="48.910549163818" lon="2.6574645042419"><ele>82</ele><time>2026-4-30T17:50:49Z</time></trkpt>
<trkpt lat="48.910617828369" lon="2.65753865242"><ele>82</ele><time>2026-4-30T17:50:52Z</time></trkpt>
<trkpt lat="48.910690307617" lon="2.6576149463654"><ele>82</ele><time>2026-4-30T17:50:55Z</time></trkpt>
<trkpt lat="48.910758972168" lon="2.6576859951019"><ele>82</ele><time>2026-4-30T17:50:58Z</time></trkpt>
<trkpt lat="48.910831451416" lon="2.657753944397"><ele>82</ele><time>2026-4-30T17:51:1Z</time></trkpt>
<trkpt lat="48.910911560059" lon="2.6578214168549"><ele>82</ele><time>2026-4-30T17:51:4Z</time></trkpt>
<trkpt lat="48.910987854004" lon="2.6578755378723"><ele>82</ele><time>2026-4-30T17:51:7Z</time></trkpt>
<trkpt lat="48.911064147949" lon="2.657922744751"><ele>82</ele><time>2026-4-30T17:51:10Z</time></trkpt>
<trkpt lat="48.911148071289" lon="2.6579627990723"><ele>82</ele><time>2026-4-30T17:51:13Z</time></trkpt>
<trkpt lat="48.911243438721" lon="2.6579937934875"><ele>82</ele><time>2026-4-30T17:51:16Z</time></trkpt>
<trkpt lat="48.911323547363" lon="2.658002614975"><ele>83</ele><time>2026-4-30T17:51:19Z</time></trkpt>
<trkpt lat="48.911396026611" lon="2.6580002307892"><ele>83</ele><time>2026-4-30T17:51:22Z</time></trkpt>
<trkpt lat="48.911502838135" lon="2.6579926013947"><ele>83</ele><time>2026-4-30T17:51:25Z</time></trkpt>
<trkpt lat="48.911613464355" lon="2.6579859256744"><ele>84</ele><time>2026-4-30T17:51:28Z</time></trkpt>
<trkpt lat="48.91170501709" lon="2.6579761505127"><ele>84</ele><time>2026-4-30T17:51:31Z</time></trkpt>
<trkpt lat="48.911796569824" lon="2.657968044281"><ele>85</ele><time>2026-4-30T17:51:34Z</time></trkpt>
<trkpt lat="48.911876678467" lon="2.6579661369324"><ele>85</ele><time>2026-4-30T17:51:37Z</time></trkpt>
<trkpt lat="48.911964416504" lon="2.6579759120941"><ele>86</ele><time>2026-4-30T17:51:40Z</time></trkpt>
<trkpt lat="48.912052154541" lon="2.657999753952"><ele>86</ele><time>2026-4-30T17:51:43Z</time></trkpt>
<trkpt lat="48.912139892578" lon="2.6580290794373"><ele>86</ele><time>2026-4-30T17:51:46Z</time></trkpt>
<trkpt lat="48.912212371826" lon="2.6580572128296"><ele>87</ele><time>2026-4-30T17:51:49Z</time></trkpt>
<trkpt lat="48.912284851074" lon="2.6580884456635"><ele>87</ele><time>2026-4-30T17:51:52Z</time></trkpt>
<trkpt lat="48.912349700928" lon="2.6581189632416"><ele>87</ele><time>2026-4-30T17:51:55Z</time></trkpt>
<trkpt lat="48.912425994873" lon="2.658153295517"><ele>87</ele><time>2026-4-30T17:51:58Z</time></trkpt>
<trkpt lat="48.912502288818" lon="2.6581830978394"><ele>88</ele><time>2026-4-30T17:52:1Z</time></trkpt>
<trkpt lat="48.912578582764" lon="2.6582067012787"><ele>88</ele><time>2026-4-30T17:52:4Z</time></trkpt>
<trkpt lat="48.912662506104" lon="2.658228635788"><ele>88</ele><time>2026-4-30T17:52:7Z</time></trkpt>
<trkpt lat="48.912754058838" lon="2.6582589149475"><ele>89</ele><time>2026-4-30T17:52:10Z</time></trkpt>
<trkpt lat="48.91283416748" lon="2.6582860946655"><ele>89</ele><time>2026-4-30T17:52:13Z</time></trkpt>
<trkpt lat="48.912910461426" lon="2.6583049297333"><ele>90</ele><time>2026-4-30T17:52:16Z</time></trkpt>
<trkpt lat="48.912971496582" lon="2.6583247184753"><ele>90</ele><time>2026-4-30T17:52:19Z</time></trkpt>
<trkpt lat="48.913032531738" lon="2.658355474472"><ele>90</ele><time>2026-4-30T17:52:22Z</time></trkpt>
<trkpt lat="48.913093566895" lon="2.6583783626556"><ele>90</ele><time>2026-4-30T17:52:25Z</time></trkpt>
<trkpt lat="48.913093566895" lon="2.6583783626556"><ele>90</ele><time>2026-4-30T17:52:28Z</time></trkpt>
<trkpt lat="48.913204193115" lon="2.6584060192108"><ele>91</ele><time>2026-4-30T17:52:31Z</time></trkpt>
<trkpt lat="48.913284301758" lon="2.658430814743"><ele>91</ele><time>2026-4-30T17:52:34Z</time></trkpt>
<trkpt lat="48.913368225098" lon="2.6584520339966"><ele>92</ele><time>2026-4-30T17:52:37Z</time></trkpt>
<trkpt lat="48.913429260254" lon="2.6584613323212"><ele>92</ele><time>2026-4-30T17:52:40Z</time></trkpt>
<trkpt lat="48.91349029541" lon="2.6584722995758"><ele>92</ele><time>2026-4-30T17:52:43Z</time></trkpt>
<trkpt lat="48.91349029541" lon="2.6584722995758"><ele>92</ele><time>2026-4-30T17:52:46Z</time></trkpt>
<trkpt lat="48.913581848145" lon="2.6584982872009"><ele>92</ele><time>2026-4-30T17:52:49Z</time></trkpt>
<trkpt lat="48.913581848145" lon="2.6584982872009"><ele>92</ele><time>2026-4-30T17:52:52Z</time></trkpt>
<trkpt lat="48.913677215576" lon="2.658552646637"><ele>93</ele><time>2026-4-30T17:52:55Z</time></trkpt>
<trkpt lat="48.913677215576" lon="2.658552646637"><ele>93</ele><time>2026-4-30T17:52:58Z</time></trkpt>
<trkpt lat="48.9137840271" lon="2.6586799621582"><ele>93</ele><time>2026-4-30T17:53:1Z</time></trkpt>
<trkpt lat="48.91381072998" lon="2.6588554382324"><ele>92</ele><time>2026-4-30T17:53:4Z</time></trkpt>
<trkpt lat="48.913799285889" lon="2.659031867981"><ele>91</ele><time>2026-4-30T17:53:7Z</time></trkpt>
<trkpt lat="48.913776397705" lon="2.6592106819153"><ele>90</ele><time>2026-4-30T17:53:10Z</time></trkpt>
<trkpt lat="48.913757324219" lon="2.659405708313"><ele>90</ele><time>2026-4-30T17:53:13Z</time></trkpt>
<trkpt lat="48.913734436035" lon="2.6596004962921"><ele>89</ele><time>2026-4-30T17:53:16Z</time></trkpt>
<trkpt lat="48.91370010376" lon="2.6597995758057"><ele>88</ele><time>2026-4-30T17:53:19Z</time></trkpt>
<trkpt lat="48.913669586182" lon="2.6600182056427"><ele>87</ele><time>2026-4-30T17:53:22Z</time></trkpt>
<trkpt lat="48.913635253906" lon="2.6602220535278"><ele>88</ele><time>2026-4-30T17:53:25Z</time></trkpt>
<trkpt lat="48.913600921631" lon="2.6604154109955"><ele>88</ele><time>2026-4-30T17:53:28Z</time></trkpt>
<trkpt lat="48.913570404053" lon="2.6605756282806"><ele>89</ele><time>2026-4-30T17:53:31Z</time></trkpt>
<trkpt lat="48.913551330566" lon="2.6607134342194"><ele>89</ele><time>2026-4-30T17:53:34Z</time></trkpt>
<trkpt lat="48.913558959961" lon="2.6608138084412"><ele>89</ele><time>2026-4-30T17:53:37Z</time></trkpt>
<trkpt lat="48.91357421875" lon="2.6609225273132"><ele>90</ele><time>2026-4-30T17:53:40Z</time></trkpt>
<trkpt lat="48.913597106934" lon="2.6610250473022"><ele>91</ele><time>2026-4-30T17:53:43Z</time></trkpt>
<trkpt lat="48.913627624512" lon="2.6611142158508"><ele>91</ele><time>2026-4-30T17:53:46Z</time></trkpt>
<trkpt lat="48.913627624512" lon="2.6611142158508"><ele>91</ele><time>2026-4-30T17:53:49Z</time></trkpt>
<trkpt lat="48.913642883301" lon="2.6612560749054"><ele>92</ele><time>2026-4-30T17:53:52Z</time></trkpt>
<trkpt lat="48.913642883301" lon="2.6612560749054"><ele>92</ele><time>2026-4-30T17:53:55Z</time></trkpt>
<trkpt lat="48.913642883301" lon="2.6612560749054"><ele>92</ele><time>2026-4-30T17:53:58Z</time></trkpt>
<trkpt lat="48.913646697998" lon="2.6613872051239"><ele>93</ele><time>2026-4-30T17:54:1Z</time></trkpt>
<trkpt lat="48.913646697998" lon="2.6613872051239"><ele>93</ele><time>2026-4-30T17:54:4Z</time></trkpt>
<trkpt lat="48.913654327393" lon="2.6615242958069"><ele>93</ele><time>2026-4-30T17:54:7Z</time></trkpt>
<trkpt lat="48.913650512695" lon="2.6616630554199"><ele>94</ele><time>2026-4-30T17:54:10Z</time></trkpt>
<trkpt lat="48.913642883301" lon="2.6617541313171"><ele>95</ele><time>2026-4-30T17:54:13Z</time></trkpt>
<trkpt lat="48.913635253906" lon="2.6618597507477"><ele>95</ele><time>2026-4-30T17:54:16Z</time></trkpt>
<trkpt lat="48.913639068604" lon="2.6620361804962"><ele>96</ele><time>2026-4-30T17:54:19Z</time></trkpt>
<trkpt lat="48.913627624512" lon="2.662130355835"><ele>97</ele><time>2026-4-30T17:54:22Z</time></trkpt>
<trkpt lat="48.913619995117" lon="2.6622242927551"><ele>97</ele><time>2026-4-30T17:54:25Z</time></trkpt>
<trkpt lat="48.913619995117" lon="2.6622242927551"><ele>97</ele><time>2026-4-30T17:54:28Z</time></trkpt>
<trkpt lat="48.913635253906" lon="2.6623697280884"><ele>98</ele><time>2026-4-30T17:54:31Z</time></trkpt>
<trkpt lat="48.913635253906" lon="2.6623697280884"><ele>98</ele><time>2026-4-30T17:54:34Z</time></trkpt>
<trkpt lat="48.913635253906" lon="2.6623697280884"><ele>98</ele><time>2026-4-30T17:54:37Z</time></trkpt>
<trkpt lat="48.91365814209" lon="2.6624205112457"><ele>98</ele><time>2026-4-30T17:54:40Z</time></trkpt>
<trkpt lat="48.913684844971" lon="2.6624662876129"><ele>98</ele><time>2026-4-30T17:54:43Z</time></trkpt>
<trkpt lat="48.913684844971" lon="2.6624662876129"><ele>98</ele><time>2026-4-30T17:54:46Z</time></trkpt>
<trkpt lat="48.913719177246" lon="2.6625354290009"><ele>99</ele><time>2026-4-30T17:54:49Z</time></trkpt>
<trkpt lat="48.913730621338" lon="2.662627696991"><ele>100</ele><time>2026-4-30T17:54:52Z</time></trkpt>
<trkpt lat="48.913738250732" lon="2.6626870632172"><ele>100</ele><time>2026-4-30T17:54:55Z</time></trkpt>
<trkpt lat="48.91374206543" lon="2.6627376079559"><ele>101</ele><time>2026-4-30T17:54:58Z</time></trkpt>
<trkpt lat="48.913745880127" lon="2.662787437439"><ele>101</ele><time>2026-4-30T17:55:1Z</time></trkpt>
<trkpt lat="48.913745880127" lon="2.6628901958466"><ele>102</ele><time>2026-4-30T17:55:4Z</time></trkpt>
<trkpt lat="48.913734436035" lon="2.6629748344421"><ele>103</ele><time>2026-4-30T17:55:7Z</time></trkpt>
<trkpt lat="48.913734436035" lon="2.6629748344421"><ele>103</ele><time>2026-4-30T17:55:10Z</time></trkpt>
<trkpt lat="48.913734436035" lon="2.6629748344421"><ele>103</ele><time>2026-4-30T17:55:13Z</time></trkpt>
<trkpt lat="48.913719177246" lon="2.6630744934082"><ele>104</ele><time>2026-4-30T17:55:16Z</time></trkpt>
<trkpt lat="48.913719177246" lon="2.6630744934082"><ele>104</ele><time>2026-4-30T17:55:19Z</time></trkpt>
<trkpt lat="48.913719177246" lon="2.6630744934082"><ele>104</ele><time>2026-4-30T17:55:22Z</time></trkpt>
<trkpt lat="48.913722991943" lon="2.6631813049316"><ele>105</ele><time>2026-4-30T17:55:25Z</time></trkpt>
<trkpt lat="48.913722991943" lon="2.6631813049316"><ele>105</ele><time>2026-4-30T17:55:28Z</time></trkpt>
<trkpt lat="48.913726806641" lon="2.6633014678955"><ele>107</ele><time>2026-4-30T17:55:31Z</time></trkpt>
<trkpt lat="48.913749694824" lon="2.6633892059326"><ele>108</ele><time>2026-4-30T17:55:34Z</time></trkpt>
<trkpt lat="48.913761138916" lon="2.6635043621063"><ele>109</ele><time>2026-4-30T17:55:37Z</time></trkpt>
<trkpt lat="48.913761138916" lon="2.6635043621063"><ele>109</ele><time>2026-4-30T17:55:40Z</time></trkpt>
<trkpt lat="48.913761138916" lon="2.6635043621063"><ele>109</ele><time>2026-4-30T17:55:43Z</time></trkpt>
<trkpt lat="48.9137840271" lon="2.6636064052582"><ele>110</ele><time>2026-4-30T17:55:46Z</time></trkpt>
<trkpt lat="48.913791656494" lon="2.6636946201324"><ele>111</ele><time>2026-4-30T17:55:49Z</time></trkpt>
<trkpt lat="48.913791656494" lon="2.6636946201324"><ele>111</ele><time>2026-4-30T17:55:52Z</time></trkpt>
<trkpt lat="48.913814544678" lon="2.6638133525848"><ele>113</ele><time>2026-4-30T17:55:55Z</time></trkpt>
<trkpt lat="48.913814544678" lon="2.6638133525848"><ele>113</ele><time>2026-4-30T17:55:58Z</time></trkpt>
<trkpt lat="48.913841247559" lon="2.6639313697815"><ele>114</ele><time>2026-4-30T17:56:1Z</time></trkpt>
<trkpt lat="48.913841247559" lon="2.6639313697815"><ele>114</ele><time>2026-4-30T17:56:4Z</time></trkpt>
<trkpt lat="48.913829803467" lon="2.6641099452972"><ele>117</ele><time>2026-4-30T17:56:7Z</time></trkpt>
<trkpt lat="48.913829803467" lon="2.6641099452972"><ele>117</ele><time>2026-4-30T17:56:10Z</time></trkpt>
<trkpt lat="48.913841247559" lon="2.6642048358917"><ele>118</ele><time>2026-4-30T17:56:13Z</time></trkpt>
<trkpt lat="48.913871765137" lon="2.6642801761627"><ele>119</ele><time>2026-4-30T17:56:16Z</time></trkpt>
<trkpt lat="48.91389465332" lon="2.6643724441528"><ele>120</ele><time>2026-4-30T17:56:19Z</time></trkpt>
<trkpt lat="48.91389465332" lon="2.6643724441528"><ele>120</ele><time>2026-4-30T17:56:22Z</time></trkpt>
<trkpt lat="48.913948059082" lon="2.6645407676697"><ele>122</ele><time>2026-4-30T17:56:25Z</time></trkpt>
<trkpt lat="48.913982391357" lon="2.6646120548248"><ele>123</ele><time>2026-4-30T17:56:28Z</time></trkpt>
<trkpt lat="48.914031982422" lon="2.664719581604"><ele>125</ele><time>2026-4-30T17:56:31Z</time></trkpt>
<trkpt lat="48.914031982422" lon="2.664719581604"><ele>125</ele><time>2026-4-30T17:56:34Z</time></trkpt>
<trkpt lat="48.914051055908" lon="2.6648433208466"><ele>126</ele><time>2026-4-30T17:56:37Z</time></trkpt>
<trkpt lat="48.9140625" lon="2.6649413108826"><ele>127</ele><time>2026-4-30T17:56:40Z</time></trkpt>
<trkpt lat="48.914070129395" lon="2.6650838851929"><ele>129</ele><time>2026-4-30T17:56:43Z</time></trkpt>
<trkpt lat="48.914070129395" lon="2.6650838851929"><ele>129</ele><time>2026-4-30T17:56:46Z</time></trkpt>
<trkpt lat="48.914070129395" lon="2.6650838851929"><ele>129</ele><time>2026-4-30T17:56:49Z</time></trkpt>
<trkpt lat="48.914070129395" lon="2.6650838851929"><ele>129</ele><time>2026-4-30T17:56:52Z</time></trkpt>
<trkpt lat="48.914070129395" lon="2.6650838851929"><ele>129</ele><time>2026-4-30T17:56:55Z</time></trkpt>
<trkpt lat="48.914070129395" lon="2.6650838851929"><ele>129</ele><time>2026-4-30T17:56:58Z</time></trkpt>
<trkpt lat="48.914077758789" lon="2.6651785373688"><ele>129</ele><time>2026-4-30T17:57:1Z</time></trkpt>
<trkpt lat="48.914077758789" lon="2.6652526855469"><ele>129</ele><time>2026-4-30T17:57:4Z</time></trkpt>
<trkpt lat="48.914077758789" lon="2.6653130054474"><ele>130</ele><time>2026-4-30T17:57:7Z</time></trkpt>
<trkpt lat="48.914077758789" lon="2.6653130054474"><ele>130</ele><time>2026-4-30T17:57:10Z</time></trkpt>
<trkpt lat="48.914077758789" lon="2.6653130054474"><ele>130</ele><time>2026-4-30T17:57:13Z</time></trkpt>
<trkpt lat="48.914108276367" lon="2.6653680801392"><ele>130</ele><time>2026-4-30T17:57:16Z</time></trkpt>
<trkpt lat="48.91414642334" lon="2.6653852462769"><ele>130</ele><time>2026-4-30T17:57:19Z</time></trkpt>
<trkpt lat="48.914192199707" lon="2.6653728485107"><ele>130</ele><time>2026-4-30T17:57:22Z</time></trkpt>
<trkpt lat="48.914245605469" lon="2.6653432846069"><ele>130</ele><time>2026-4-30T17:57:25Z</time></trkpt>
<trkpt lat="48.91429901123" lon="2.6653020381927"><ele>130</ele><time>2026-4-30T17:57:28Z</time></trkpt>
<trkpt lat="48.914409637451" lon="2.6651904582977"><ele>130</ele><time>2026-4-30T17:57:31Z</time></trkpt>
<trkpt lat="48.914463043213" lon="2.6651179790497"><ele>130</ele><time>2026-4-30T17:57:34Z</time></trkpt>
<trkpt lat="48.914516448975" lon="2.6650519371033"><ele>130</ele><time>2026-4-30T17:57:37Z</time></trkpt>
<trkpt lat="48.914581298828" lon="2.6649854183197"><ele>129</ele><time>2026-4-30T17:57:40Z</time></trkpt>
<trkpt lat="48.914649963379" lon="2.6649088859558"><ele>129</ele><time>2026-4-30T17:57:43Z</time></trkpt>
<trkpt lat="48.914722442627" lon="2.6648364067078"><ele>128</ele><time>2026-4-30T17:57:46Z</time></trkpt>
<trkpt lat="48.914794921875" lon="2.664764881134"><ele>128</ele><time>2026-4-30T17:57:49Z</time></trkpt>
<trkpt lat="48.914867401123" lon="2.6646809577942"><ele>127</ele><time>2026-4-30T17:57:52Z</time></trkpt>
<trkpt lat="48.914943695068" lon="2.6646015644073"><ele>127</ele><time>2026-4-30T17:57:55Z</time></trkpt>
<trkpt lat="48.915016174316" lon="2.6645381450653"><ele>127</ele><time>2026-4-30T17:57:58Z</time></trkpt>
<trkpt lat="48.915084838867" lon="2.6644780635834"><ele>127</ele><time>2026-4-30T17:58:1Z</time></trkpt>
<trkpt lat="48.915161132812" lon="2.6644325256348"><ele>127</ele><time>2026-4-30T17:58:4Z</time></trkpt>
<trkpt lat="48.915241241455" lon="2.6643888950348"><ele>127</ele><time>2026-4-30T17:58:7Z</time></trkpt>
<trkpt lat="48.915325164795" lon="2.6643278598785"><ele>127</ele><time>2026-4-30T17:58:10Z</time></trkpt>
<trkpt lat="48.91540145874" lon="2.6642668247223"><ele>127</ele><time>2026-4-30T17:58:13Z</time></trkpt>
<trkpt lat="48.915470123291" lon="2.6642074584961"><ele>128</ele><time>2026-4-30T17:58:16Z</time></trkpt>
<trkpt lat="48.915542602539" lon="2.66415143013"><ele>128</ele><time>2026-4-30T17:58:19Z</time></trkpt>
<trkpt lat="48.915622711182" lon="2.6640837192535"><ele>128</ele><time>2026-4-30T17:58:22Z</time></trkpt>
<trkpt lat="48.915706634521" lon="2.6640181541443"><ele>128</ele><time>2026-4-30T17:58:25Z</time></trkpt>
<trkpt lat="48.915775299072" lon="2.6639702320099"><ele>129</ele><time>2026-4-30T17:58:28Z</time></trkpt>
<trkpt lat="48.915851593018" lon="2.6639137268066"><ele>129</ele><time>2026-4-30T17:58:31Z</time></trkpt>
<trkpt lat="48.915924072266" lon="2.6638634204865"><ele>129</ele><time>2026-4-30T17:58:34Z</time></trkpt>
<trkpt lat="48.916000366211" lon="2.6638209819794"><ele>130</ele><time>2026-4-30T17:58:37Z</time></trkpt>
<trkpt lat="48.916069030762" lon="2.6637732982635"><ele>130</ele><time>2026-4-30T17:58:40Z</time></trkpt>
<trkpt lat="48.916130065918" lon="2.6637325286865"><ele>130</ele><time>2026-4-30T17:58:43Z</time></trkpt>
<trkpt lat="48.916130065918" lon="2.6637325286865"><ele>130</ele><time>2026-4-30T17:58:46Z</time></trkpt>
<trkpt lat="48.916217803955" lon="2.663654088974"><ele>131</ele><time>2026-4-30T17:58:49Z</time></trkpt>
<trkpt lat="48.91626739502" lon="2.6635973453522"><ele>131</ele><time>2026-4-30T17:58:52Z</time></trkpt>
<trkpt lat="48.916316986084" lon="2.6635336875916"><ele>131</ele><time>2026-4-30T17:58:55Z</time></trkpt>
<trkpt lat="48.916362762451" lon="2.6634814739227"><ele>131</ele><time>2026-4-30T17:58:58Z</time></trkpt>
<trkpt lat="48.916362762451" lon="2.6634814739227"><ele>131</ele><time>2026-4-30T17:59:1Z</time></trkpt>
<trkpt lat="48.916454315186" lon="2.6633603572845"><ele>131</ele><time>2026-4-30T17:59:4Z</time></trkpt>
<trkpt lat="48.916492462158" lon="2.6632900238037"><ele>131</ele><time>2026-4-30T17:59:7Z</time></trkpt>
<trkpt lat="48.916553497314" lon="2.663195848465"><ele>131</ele><time>2026-4-30T17:59:10Z</time></trkpt>
<trkpt lat="48.916618347168" lon="2.6630980968475"><ele>131</ele><time>2026-4-30T17:59:13Z</time></trkpt>
<trkpt lat="48.916687011719" lon="2.6629953384399"><ele>131</ele><time>2026-4-30T17:59:16Z</time></trkpt>
<trkpt lat="48.916748046875" lon="2.6629130840302"><ele>131</ele><time>2026-4-30T17:59:19Z</time></trkpt>
<trkpt lat="48.916809082031" lon="2.6628122329712"><ele>131</ele><time>2026-4-30T17:59:22Z</time></trkpt>
<trkpt lat="48.916885375977" lon="2.6627106666565"><ele>131</ele><time>2026-4-30T17:59:25Z</time></trkpt>
<trkpt lat="48.91695022583" lon="2.6625995635986"><ele>131</ele><time>2026-4-30T17:59:28Z</time></trkpt>
<trkpt lat="48.917011260986" lon="2.6624858379364"><ele>130</ele><time>2026-4-30T17:59:31Z</time></trkpt>
<trkpt lat="48.917072296143" lon="2.6623463630676"><ele>130</ele><time>2026-4-30T17:59:34Z</time></trkpt>
<trkpt lat="48.917133331299" lon="2.6622064113617"><ele>130</ele><time>2026-4-30T17:59:37Z</time></trkpt>
<trkpt lat="48.917198181152" lon="2.6620707511902"><ele>129</ele><time>2026-4-30T17:59:40Z</time></trkpt>
<trkpt lat="48.9172706604" lon="2.6619334220886"><ele>129</ele><time>2026-4-30T17:59:43Z</time></trkpt>
<trkpt lat="48.917358398438" lon="2.6617984771729"><ele>129</ele><time>2026-4-30T17:59:46Z</time></trkpt>
<trkpt lat="48.917446136475" lon="2.6616678237915"><ele>129</ele><time>2026-4-30T17:59:49Z</time></trkpt>
<trkpt lat="48.917541503906" lon="2.6615390777588"><ele>128</ele><time>2026-4-30T17:59:52Z</time></trkpt>
<trkpt lat="48.917640686035" lon="2.6614043712616"><ele>128</ele><time>2026-4-30T17:59:55Z</time></trkpt>
<trkpt lat="48.917743682861" lon="2.6612639427185"><ele>127</ele><time>2026-4-30T17:59:58Z</time></trkpt>
<trkpt lat="48.917850494385" lon="2.6611304283142"><ele>127</ele><time>2026-4-30T18:0:1Z</time></trkpt>
<trkpt lat="48.917957305908" lon="2.6609880924225"><ele>126</ele><time>2026-4-30T18:0:4Z</time></trkpt>
<trkpt lat="48.918071746826" lon="2.6608166694641"><ele>125</ele><time>2026-4-30T18:0:7Z</time></trkpt>
<trkpt lat="48.918163299561" lon="2.6606338024139"><ele>124</ele><time>2026-4-30T18:0:10Z</time></trkpt>
<trkpt lat="48.918243408203" lon="2.6604566574097"><ele>123</ele><time>2026-4-30T18:0:13Z</time></trkpt>
<trkpt lat="48.918312072754" lon="2.6602685451508"><ele>121</ele><time>2026-4-30T18:0:16Z</time></trkpt>
<trkpt lat="48.918365478516" lon="2.6600866317749"><ele>120</ele><time>2026-4-30T18:0:19Z</time></trkpt>
<trkpt lat="48.918395996094" lon="2.659916639328"><ele>119</ele><time>2026-4-30T18:0:22Z</time></trkpt>
<trkpt lat="48.918453216553" lon="2.6598744392395"><ele>118</ele><time>2026-4-30T18:0:25Z</time></trkpt>
<trkpt lat="48.918453216553" lon="2.6598744392395"><ele>118</ele><time>2026-4-30T18:0:28Z</time></trkpt>
<trkpt lat="48.918518066406" lon="2.6598818302155"><ele>118</ele><time>2026-4-30T18:0:31Z</time></trkpt>
<trkpt lat="48.918518066406" lon="2.6598818302155"><ele>118</ele><time>2026-4-30T18:0:34Z</time></trkpt>
<trkpt lat="48.918579101562" lon="2.6599180698395"><ele>118</ele><time>2026-4-30T18:0:37Z</time></trkpt>
<trkpt lat="48.918674468994" lon="2.6599843502045"><ele>119</ele><time>2026-4-30T18:0:40Z</time></trkpt>
<trkpt lat="48.918731689453" lon="2.6600141525269"><ele>119</ele><time>2026-4-30T18:0:43Z</time></trkpt>
<trkpt lat="48.918796539307" lon="2.6600449085236"><ele>119</ele><time>2026-4-30T18:0:46Z</time></trkpt>
<trkpt lat="48.918857574463" lon="2.6600799560547"><ele>119</ele><time>2026-4-30T18:0:49Z</time></trkpt>
<trkpt lat="48.918926239014" lon="2.6601152420044"><ele>119</ele><time>2026-4-30T18:0:52Z</time></trkpt>
<trkpt lat="48.918994903564" lon="2.6601512432098"><ele>119</ele><time>2026-4-30T18:0:55Z</time></trkpt>
<trkpt lat="48.91907119751" lon="2.6601793766022"><ele>119</ele><time>2026-4-30T18:0:58Z</time></trkpt>
<trkpt lat="48.919158935547" lon="2.6602129936218"><ele>119</ele><time>2026-4-30T18:1:1Z</time></trkpt>
<trkpt lat="48.919219970703" lon="2.6602482795715"><ele>119</ele><time>2026-4-30T18:1:4Z</time></trkpt>
<trkpt lat="48.919269561768" lon="2.6602869033813"><ele>119</ele><time>2026-4-30T18:1:7Z</time></trkpt>
<trkpt lat="48.919338226318" lon="2.6603255271912"><ele>119</ele><time>2026-4-30T18:1:10Z</time></trkpt>
<trkpt lat="48.919418334961" lon="2.6603615283966"><ele>119</ele><time>2026-4-30T18:1:13Z</time></trkpt>
<trkpt lat="48.919498443604" lon="2.6603875160217"><ele>119</ele><time>2026-4-30T18:1:16Z</time></trkpt>
<trkpt lat="48.919593811035" lon="2.6604020595551"><ele>118</ele><time>2026-4-30T18:1:19Z</time></trkpt>
<trkpt lat="48.919681549072" lon="2.6604166030884"><ele>118</ele><time>2026-4-30T18:1:22Z</time></trkpt>
<trkpt lat="48.919784545898" lon="2.6604340076447"><ele>118</ele><time>2026-4-30T18:1:25Z</time></trkpt>
<trkpt lat="48.919845581055" lon="2.6604363918304"><ele>118</ele><time>2026-4-30T18:1:28Z</time></trkpt>
<trkpt lat="48.919918060303" lon="2.6604340076447"><ele>118</ele><time>2026-4-30T18:1:31Z</time></trkpt>
<trkpt lat="48.920001983643" lon="2.6604278087616"><ele>118</ele><time>2026-4-30T18:1:34Z</time></trkpt>
<trkpt lat="48.92008972168" lon="2.6604084968567"><ele>118</ele><time>2026-4-30T18:1:37Z</time></trkpt>
<trkpt lat="48.920166015625" lon="2.660386800766"><ele>118</ele><time>2026-4-30T18:1:40Z</time></trkpt>
<trkpt lat="48.920246124268" lon="2.6603646278381"><ele>118</ele><time>2026-4-30T18:1:43Z</time></trkpt>
<trkpt lat="48.920318603516" lon="2.6603410243988"><ele>118</ele><time>2026-4-30T18:1:46Z</time></trkpt>
<trkpt lat="48.920402526855" lon="2.6603105068207"><ele>118</ele><time>2026-4-30T18:1:49Z</time></trkpt>
<trkpt lat="48.920459747314" lon="2.6602864265442"><ele>118</ele><time>2026-4-30T18:1:52Z</time></trkpt>
<trkpt lat="48.920539855957" lon="2.6602606773376"><ele>118</ele><time>2026-4-30T18:1:55Z</time></trkpt>
<trkpt lat="48.920623779297" lon="2.6602339744568"><ele>118</ele><time>2026-4-30T18:1:58Z</time></trkpt>
<trkpt lat="48.920684814453" lon="2.660224199295"><ele>118</ele><time>2026-4-30T18:2:1Z</time></trkpt>
<trkpt lat="48.920757293701" lon="2.6602256298065"><ele>118</ele><time>2026-4-30T18:2:4Z</time></trkpt>
<trkpt lat="48.920845031738" lon="2.6602311134338"><ele>118</ele><time>2026-4-30T18:2:7Z</time></trkpt>
<trkpt lat="48.920936584473" lon="2.6602411270142"><ele>118</ele><time>2026-4-30T18:2:10Z</time></trkpt>
<trkpt lat="48.921028137207" lon="2.6602613925934"><ele>118</ele><time>2026-4-30T18:2:13Z</time></trkpt>
<trkpt lat="48.921112060547" lon="2.660279750824"><ele>118</ele><time>2026-4-30T18:2:16Z</time></trkpt>
<trkpt lat="48.921199798584" lon="2.6603007316589"><ele>118</ele><time>2026-4-30T18:2:19Z</time></trkpt>
<trkpt lat="48.921291351318" lon="2.6603271961212"><ele>118</ele><time>2026-4-30T18:2:22Z</time></trkpt>
<trkpt lat="48.92138671875" lon="2.6603586673737"><ele>118</ele><time>2026-4-30T18:2:25Z</time></trkpt>
<trkpt lat="48.921485900879" lon="2.6603918075562"><ele>118</ele><time>2026-4-30T18:2:28Z</time></trkpt>
<trkpt lat="48.921573638916" lon="2.6604199409485"><ele>118</ele><time>2026-4-30T18:2:31Z</time></trkpt>
<trkpt lat="48.92166519165" lon="2.6604511737823"><ele>118</ele><time>2026-4-30T18:2:34Z</time></trkpt>
<trkpt lat="48.921756744385" lon="2.6604835987091"><ele>117</ele><time>2026-4-30T18:2:37Z</time></trkpt>
<trkpt lat="48.921844482422" lon="2.6605219841003"><ele>117</ele><time>2026-4-30T18:2:40Z</time></trkpt>
<trkpt lat="48.921939849854" lon="2.6605672836304"><ele>117</ele><time>2026-4-30T18:2:43Z</time></trkpt>
<trkpt lat="48.922039031982" lon="2.6606152057648"><ele>117</ele><time>2026-4-30T18:2:46Z</time></trkpt>
<trkpt lat="48.922138214111" lon="2.6606659889221"><ele>116</ele><time>2026-4-30T18:2:49Z</time></trkpt>
<trkpt lat="48.922252655029" lon="2.6607208251953"><ele>116</ele><time>2026-4-30T18:2:52Z</time></trkpt>
<trkpt lat="48.92236328125" lon="2.6607708930969"><ele>116</ele><time>2026-4-30T18:2:55Z</time></trkpt>
<trkpt lat="48.922466278076" lon="2.6608150005341"><ele>115</ele><time>2026-4-30T18:2:58Z</time></trkpt>
<trkpt lat="48.9225730896" lon="2.6608560085297"><ele>115</ele><time>2026-4-30T18:3:1Z</time></trkpt>
<trkpt lat="48.922668457031" lon="2.6608860492706"><ele>115</ele><time>2026-4-30T18:3:4Z</time></trkpt>
<trkpt lat="48.922763824463" lon="2.660905122757"><ele>114</ele><time>2026-4-30T18:3:7Z</time></trkpt>
<trkpt lat="48.922855377197" lon="2.6609182357788"><ele>114</ele><time>2026-4-30T18:3:10Z</time></trkpt>
<trkpt lat="48.922927856445" lon="2.6609160900116"><ele>114</ele><time>2026-4-30T18:3:13Z</time></trkpt>
<trkpt lat="48.922927856445" lon="2.6609160900116"><ele>114</ele><time>2026-4-30T18:3:16Z</time></trkpt>
<trkpt lat="48.92301940918" lon="2.6609151363373"><ele>114</ele><time>2026-4-30T18:3:19Z</time></trkpt>
<trkpt lat="48.92301940918" lon="2.6609151363373"><ele>114</ele><time>2026-4-30T18:3:22Z</time></trkpt>
<trkpt lat="48.92301940918" lon="2.6609151363373"><ele>114</ele><time>2026-4-30T18:3:25Z</time></trkpt>
<trkpt lat="48.923023223877" lon="2.6610748767853"><ele>114</ele><time>2026-4-30T18:3:28Z</time></trkpt>
<trkpt lat="48.922992706299" lon="2.6612482070923"><ele>115</ele><time>2026-4-30T18:3:31Z</time></trkpt>
<trkpt lat="48.922973632812" lon="2.6613488197327"><ele>115</ele><time>2026-4-30T18:3:34Z</time></trkpt>
<trkpt lat="48.922943115234" lon="2.6614923477173"><ele>116</ele><time>2026-4-30T18:3:37Z</time></trkpt>
<trkpt lat="48.922916412354" lon="2.6616201400757"><ele>116</ele><time>2026-4-30T18:3:40Z</time></trkpt>
<trkpt lat="48.92289352417" lon="2.6617245674133"><ele>116</ele><time>2026-4-30T18:3:43Z</time></trkpt>
<trkpt lat="48.922866821289" lon="2.6618363857269"><ele>116</ele><time>2026-4-30T18:3:46Z</time></trkpt>
<trkpt lat="48.922836303711" lon="2.661952495575"><ele>116</ele><time>2026-4-30T18:3:49Z</time></trkpt>
<trkpt lat="48.922813415527" lon="2.6620671749115"><ele>116</ele><time>2026-4-30T18:3:52Z</time></trkpt>
<trkpt lat="48.922794342041" lon="2.6621625423431"><ele>116</ele><time>2026-4-30T18:3:55Z</time></trkpt>
<trkpt lat="48.922775268555" lon="2.6622681617737"><ele>116</ele><time>2026-4-30T18:3:58Z</time></trkpt>
<trkpt lat="48.922748565674" lon="2.6623818874359"><ele>116</ele><time>2026-4-30T18:4:1Z</time></trkpt>
<trkpt lat="48.922714233398" lon="2.6625051498413"><ele>116</ele><time>2026-4-30T18:4:4Z</time></trkpt>
<trkpt lat="48.922679901123" lon="2.6626300811768"><ele>116</ele><time>2026-4-30T18:4:7Z</time></trkpt>
<trkpt lat="48.922634124756" lon="2.6627686023712"><ele>115</ele><time>2026-4-30T18:4:10Z</time></trkpt>
<trkpt lat="48.922580718994" lon="2.6629283428192"><ele>115</ele><time>2026-4-30T18:4:13Z</time></trkpt>
<trkpt lat="48.922519683838" lon="2.6631054878235"><ele>115</ele><time>2026-4-30T18:4:16Z</time></trkpt>
<trkpt lat="48.922458648682" lon="2.6632838249207"><ele>115</ele><time>2026-4-30T18:4:19Z</time></trkpt>
<trkpt lat="48.922401428223" lon="2.6634638309479"><ele>115</ele><time>2026-4-30T18:4:22Z</time></trkpt>
<trkpt lat="48.922348022461" lon="2.663654088974"><ele>115</ele><time>2026-4-30T18:4:25Z</time></trkpt>
<trkpt lat="48.922306060791" lon="2.6638388633728"><ele>114</ele><time>2026-4-30T18:4:28Z</time></trkpt>
<trkpt lat="48.922271728516" lon="2.6640379428864"><ele>114</ele><time>2026-4-30T18:4:31Z</time></trkpt>
<trkpt lat="48.922248840332" lon="2.6641979217529"><ele>114</ele><time>2026-4-30T18:4:34Z</time></trkpt>
<trkpt lat="48.922222137451" lon="2.6643309593201"><ele>114</ele><time>2026-4-30T18:4:37Z</time></trkpt>
<trkpt lat="48.922199249268" lon="2.6644511222839"><ele>114</ele><time>2026-4-30T18:4:40Z</time></trkpt>
<trkpt lat="48.922176361084" lon="2.66455078125"><ele>114</ele><time>2026-4-30T18:4:43Z</time></trkpt>
<trkpt lat="48.9221534729" lon="2.664660692215"><ele>114</ele><time>2026-4-30T18:4:46Z</time></trkpt>
<trkpt lat="48.922122955322" lon="2.6647710800171"><ele>114</ele><time>2026-4-30T18:4:49Z</time></trkpt>
<trkpt lat="48.922096252441" lon="2.664886713028"><ele>114</ele><time>2026-4-30T18:4:52Z</time></trkpt>
<trkpt lat="48.922065734863" lon="2.6650054454803"><ele>114</ele><time>2026-4-30T18:4:55Z</time></trkpt>
<trkpt lat="48.92204284668" lon="2.6651222705841"><ele>115</ele><time>2026-4-30T18:4:58Z</time></trkpt>
<trkpt lat="48.922016143799" lon="2.6652235984802"><ele>115</ele><time>2026-4-30T18:5:1Z</time></trkpt>
<trkpt lat="48.921993255615" lon="2.6653089523315"><ele>115</ele><time>2026-4-30T18:5:4Z</time></trkpt>
<trkpt lat="48.921966552734" lon="2.6653954982758"><ele>116</ele><time>2026-4-30T18:5:7Z</time></trkpt>
<trkpt lat="48.921939849854" lon="2.6654963493347"><ele>116</ele><time>2026-4-30T18:5:10Z</time></trkpt>
<trkpt lat="48.921913146973" lon="2.6656002998352"><ele>117</ele><time>2026-4-30T18:5:13Z</time></trkpt>
<trkpt lat="48.921894073486" lon="2.6656866073608"><ele>117</ele><time>2026-4-30T18:5:16Z</time></trkpt>
<trkpt lat="48.921894073486" lon="2.6656866073608"><ele>117</ele><time>2026-4-30T18:5:19Z</time></trkpt>
<trkpt lat="48.921897888184" lon="2.665824174881"><ele>118</ele><time>2026-4-30T18:5:22Z</time></trkpt>
<trkpt lat="48.921897888184" lon="2.665824174881"><ele>118</ele><time>2026-4-30T18:5:25Z</time></trkpt>
<trkpt lat="48.921890258789" lon="2.6659362316132"><ele>118</ele><time>2026-4-30T18:5:28Z</time></trkpt>
<trkpt lat="48.921875" lon="2.6660573482513"><ele>118</ele><time>2026-4-30T18:5:31Z</time></trkpt>
<trkpt lat="48.921848297119" lon="2.6661577224731"><ele>119</ele><time>2026-4-30T18:5:34Z</time></trkpt>
<trkpt lat="48.921825408936" lon="2.6662747859955"><ele>119</ele><time>2026-4-30T18:5:37Z</time></trkpt>
<trkpt lat="48.921806335449" lon="2.6664023399353"><ele>119</ele><time>2026-4-30T18:5:40Z</time></trkpt>
<trkpt lat="48.921783447266" lon="2.6665534973145"><ele>120</ele><time>2026-4-30T18:5:43Z</time></trkpt>
<trkpt lat="48.921756744385" lon="2.6667001247406"><ele>120</ele><time>2026-4-30T18:5:46Z</time></trkpt>
<trkpt lat="48.921737670898" lon="2.6668357849121"><ele>121</ele><time>2026-4-30T18:5:49Z</time></trkpt>
<trkpt lat="48.921718597412" lon="2.6669733524323"><ele>121</ele><time>2026-4-30T18:5:52Z</time></trkpt>
<trkpt lat="48.921695709229" lon="2.6671240329742"><ele>122</ele><time>2026-4-30T18:5:55Z</time></trkpt>
<trkpt lat="48.921672821045" lon="2.6672568321228"><ele>122</ele><time>2026-4-30T18:5:58Z</time></trkpt>
<trkpt lat="48.92166519165" lon="2.6673576831818"><ele>123</ele><time>2026-4-30T18:6:1Z</time></trkpt>
<trkpt lat="48.921653747559" lon="2.6674861907959"><ele>123</ele><time>2026-4-30T18:6:4Z</time></trkpt>
<trkpt lat="48.921653747559" lon="2.6676249504089"><ele>123</ele><time>2026-4-30T18:6:7Z</time></trkpt>
<trkpt lat="48.921688079834" lon="2.6677811145782"><ele>123</ele><time>2026-4-30T18:6:10Z</time></trkpt>
<trkpt lat="48.921722412109" lon="2.6679186820984"><ele>123</ele><time>2026-4-30T18:6:13Z</time></trkpt>
<trkpt lat="48.921779632568" lon="2.6680963039398"><ele>122</ele><time>2026-4-30T18:6:16Z</time></trkpt>
<trkpt lat="48.921848297119" lon="2.6682517528534"><ele>122</ele><time>2026-4-30T18:6:19Z</time></trkpt>
<trkpt lat="48.921920776367" lon="2.6683957576752"><ele>122</ele><time>2026-4-30T18:6:22Z</time></trkpt>
<trkpt lat="48.921985626221" lon="2.6685352325439"><ele>123</ele><time>2026-4-30T18:6:25Z</time></trkpt>
<trkpt lat="48.922050476074" lon="2.6686670780182"><ele>123</ele><time>2026-4-30T18:6:28Z</time></trkpt>
<trkpt lat="48.922115325928" lon="2.6687631607056"><ele>123</ele><time>2026-4-30T18:6:31Z</time></trkpt>
<trkpt lat="48.92219543457" lon="2.6688389778137"><ele>123</ele><time>2026-4-30T18:6:34Z</time></trkpt>
<trkpt lat="48.922286987305" lon="2.6688957214355"><ele>123</ele><time>2026-4-30T18:6:37Z</time></trkpt>
<trkpt lat="48.922374725342" lon="2.6689457893372"><ele>123</ele><time>2026-4-30T18:6:40Z</time></trkpt>
<trkpt lat="48.922466278076" lon="2.6689853668213"><ele>123</ele><time>2026-4-30T18:6:43Z</time></trkpt>
<trkpt lat="48.922466278076" lon="2.6689853668213"><ele>123</ele><time>2026-4-30T18:6:46Z</time></trkpt>
<trkpt lat="48.922630310059" lon="2.6690664291382"><ele>122</ele><time>2026-4-30T18:6:49Z</time></trkpt>
<trkpt lat="48.922698974609" lon="2.6691606044769"><ele>122</ele><time>2026-4-30T18:6:52Z</time></trkpt>
<trkpt lat="48.922752380371" lon="2.6692612171173"><ele>122</ele><time>2026-4-30T18:6:55Z</time></trkpt>
<trkpt lat="48.922752380371" lon="2.6692612171173"><ele>122</ele><time>2026-4-30T18:6:58Z</time></trkpt>
<trkpt lat="48.922760009766" lon="2.6694061756134"><ele>123</ele><time>2026-4-30T18:7:1Z</time></trkpt>
<trkpt lat="48.922760009766" lon="2.6694061756134"><ele>123</ele><time>2026-4-30T18:7:4Z</time></trkpt>
<trkpt lat="48.922752380371" lon="2.6695206165314"><ele>123</ele><time>2026-4-30T18:7:7Z</time></trkpt>
<trkpt lat="48.922752380371" lon="2.6695206165314"><ele>123</ele><time>2026-4-30T18:7:10Z</time></trkpt>
<trkpt lat="48.922729492188" lon="2.6696493625641"><ele>124</ele><time>2026-4-30T18:7:13Z</time></trkpt>
<trkpt lat="48.922729492188" lon="2.6696493625641"><ele>124</ele><time>2026-4-30T18:7:16Z</time></trkpt>
<trkpt lat="48.922718048096" lon="2.6697843074799"><ele>124</ele><time>2026-4-30T18:7:19Z</time></trkpt>
<trkpt lat="48.922714233398" lon="2.6698861122131"><ele>125</ele><time>2026-4-30T18:7:22Z</time></trkpt>
<trkpt lat="48.922710418701" lon="2.6699829101562"><ele>125</ele><time>2026-4-30T18:7:25Z</time></trkpt>
<trkpt lat="48.922691345215" lon="2.6701421737671"><ele>126</ele><time>2026-4-30T18:7:28Z</time></trkpt>
<trkpt lat="48.922687530518" lon="2.6703262329102"><ele>127</ele><time>2026-4-30T18:7:31Z</time></trkpt>
<trkpt lat="48.922687530518" lon="2.6703262329102"><ele>127</ele><time>2026-4-30T18:7:34Z</time></trkpt>
<trkpt lat="48.922679901123" lon="2.6704704761505"><ele>127</ele><time>2026-4-30T18:7:37Z</time></trkpt>
<trkpt lat="48.922660827637" lon="2.670560836792"><ele>128</ele><time>2026-4-30T18:7:40Z</time></trkpt>
<trkpt lat="48.922634124756" lon="2.6706471443176"><ele>128</ele><time>2026-4-30T18:7:43Z</time></trkpt>
<trkpt lat="48.922607421875" lon="2.6708130836487"><ele>129</ele><time>2026-4-30T18:7:46Z</time></trkpt>
<trkpt lat="48.922584533691" lon="2.6709113121033"><ele>129</ele><time>2026-4-30T18:7:49Z</time></trkpt>
<trkpt lat="48.922576904297" lon="2.6710042953491"><ele>129</ele><time>2026-4-30T18:7:52Z</time></trkpt>
<trkpt lat="48.9225730896" lon="2.6710965633392"><ele>129</ele><time>2026-4-30T18:7:55Z</time></trkpt>
<trkpt lat="48.922569274902" lon="2.6712000370026"><ele>130</ele><time>2026-4-30T18:7:58Z</time></trkpt>
<trkpt lat="48.922565460205" lon="2.6713409423828"><ele>130</ele><time>2026-4-30T18:8:1Z</time></trkpt>
<trkpt lat="48.922550201416" lon="2.6715023517609"><ele>130</ele><time>2026-4-30T18:8:4Z</time></trkpt>
<trkpt lat="48.922538757324" lon="2.6716465950012"><ele>131</ele><time>2026-4-30T18:8:7Z</time></trkpt>
<trkpt lat="48.92253112793" lon="2.6717870235443"><ele>130</ele><time>2026-4-30T18:8:10Z</time></trkpt>
<trkpt lat="48.922492980957" lon="2.6719954013824"><ele>130</ele><time>2026-4-30T18:8:13Z</time></trkpt>
<trkpt lat="48.922492980957" lon="2.6719954013824"><ele>130</ele><time>2026-4-30T18:8:16Z</time></trkpt>
<trkpt lat="48.92244720459" lon="2.6721477508545"><ele>129</ele><time>2026-4-30T18:8:19Z</time></trkpt>
<trkpt lat="48.922424316406" lon="2.67222905159"><ele>129</ele><time>2026-4-30T18:8:22Z</time></trkpt>
<trkpt lat="48.922424316406" lon="2.67222905159"><ele>129</ele><time>2026-4-30T18:8:25Z</time></trkpt>
<trkpt lat="48.922386169434" lon="2.672482252121"><ele>128</ele><time>2026-4-30T18:8:28Z</time></trkpt>
<trkpt lat="48.922359466553" lon="2.6726155281067"><ele>128</ele><time>2026-4-30T18:8:31Z</time></trkpt>
<trkpt lat="48.922351837158" lon="2.6727600097656"><ele>128</ele><time>2026-4-30T18:8:34Z</time></trkpt>
<trkpt lat="48.922340393066" lon="2.6729221343994"><ele>128</ele><time>2026-4-30T18:8:37Z</time></trkpt>
<trkpt lat="48.922340393066" lon="2.6730856895447"><ele>129</ele><time>2026-4-30T18:8:40Z</time></trkpt>
<trkpt lat="48.922325134277" lon="2.6732864379883"><ele>129</ele><time>2026-4-30T18:8:43Z</time></trkpt>
<trkpt lat="48.922313690186" lon="2.673401594162"><ele>129</ele><time>2026-4-30T18:8:46Z</time></trkpt>
<trkpt lat="48.922306060791" lon="2.6735513210297"><ele>129</ele><time>2026-4-30T18:8:49Z</time></trkpt>
<trkpt lat="48.922306060791" lon="2.6735513210297"><ele>129</ele><time>2026-4-30T18:8:52Z</time></trkpt>
<trkpt lat="48.922306060791" lon="2.6737728118896"><ele>129</ele><time>2026-4-30T18:8:55Z</time></trkpt>
<trkpt lat="48.922317504883" lon="2.6738963127136"><ele>129</ele><time>2026-4-30T18:8:58Z</time></trkpt>
<trkpt lat="48.922355651855" lon="2.6741414070129"><ele>130</ele><time>2026-4-30T18:9:1Z</time></trkpt>
<trkpt lat="48.92236328125" lon="2.6742959022522"><ele>130</ele><time>2026-4-30T18:9:4Z</time></trkpt>
<trkpt lat="48.92236328125" lon="2.6742959022522"><ele>130</ele><time>2026-4-30T18:9:7Z</time></trkpt>
<trkpt lat="48.922344207764" lon="2.6745405197144"><ele>130</ele><time>2026-4-30T18:9:10Z</time></trkpt>
<trkpt lat="48.922344207764" lon="2.6745405197144"><ele>130</ele><time>2026-4-30T18:9:13Z</time></trkpt>
<trkpt lat="48.922328948975" lon="2.6747312545776"><ele>130</ele><time>2026-4-30T18:9:16Z</time></trkpt>
<trkpt lat="48.922328948975" lon="2.6748743057251"><ele>130</ele><time>2026-4-30T18:9:19Z</time></trkpt>
<trkpt lat="48.922328948975" lon="2.6750552654266"><ele>130</ele><time>2026-4-30T18:9:22Z</time></trkpt>
<trkpt lat="48.922340393066" lon="2.6752178668976"><ele>129</ele><time>2026-4-30T18:9:25Z</time></trkpt>
<trkpt lat="48.922344207764" lon="2.6753768920898"><ele>129</ele><time>2026-4-30T18:9:28Z</time></trkpt>
<trkpt lat="48.922340393066" lon="2.6755414009094"><ele>129</ele><time>2026-4-30T18:9:31Z</time></trkpt>
<trkpt lat="48.922344207764" lon="2.6757144927979"><ele>129</ele><time>2026-4-30T18:9:34Z</time></trkpt>
<trkpt lat="48.922336578369" lon="2.6758549213409"><ele>128</ele><time>2026-4-30T18:9:37Z</time></trkpt>
<trkpt lat="48.922336578369" lon="2.6758549213409"><ele>128</ele><time>2026-4-30T18:9:40Z</time></trkpt>
<trkpt lat="48.922317504883" lon="2.6760137081146"><ele>128</ele><time>2026-4-30T18:9:43Z</time></trkpt>
<trkpt lat="48.922298431396" lon="2.6761744022369"><ele>128</ele><time>2026-4-30T18:9:46Z</time></trkpt>
<trkpt lat="48.922283172607" lon="2.6763339042664"><ele>128</ele><time>2026-4-30T18:9:49Z</time></trkpt>
<trkpt lat="48.922271728516" lon="2.676504611969"><ele>128</ele><time>2026-4-30T18:9:52Z</time></trkpt>
<trkpt lat="48.922256469727" lon="2.6766877174377"><ele>128</ele><time>2026-4-30T18:9:55Z</time></trkpt>
<trkpt lat="48.92223739624" lon="2.6770396232605"><ele>127</ele><time>2026-4-30T18:9:58Z</time></trkpt>
<trkpt lat="48.922229766846" lon="2.6771924495697"><ele>127</ele><time>2026-4-30T18:10:1Z</time></trkpt>
<trkpt lat="48.922222137451" lon="2.6773452758789"><ele>127</ele><time>2026-4-30T18:10:4Z</time></trkpt>
<trkpt lat="48.922222137451" lon="2.677494764328"><ele>126</ele><time>2026-4-30T18:10:7Z</time></trkpt>
<trkpt lat="48.922225952148" lon="2.6776270866394"><ele>126</ele><time>2026-4-30T18:10:10Z</time></trkpt>
<trkpt lat="48.922225952148" lon="2.677747964859"><ele>126</ele><time>2026-4-30T18:10:13Z</time></trkpt>
<trkpt lat="48.922203063965" lon="2.6779224872589"><ele>125</ele><time>2026-4-30T18:10:16Z</time></trkpt>
<trkpt lat="48.922180175781" lon="2.678085565567"><ele>125</ele><time>2026-4-30T18:10:19Z</time></trkpt>
<trkpt lat="48.922161102295" lon="2.6783018112183"><ele>124</ele><time>2026-4-30T18:10:22Z</time></trkpt>
<trkpt lat="48.922145843506" lon="2.6785435676575"><ele>124</ele><time>2026-4-30T18:10:25Z</time></trkpt>
<trkpt lat="48.922142028809" lon="2.6787400245667"><ele>124</ele><time>2026-4-30T18:10:28Z</time></trkpt>
<trkpt lat="48.922161102295" lon="2.6789040565491"><ele>123</ele><time>2026-4-30T18:10:31Z</time></trkpt>
<trkpt lat="48.922172546387" lon="2.6791093349457"><ele>123</ele><time>2026-4-30T18:10:34Z</time></trkpt>
<trkpt lat="48.922149658203" lon="2.6793565750122"><ele>123</ele><time>2026-4-30T18:10:37Z</time></trkpt>
<trkpt lat="48.922122955322" lon="2.6795890331268"><ele>123</ele><time>2026-4-30T18:10:40Z</time></trkpt>
<trkpt lat="48.922107696533" lon="2.679794549942"><ele>123</ele><time>2026-4-30T18:10:43Z</time></trkpt>
<trkpt lat="48.922073364258" lon="2.6800155639648"><ele>123</ele><time>2026-4-30T18:10:46Z</time></trkpt>
<trkpt lat="48.922027587891" lon="2.6802086830139"><ele>123</ele><time>2026-4-30T18:10:49Z</time></trkpt>
<trkpt lat="48.921966552734" lon="2.6803698539734"><ele>122</ele><time>2026-4-30T18:10:52Z</time></trkpt>
<trkpt lat="48.92191696167" lon="2.680492401123"><ele>122</ele><time>2026-4-30T18:10:55Z</time></trkpt>
<trkpt lat="48.921867370605" lon="2.6806433200836"><ele>122</ele><time>2026-4-30T18:10:58Z</time></trkpt>
<trkpt lat="48.921817779541" lon="2.6808018684387"><ele>121</ele><time>2026-4-30T18:11:1Z</time></trkpt>
<trkpt lat="48.921752929688" lon="2.6809642314911"><ele>121</ele><time>2026-4-30T18:11:4Z</time></trkpt>
<trkpt lat="48.921699523926" lon="2.6811118125916"><ele>121</ele><time>2026-4-30T18:11:7Z</time></trkpt>
<trkpt lat="48.921657562256" lon="2.6812348365784"><ele>121</ele><time>2026-4-30T18:11:10Z</time></trkpt>
<trkpt lat="48.92162322998" lon="2.6813290119171"><ele>121</ele><time>2026-4-30T18:11:13Z</time></trkpt>
<trkpt lat="48.921573638916" lon="2.6814556121826"><ele>121</ele><time>2026-4-30T18:11:16Z</time></trkpt>
<trkpt lat="48.921508789062" lon="2.6815989017487"><ele>122</ele><time>2026-4-30T18:11:19Z</time></trkpt>
<trkpt lat="48.921440124512" lon="2.6817429065704"><ele>122</ele><time>2026-4-30T18:11:22Z</time></trkpt>
<trkpt lat="48.921382904053" lon="2.6818771362305"><ele>123</ele><time>2026-4-30T18:11:25Z</time></trkpt>
<trkpt lat="48.921440124512" lon="2.682103395462"><ele>123</ele><time>2026-4-30T18:11:28Z</time></trkpt>
<trkpt lat="48.921493530273" lon="2.6822073459625"><ele>123</ele><time>2026-4-30T18:11:31Z</time></trkpt>
<trkpt lat="48.921562194824" lon="2.6823282241821"><ele>123</ele><time>2026-4-30T18:11:34Z</time></trkpt>
<trkpt lat="48.921646118164" lon="2.6824674606323"><ele>122</ele><time>2026-4-30T18:11:37Z</time></trkpt>
<trkpt lat="48.921730041504" lon="2.6825914382935"><ele>122</ele><time>2026-4-30T18:11:40Z</time></trkpt>
<trkpt lat="48.921813964844" lon="2.6826982498169"><ele>122</ele><time>2026-4-30T18:11:43Z</time></trkpt>
<trkpt lat="48.921886444092" lon="2.6828057765961"><ele>121</ele><time>2026-4-30T18:11:46Z</time></trkpt>
<trkpt lat="48.921951293945" lon="2.6829173564911"><ele>121</ele><time>2026-4-30T18:11:49Z</time></trkpt>
<trkpt lat="48.922016143799" lon="2.6830332279205"><ele>121</ele><time>2026-4-30T18:11:52Z</time></trkpt>
<trkpt lat="48.922092437744" lon="2.6831610202789"><ele>121</ele><time>2026-4-30T18:11:55Z</time></trkpt>
<trkpt lat="48.922157287598" lon="2.6832783222198"><ele>121</ele><time>2026-4-30T18:11:58Z</time></trkpt>
<trkpt lat="48.922214508057" lon="2.6834187507629"><ele>120</ele><time>2026-4-30T18:12:1Z</time></trkpt>
<trkpt lat="48.922248840332" lon="2.6835789680481"><ele>119</ele><time>2026-4-30T18:12:4Z</time></trkpt>
<trkpt lat="48.922275543213" lon="2.683735370636"><ele>119</ele><time>2026-4-30T18:12:7Z</time></trkpt>
<trkpt lat="48.922294616699" lon="2.6838872432709"><ele>119</ele><time>2026-4-30T18:12:10Z</time></trkpt>
<trkpt lat="48.922298431396" lon="2.6840221881866"><ele>118</ele><time>2026-4-30T18:12:13Z</time></trkpt>
<trkpt lat="48.922294616699" lon="2.6841681003571"><ele>118</ele><time>2026-4-30T18:12:16Z</time></trkpt>
<trkpt lat="48.922286987305" lon="2.6843323707581"><ele>118</ele><time>2026-4-30T18:12:19Z</time></trkpt>
<trkpt lat="48.922275543213" lon="2.6844737529755"><ele>118</ele><time>2026-4-30T18:12:22Z</time></trkpt>
<trkpt lat="48.922233581543" lon="2.6846172809601"><ele>118</ele><time>2026-4-30T18:12:25Z</time></trkpt>
<trkpt lat="48.922172546387" lon="2.6847472190857"><ele>118</ele><time>2026-4-30T18:12:28Z</time></trkpt>
<trkpt lat="48.92211151123" lon="2.6848657131195"><ele>118</ele><time>2026-4-30T18:12:31Z</time></trkpt>
<trkpt lat="48.922027587891" lon="2.6849935054779"><ele>118</ele><time>2026-4-30T18:12:34Z</time></trkpt>
<trkpt lat="48.921936035156" lon="2.6851186752319"><ele>118</ele><time>2026-4-30T18:12:37Z</time></trkpt>
<trkpt lat="48.921867370605" lon="2.6851990222931"><ele>118</ele><time>2026-4-30T18:12:40Z</time></trkpt>
<trkpt lat="48.921794891357" lon="2.6852746009827"><ele>118</ele><time>2026-4-30T18:12:43Z</time></trkpt>
<trkpt lat="48.921733856201" lon="2.6853446960449"><ele>118</ele><time>2026-4-30T18:12:46Z</time></trkpt>
<trkpt lat="48.921688079834" lon="2.6853992938995"><ele>118</ele><time>2026-4-30T18:12:49Z</time></trkpt>
<trkpt lat="48.921634674072" lon="2.6854665279388"><ele>119</ele><time>2026-4-30T18:12:52Z</time></trkpt>
<trkpt lat="48.921634674072" lon="2.6854665279388"><ele>119</ele><time>2026-4-30T18:12:55Z</time></trkpt>
<trkpt lat="48.921569824219" lon="2.6855516433716"><ele>119</ele><time>2026-4-30T18:12:58Z</time></trkpt>
<trkpt lat="48.921569824219" lon="2.6855516433716"><ele>119</ele><time>2026-4-30T18:13:1Z</time></trkpt>
<trkpt lat="48.921520233154" lon="2.6856260299683"><ele>119</ele><time>2026-4-30T18:13:4Z</time></trkpt>
<trkpt lat="48.921424865723" lon="2.6856746673584"><ele>120</ele><time>2026-4-30T18:13:7Z</time></trkpt>
<trkpt lat="48.921363830566" lon="2.6857056617737"><ele>120</ele><time>2026-4-30T18:13:10Z</time></trkpt>
<trkpt lat="48.921295166016" lon="2.6857540607452"><ele>120</ele><time>2026-4-30T18:13:13Z</time></trkpt>
<trkpt lat="48.921211242676" lon="2.6858077049255"><ele>121</ele><time>2026-4-30T18:13:16Z</time></trkpt>
<trkpt lat="48.921092987061" lon="2.6858677864075"><ele>121</ele><time>2026-4-30T18:13:19Z</time></trkpt>
<trkpt lat="48.920989990234" lon="2.6859223842621"><ele>122</ele><time>2026-4-30T18:13:22Z</time></trkpt>
<trkpt lat="48.920886993408" lon="2.6859784126282"><ele>122</ele><time>2026-4-30T18:13:25Z</time></trkpt>
<trkpt lat="48.920783996582" lon="2.6860256195068"><ele>122</ele><time>2026-4-30T18:13:28Z</time></trkpt>
<trkpt lat="48.92068862915" lon="2.6860711574554"><ele>123</ele><time>2026-4-30T18:13:31Z</time></trkpt>
<trkpt lat="48.920616149902" lon="2.6861047744751"><ele>123</ele><time>2026-4-30T18:13:34Z</time></trkpt>
<trkpt lat="48.920539855957" lon="2.686142206192"><ele>124</ele><time>2026-4-30T18:13:37Z</time></trkpt>
<trkpt lat="48.920539855957" lon="2.686142206192"><ele>124</ele><time>2026-4-30T18:13:40Z</time></trkpt>
<trkpt lat="48.920379638672" lon="2.6862456798553"><ele>124</ele><time>2026-4-30T18:13:43Z</time></trkpt>
<trkpt lat="48.920295715332" lon="2.6863114833832"><ele>125</ele><time>2026-4-30T18:13:46Z</time></trkpt>
<trkpt lat="48.920227050781" lon="2.6863877773285"><ele>125</ele><time>2026-4-30T18:13:49Z</time></trkpt>
<trkpt lat="48.920146942139" lon="2.6864819526672"><ele>125</ele><time>2026-4-30T18:13:52Z</time></trkpt>
<trkpt lat="48.920063018799" lon="2.6865866184235"><ele>125</ele><time>2026-4-30T18:13:55Z</time></trkpt>
<trkpt lat="48.919998168945" lon="2.6866767406464"><ele>125</ele><time>2026-4-30T18:13:58Z</time></trkpt>
<trkpt lat="48.919918060303" lon="2.6867995262146"><ele>125</ele><time>2026-4-30T18:14:1Z</time></trkpt>
<trkpt lat="48.919841766357" lon="2.6869034767151"><ele>124</ele><time>2026-4-30T18:14:4Z</time></trkpt>
<trkpt lat="48.919773101807" lon="2.686993598938"><ele>124</ele><time>2026-4-30T18:14:7Z</time></trkpt>
<trkpt lat="48.919692993164" lon="2.6870789527893"><ele>124</ele><time>2026-4-30T18:14:10Z</time></trkpt>
<trkpt lat="48.919628143311" lon="2.6871395111084"><ele>124</ele><time>2026-4-30T18:14:13Z</time></trkpt>
<trkpt lat="48.919570922852" lon="2.6872012615204"><ele>124</ele><time>2026-4-30T18:14:16Z</time></trkpt>
<trkpt lat="48.91951751709" lon="2.6873071193695"><ele>124</ele><time>2026-4-30T18:14:19Z</time></trkpt>
<trkpt lat="48.919456481934" lon="2.6874268054962"><ele>124</ele><time>2026-4-30T18:14:22Z</time></trkpt>
<trkpt lat="48.919384002686" lon="2.6875376701355"><ele>124</ele><time>2026-4-30T18:14:25Z</time></trkpt>
<trkpt lat="48.919284820557" lon="2.6876485347748"><ele>123</ele><time>2026-4-30T18:14:28Z</time></trkpt>
<trkpt lat="48.919185638428" lon="2.6877386569977"><ele>123</ele><time>2026-4-30T18:14:31Z</time></trkpt>
<trkpt lat="48.919097900391" lon="2.6877853870392"><ele>123</ele><time>2026-4-30T18:14:34Z</time></trkpt>
<trkpt lat="48.918899536133" lon="2.6878430843353"><ele>123</ele><time>2026-4-30T18:14:37Z</time></trkpt>
<trkpt lat="48.918800354004" lon="2.6878554821014"><ele>123</ele><time>2026-4-30T18:14:40Z</time></trkpt>
<trkpt lat="48.918716430664" lon="2.6878664493561"><ele>124</ele><time>2026-4-30T18:14:43Z</time></trkpt>
<trkpt lat="48.918636322021" lon="2.6878952980042"><ele>124</ele><time>2026-4-30T18:14:46Z</time></trkpt>
<trkpt lat="48.918556213379" lon="2.6879734992981"><ele>123</ele><time>2026-4-30T18:14:49Z</time></trkpt>
<trkpt lat="48.918449401855" lon="2.6880760192871"><ele>123</ele><time>2026-4-30T18:14:52Z</time></trkpt>
<trkpt lat="48.918357849121" lon="2.688220500946"><ele>123</ele><time>2026-4-30T18:14:55Z</time></trkpt>
<trkpt lat="48.918292999268" lon="2.6883542537689"><ele>122</ele><time>2026-4-30T18:14:58Z</time></trkpt>
<trkpt lat="48.918235778809" lon="2.6884939670563"><ele>123</ele><time>2026-4-30T18:15:1Z</time></trkpt>
<trkpt lat="48.91817855835" lon="2.6886284351349"><ele>123</ele><time>2026-4-30T18:15:4Z</time></trkpt>
<trkpt lat="48.918109893799" lon="2.6887218952179"><ele>123</ele><time>2026-4-30T18:15:7Z</time></trkpt>
<trkpt lat="48.918056488037" lon="2.6887781620026"><ele>124</ele><time>2026-4-30T18:15:10Z</time></trkpt>
<trkpt lat="48.918006896973" lon="2.6888227462769"><ele>124</ele><time>2026-4-30T18:15:13Z</time></trkpt>
<trkpt lat="48.918006896973" lon="2.6888227462769"><ele>124</ele><time>2026-4-30T18:15:16Z</time></trkpt>
<trkpt lat="48.917930603027" lon="2.6888682842255"><ele>125</ele><time>2026-4-30T18:15:19Z</time></trkpt>
<trkpt lat="48.917930603027" lon="2.6888682842255"><ele>125</ele><time>2026-4-30T18:15:22Z</time></trkpt>
<trkpt lat="48.917854309082" lon="2.6889050006866"><ele>126</ele><time>2026-4-30T18:15:25Z</time></trkpt>
<trkpt lat="48.917854309082" lon="2.6889050006866"><ele>126</ele><time>2026-4-30T18:15:28Z</time></trkpt>
<trkpt lat="48.917797088623" lon="2.6889321804047"><ele>127</ele><time>2026-4-30T18:15:31Z</time></trkpt>
<trkpt lat="48.917797088623" lon="2.6889321804047"><ele>127</ele><time>2026-4-30T18:15:34Z</time></trkpt>
<trkpt lat="48.917701721191" lon="2.6889498233795"><ele>128</ele><time>2026-4-30T18:15:37Z</time></trkpt>
<trkpt lat="48.917701721191" lon="2.6889498233795"><ele>128</ele><time>2026-4-30T18:15:40Z</time></trkpt>
<trkpt lat="48.917701721191" lon="2.6889498233795"><ele>128</ele><time>2026-4-30T18:15:43Z</time></trkpt>
<trkpt lat="48.917583465576" lon="2.6889657974243"><ele>129</ele><time>2026-4-30T18:15:46Z</time></trkpt>
<trkpt lat="48.917526245117" lon="2.688982963562"><ele>130</ele><time>2026-4-30T18:15:49Z</time></trkpt>
<trkpt lat="48.917453765869" lon="2.6889901161194"><ele>130</ele><time>2026-4-30T18:15:52Z</time></trkpt>
<trkpt lat="48.917392730713" lon="2.6890048980713"><ele>130</ele><time>2026-4-30T18:15:55Z</time></trkpt>
<trkpt lat="48.917392730713" lon="2.6890048980713"><ele>130</ele><time>2026-4-30T18:15:58Z</time></trkpt>
<trkpt lat="48.917320251465" lon="2.6890106201172"><ele>130</ele><time>2026-4-30T18:16:1Z</time></trkpt>
<trkpt lat="48.917320251465" lon="2.6890106201172"><ele>130</ele><time>2026-4-30T18:16:4Z</time></trkpt>
<trkpt lat="48.917255401611" lon="2.6889870166779"><ele>131</ele><time>2026-4-30T18:16:7Z</time></trkpt>
<trkpt lat="48.917182922363" lon="2.6890032291412"><ele>131</ele><time>2026-4-30T18:16:10Z</time></trkpt>
<trkpt lat="48.917102813721" lon="2.6890420913696"><ele>131</ele><time>2026-4-30T18:16:13Z</time></trkpt>
<trkpt lat="48.917015075684" lon="2.6890704631805"><ele>131</ele><time>2026-4-30T18:16:16Z</time></trkpt>
<trkpt lat="48.916923522949" lon="2.6890845298767"><ele>131</ele><time>2026-4-30T18:16:19Z</time></trkpt>
<trkpt lat="48.91682434082" lon="2.6891150474548"><ele>132</ele><time>2026-4-30T18:16:22Z</time></trkpt>
<trkpt lat="48.91682434082" lon="2.6891150474548"><ele>132</ele><time>2026-4-30T18:16:25Z</time></trkpt>
<trkpt lat="48.916736602783" lon="2.6891422271729"><ele>132</ele><time>2026-4-30T18:16:28Z</time></trkpt>
<trkpt lat="48.916736602783" lon="2.6891422271729"><ele>132</ele><time>2026-4-30T18:16:31Z</time></trkpt>
<trkpt lat="48.91662979126" lon="2.689165353775"><ele>132</ele><time>2026-4-30T18:16:34Z</time></trkpt>
<trkpt lat="48.916564941406" lon="2.6891794204712"><ele>132</ele><time>2026-4-30T18:16:37Z</time></trkpt>
<trkpt lat="48.916492462158" lon="2.6891884803772"><ele>132</ele><time>2026-4-30T18:16:40Z</time></trkpt>
<trkpt lat="48.916427612305" lon="2.6891882419586"><ele>132</ele><time>2026-4-30T18:16:43Z</time></trkpt>
<trkpt lat="48.91633605957" lon="2.6891763210297"><ele>132</ele><time>2026-4-30T18:16:46Z</time></trkpt>
<trkpt lat="48.91633605957" lon="2.6891763210297"><ele>132</ele><time>2026-4-30T18:16:49Z</time></trkpt>
<trkpt lat="48.91625213623" lon="2.6891429424286"><ele>132</ele><time>2026-4-30T18:16:52Z</time></trkpt>
<trkpt lat="48.91614151001" lon="2.6890850067139"><ele>132</ele><time>2026-4-30T18:16:55Z</time></trkpt>
<trkpt lat="48.916069030762" lon="2.6890470981598"><ele>132</ele><time>2026-4-30T18:16:58Z</time></trkpt>
<trkpt lat="48.915992736816" lon="2.6890051364899"><ele>132</ele><time>2026-4-30T18:17:1Z</time></trkpt>
<trkpt lat="48.915912628174" lon="2.6889600753784"><ele>132</ele><time>2026-4-30T18:17:4Z</time></trkpt>
<trkpt lat="48.915824890137" lon="2.6889123916626"><ele>132</ele><time>2026-4-30T18:17:7Z</time></trkpt>
<trkpt lat="48.915733337402" lon="2.688866853714"><ele>132</ele><time>2026-4-30T18:17:10Z</time></trkpt>
<trkpt lat="48.915645599365" lon="2.6888246536255"><ele>132</ele><time>2026-4-30T18:17:13Z</time></trkpt>
<trkpt lat="48.915561676025" lon="2.6887822151184"><ele>132</ele><time>2026-4-30T18:17:16Z</time></trkpt>
<trkpt lat="48.915481567383" lon="2.6887381076813"><ele>132</ele><time>2026-4-30T18:17:19Z</time></trkpt>
<trkpt lat="48.91540145874" lon="2.6886963844299"><ele>132</ele><time>2026-4-30T18:17:22Z</time></trkpt>
<trkpt lat="48.9153175354" lon="2.6886637210846"><ele>132</ele><time>2026-4-30T18:17:25Z</time></trkpt>
<trkpt lat="48.915252685547" lon="2.6886694431305"><ele>132</ele><time>2026-4-30T18:17:28Z</time></trkpt>
<trkpt lat="48.915187835693" lon="2.6887373924255"><ele>132</ele><time>2026-4-30T18:17:31Z</time></trkpt>
<trkpt lat="48.91512298584" lon="2.6888155937195"><ele>132</ele><time>2026-4-30T18:17:34Z</time></trkpt>
<trkpt lat="48.915058135986" lon="2.6888723373413"><ele>132</ele><time>2026-4-30T18:17:37Z</time></trkpt>
<trkpt lat="48.914989471436" lon="2.688934803009"><ele>132</ele><time>2026-4-30T18:17:40Z</time></trkpt>
<trkpt lat="48.914916992188" lon="2.6890308856964"><ele>131</ele><time>2026-4-30T18:17:43Z</time></trkpt>
<trkpt lat="48.914848327637" lon="2.689120054245"><ele>131</ele><time>2026-4-30T18:17:46Z</time></trkpt>
<trkpt lat="48.914783477783" lon="2.6891989707947"><ele>131</ele><time>2026-4-30T18:17:49Z</time></trkpt>
<trkpt lat="48.914710998535" lon="2.6892623901367"><ele>131</ele><time>2026-4-30T18:17:52Z</time></trkpt>
<trkpt lat="48.914638519287" lon="2.6893126964569"><ele>131</ele><time>2026-4-30T18:17:55Z</time></trkpt>
<trkpt lat="48.914569854736" lon="2.6893794536591"><ele>132</ele><time>2026-4-30T18:17:58Z</time></trkpt>
<trkpt lat="48.91450881958" lon="2.6894347667694"><ele>132</ele><time>2026-4-30T18:18:1Z</time></trkpt>
<trkpt lat="48.914455413818" lon="2.6894760131836"><ele>132</ele><time>2026-4-30T18:18:4Z</time></trkpt>
<trkpt lat="48.914402008057" lon="2.6895241737366"><ele>132</ele><time>2026-4-30T18:18:7Z</time></trkpt>
<trkpt lat="48.914348602295" lon="2.6895742416382"><ele>132</ele><time>2026-4-30T18:18:10Z</time></trkpt>
<trkpt lat="48.914295196533" lon="2.6896269321442"><ele>132</ele><time>2026-4-30T18:18:13Z</time></trkpt>
<trkpt lat="48.914295196533" lon="2.6896269321442"><ele>132</ele><time>2026-4-30T18:18:16Z</time></trkpt>
<trkpt lat="48.914237976074" lon="2.6896619796753"><ele>132</ele><time>2026-4-30T18:18:19Z</time></trkpt>
<trkpt lat="48.914169311523" lon="2.6897413730621"><ele>133</ele><time>2026-4-30T18:18:22Z</time></trkpt>
<trkpt lat="48.914123535156" lon="2.6897733211517"><ele>133</ele><time>2026-4-30T18:18:25Z</time></trkpt>
<trkpt lat="48.914073944092" lon="2.6898007392883"><ele>132</ele><time>2026-4-30T18:18:28Z</time></trkpt>
<trkpt lat="48.914028167725" lon="2.6898241043091"><ele>132</ele><time>2026-4-30T18:18:31Z</time></trkpt>
<trkpt lat="48.913993835449" lon="2.689838886261"><ele>132</ele><time>2026-4-30T18:18:34Z</time></trkpt>
<trkpt lat="48.913967132568" lon="2.6898436546326"><ele>132</ele><time>2026-4-30T18:18:37Z</time></trkpt>
<trkpt lat="48.91389465332" lon="2.6898283958435"><ele>132</ele><time>2026-4-30T18:18:40Z</time></trkpt>
<trkpt lat="48.91389465332" lon="2.6898283958435"><ele>132</ele><time>2026-4-30T18:18:43Z</time></trkpt>
<trkpt lat="48.913803100586" lon="2.6898272037506"><ele>132</ele><time>2026-4-30T18:18:46Z</time></trkpt>
<trkpt lat="48.913745880127" lon="2.6898415088654"><ele>131</ele><time>2026-4-30T18:18:49Z</time></trkpt>
<trkpt lat="48.913681030273" lon="2.689866065979"><ele>131</ele><time>2026-4-30T18:18:52Z</time></trkpt>
<trkpt lat="48.913600921631" lon="2.6898968219757"><ele>131</ele><time>2026-4-30T18:18:55Z</time></trkpt>
<trkpt lat="48.913528442383" lon="2.689920425415"><ele>131</ele><time>2026-4-30T18:18:58Z</time></trkpt>
<trkpt lat="48.91344833374" lon="2.689950466156"><ele>130</ele><time>2026-4-30T18:19:1Z</time></trkpt>
<trkpt lat="48.9133644104" lon="2.6899871826172"><ele>130</ele><time>2026-4-30T18:19:4Z</time></trkpt>
<trkpt lat="48.91329574585" lon="2.6900131702423"><ele>130</ele><time>2026-4-30T18:19:7Z</time></trkpt>
<trkpt lat="48.913223266602" lon="2.6900305747986"><ele>130</ele><time>2026-4-30T18:19:10Z</time></trkpt>
<trkpt lat="48.913146972656" lon="2.6900579929352"><ele>129</ele><time>2026-4-30T18:19:13Z</time></trkpt>
<trkpt lat="48.913063049316" lon="2.6900765895844"><ele>129</ele><time>2026-4-30T18:19:16Z</time></trkpt>
<trkpt lat="48.912982940674" lon="2.6900947093964"><ele>129</ele><time>2026-4-30T18:19:19Z</time></trkpt>
<trkpt lat="48.912895202637" lon="2.6901206970215"><ele>128</ele><time>2026-4-30T18:19:22Z</time></trkpt>
<trkpt lat="48.912803649902" lon="2.6901438236237"><ele>128</ele><time>2026-4-30T18:19:25Z</time></trkpt>
<trkpt lat="48.912712097168" lon="2.6901681423187"><ele>128</ele><time>2026-4-30T18:19:28Z</time></trkpt>
<trkpt lat="48.912590026855" lon="2.6901943683624"><ele>127</ele><time>2026-4-30T18:19:31Z</time></trkpt>
<trkpt lat="48.912445068359" lon="2.6902329921722"><ele>127</ele><time>2026-4-30T18:19:34Z</time></trkpt>
<trkpt lat="48.912300109863" lon="2.6902785301208"><ele>125</ele><time>2026-4-30T18:19:37Z</time></trkpt>
<trkpt lat="48.912128448486" lon="2.6903157234192"><ele>123</ele><time>2026-4-30T18:19:40Z</time></trkpt>
<trkpt lat="48.911918640137" lon="2.6903426647186"><ele>121</ele><time>2026-4-30T18:19:43Z</time></trkpt>
<trkpt lat="48.911724090576" lon="2.6903669834137"><ele>119</ele><time>2026-4-30T18:19:46Z</time></trkpt>
<trkpt lat="48.911560058594" lon="2.6904172897339"><ele>117</ele><time>2026-4-30T18:19:49Z</time></trkpt>
<trkpt lat="48.911418914795" lon="2.6905405521393"><ele>116</ele><time>2026-4-30T18:19:52Z</time></trkpt>
<trkpt lat="48.911285400391" lon="2.6907067298889"><ele>115</ele><time>2026-4-30T18:19:55Z</time></trkpt>
<trkpt lat="48.911159515381" lon="2.6909081935883"><ele>115</ele><time>2026-4-30T18:19:58Z</time></trkpt>
<trkpt lat="48.91104888916" lon="2.6911015510559"><ele>115</ele><time>2026-4-30T18:20:1Z</time></trkpt>
<trkpt lat="48.910949707031" lon="2.6912343502045"><ele>115</ele><time>2026-4-30T18:20:4Z</time></trkpt>
<trkpt lat="48.910850524902" lon="2.6913418769836"><ele>116</ele><time>2026-4-30T18:20:7Z</time></trkpt>
<trkpt lat="48.910751342773" lon="2.6914417743683"><ele>115</ele><time>2026-4-30T18:20:10Z</time></trkpt>
<trkpt lat="48.910663604736" lon="2.6915330886841"><ele>115</ele><time>2026-4-30T18:20:13Z</time></trkpt>
<trkpt lat="48.910564422607" lon="2.69162774086"><ele>115</ele><time>2026-4-30T18:20:16Z</time></trkpt>
<trkpt lat="48.91047668457" lon="2.6917192935944"><ele>114</ele><time>2026-4-30T18:20:19Z</time></trkpt>
<trkpt lat="48.91039276123" lon="2.6918261051178"><ele>114</ele><time>2026-4-30T18:20:22Z</time></trkpt>
<trkpt lat="48.910312652588" lon="2.6919543743134"><ele>114</ele><time>2026-4-30T18:20:25Z</time></trkpt>
<trkpt lat="48.910232543945" lon="2.6920812129974"><ele>115</ele><time>2026-4-30T18:20:28Z</time></trkpt>
<trkpt lat="48.910148620605" lon="2.6922054290771"><ele>115</ele><time>2026-4-30T18:20:31Z</time></trkpt>
<trkpt lat="48.910076141357" lon="2.6922981739044"><ele>115</ele><time>2026-4-30T18:20:34Z</time></trkpt>
<trkpt lat="48.910011291504" lon="2.6923730373383"><ele>115</ele><time>2026-4-30T18:20:37Z</time></trkpt>
<trkpt lat="48.909931182861" lon="2.6924695968628"><ele>115</ele><time>2026-4-30T18:20:40Z</time></trkpt>
<trkpt lat="48.909870147705" lon="2.6925611495972"><ele>115</ele><time>2026-4-30T18:20:43Z</time></trkpt>
<trkpt lat="48.909824371338" lon="2.6926257610321"><ele>116</ele><time>2026-4-30T18:20:46Z</time></trkpt>
<trkpt lat="48.909774780273" lon="2.6926953792572"><ele>116</ele><time>2026-4-30T18:20:49Z</time></trkpt>
<trkpt lat="48.909706115723" lon="2.6927697658539"><ele>116</ele><time>2026-4-30T18:20:52Z</time></trkpt>
<trkpt lat="48.909606933594" lon="2.6928324699402"><ele>116</ele><time>2026-4-30T18:20:55Z</time></trkpt>
<trkpt lat="48.909488677979" lon="2.6929039955139"><ele>116</ele><time>2026-4-30T18:20:58Z</time></trkpt>
<trkpt lat="48.909378051758" lon="2.6929786205292"><ele>116</ele><time>2026-4-30T18:21:1Z</time></trkpt>
<trkpt lat="48.909286499023" lon="2.6930460929871"><ele>116</ele><time>2026-4-30T18:21:4Z</time></trkpt>
<trkpt lat="48.909202575684" lon="2.6930978298187"><ele>116</ele><time>2026-4-30T18:21:7Z</time></trkpt>
<trkpt lat="48.909111022949" lon="2.693158864975"><ele>116</ele><time>2026-4-30T18:21:10Z</time></trkpt>
<trkpt lat="48.909027099609" lon="2.6932246685028"><ele>116</ele><time>2026-4-30T18:21:13Z</time></trkpt>
<trkpt lat="48.908939361572" lon="2.6932990550995"><ele>115</ele><time>2026-4-30T18:21:16Z</time></trkpt>
<trkpt lat="48.90885925293" lon="2.6933805942535"><ele>115</ele><time>2026-4-30T18:21:19Z</time></trkpt>
<trkpt lat="48.908779144287" lon="2.6934630870819"><ele>114</ele><time>2026-4-30T18:21:22Z</time></trkpt>
<trkpt lat="48.908695220947" lon="2.6935565471649"><ele>114</ele><time>2026-4-30T18:21:25Z</time></trkpt>
<trkpt lat="48.908615112305" lon="2.6936528682709"><ele>114</ele><time>2026-4-30T18:21:28Z</time></trkpt>
<trkpt lat="48.90852355957" lon="2.6937663555145"><ele>113</ele><time>2026-4-30T18:21:31Z</time></trkpt>
<trkpt lat="48.908451080322" lon="2.6938621997833"><ele>113</ele><time>2026-4-30T18:21:34Z</time></trkpt>
<trkpt lat="48.908386230469" lon="2.6939463615417"><ele>113</ele><time>2026-4-30T18:21:37Z</time></trkpt>
<trkpt lat="48.908317565918" lon="2.6940412521362"><ele>113</ele><time>2026-4-30T18:21:40Z</time></trkpt>
<trkpt lat="48.908237457275" lon="2.6941664218903"><ele>113</ele><time>2026-4-30T18:21:43Z</time></trkpt>
<trkpt lat="48.90816116333" lon="2.6943113803864"><ele>112</ele><time>2026-4-30T18:21:46Z</time></trkpt>
<trkpt lat="48.90811920166" lon="2.6944472789764"><ele>111</ele><time>2026-4-30T18:21:49Z</time></trkpt>
<trkpt lat="48.908100128174" lon="2.6945786476135"><ele>111</ele><time>2026-4-30T18:21:52Z</time></trkpt>
<trkpt lat="48.908084869385" lon="2.6946992874146"><ele>111</ele><time>2026-4-30T18:21:55Z</time></trkpt>
<trkpt lat="48.908081054688" lon="2.6948368549347"><ele>111</ele><time>2026-4-30T18:21:58Z</time></trkpt>
<trkpt lat="48.908081054688" lon="2.6949667930603"><ele>112</ele><time>2026-4-30T18:22:1Z</time></trkpt>
<trkpt lat="48.908092498779" lon="2.6951186656952"><ele>112</ele><time>2026-4-30T18:22:4Z</time></trkpt>
<trkpt lat="48.908111572266" lon="2.6952667236328"><ele>112</ele><time>2026-4-30T18:22:7Z</time></trkpt>
<trkpt lat="48.908130645752" lon="2.6953999996185"><ele>112</ele><time>2026-4-30T18:22:10Z</time></trkpt>
<trkpt lat="48.908153533936" lon="2.6955194473267"><ele>112</ele><time>2026-4-30T18:22:13Z</time></trkpt>
<trkpt lat="48.908176422119" lon="2.6956603527069"><ele>112</ele><time>2026-4-30T18:22:16Z</time></trkpt>
<trkpt lat="48.908199310303" lon="2.6958084106445"><ele>112</ele><time>2026-4-30T18:22:19Z</time></trkpt>
<trkpt lat="48.908218383789" lon="2.695946931839"><ele>112</ele><time>2026-4-30T18:22:22Z</time></trkpt>
<trkpt lat="48.90824508667" lon="2.6960933208466"><ele>113</ele><time>2026-4-30T18:22:25Z</time></trkpt>
<trkpt lat="48.908275604248" lon="2.6962516307831"><ele>113</ele><time>2026-4-30T18:22:28Z</time></trkpt>
<trkpt lat="48.908313751221" lon="2.6964123249054"><ele>113</ele><time>2026-4-30T18:22:31Z</time></trkpt>
<trkpt lat="48.908344268799" lon="2.6965687274933"><ele>113</ele><time>2026-4-30T18:22:34Z</time></trkpt>
<trkpt lat="48.908382415771" lon="2.6967306137085"><ele>113</ele><time>2026-4-30T18:22:37Z</time></trkpt>
<trkpt lat="48.908424377441" lon="2.6968834400177"><ele>113</ele><time>2026-4-30T18:22:40Z</time></trkpt>
<trkpt lat="48.908466339111" lon="2.6969954967499"><ele>113</ele><time>2026-4-30T18:22:43Z</time></trkpt>
<trkpt lat="48.908515930176" lon="2.6971035003662"><ele>114</ele><time>2026-4-30T18:22:46Z</time></trkpt>
<trkpt lat="48.908576965332" lon="2.6972169876099"><ele>114</ele><time>2026-4-30T18:22:49Z</time></trkpt>
<trkpt lat="48.908641815186" lon="2.6973350048065"><ele>114</ele><time>2026-4-30T18:22:52Z</time></trkpt>
<trkpt lat="48.908702850342" lon="2.6974635124207"><ele>115</ele><time>2026-4-30T18:22:55Z</time></trkpt>
<trkpt lat="48.908760070801" lon="2.6975991725922"><ele>115</ele><time>2026-4-30T18:22:58Z</time></trkpt>
<trkpt lat="48.908809661865" lon="2.6977534294128"><ele>115</ele><time>2026-4-30T18:23:1Z</time></trkpt>
<trkpt lat="48.908851623535" lon="2.6979238986969"><ele>116</ele><time>2026-4-30T18:23:4Z</time></trkpt>
<trkpt lat="48.908889770508" lon="2.6981012821198"><ele>116</ele><time>2026-4-30T18:23:7Z</time></trkpt>
<trkpt lat="48.908924102783" lon="2.698276758194"><ele>117</ele><time>2026-4-30T18:23:10Z</time></trkpt>
<trkpt lat="48.908954620361" lon="2.6984074115753"><ele>117</ele><time>2026-4-30T18:23:13Z</time></trkpt>
<trkpt lat="48.908996582031" lon="2.6985404491425"><ele>118</ele><time>2026-4-30T18:23:16Z</time></trkpt>
<trkpt lat="48.909046173096" lon="2.6986646652222"><ele>119</ele><time>2026-4-30T18:23:19Z</time></trkpt>
<trkpt lat="48.90909576416" lon="2.6987936496735"><ele>120</ele><time>2026-4-30T18:23:22Z</time></trkpt>
<trkpt lat="48.909145355225" lon="2.6989204883575"><ele>121</ele><time>2026-4-30T18:23:25Z</time></trkpt>
<trkpt lat="48.909175872803" lon="2.6990616321564"><ele>121</ele><time>2026-4-30T18:23:28Z</time></trkpt>
<trkpt lat="48.909206390381" lon="2.6992263793945"><ele>121</ele><time>2026-4-30T18:23:31Z</time></trkpt>
<trkpt lat="48.909206390381" lon="2.699390411377"><ele>121</ele><time>2026-4-30T18:23:34Z</time></trkpt>
<trkpt lat="48.909194946289" lon="2.6995646953583"><ele>121</ele><time>2026-4-30T18:23:37Z</time></trkpt>
<trkpt lat="48.909172058105" lon="2.6997375488281"><ele>120</ele><time>2026-4-30T18:23:40Z</time></trkpt>
<trkpt lat="48.909164428711" lon="2.6998777389526"><ele>120</ele><time>2026-4-30T18:23:43Z</time></trkpt>
<trkpt lat="48.909133911133" lon="2.7000277042389"><ele>120</ele><time>2026-4-30T18:23:46Z</time></trkpt>
<trkpt lat="48.909103393555" lon="2.700165271759"><ele>119</ele><time>2026-4-30T18:23:49Z</time></trkpt>
<trkpt lat="48.909076690674" lon="2.700309753418"><ele>119</ele><time>2026-4-30T18:23:52Z</time></trkpt>
<trkpt lat="48.909042358398" lon="2.7004632949829"><ele>119</ele><time>2026-4-30T18:23:55Z</time></trkpt>
<trkpt lat="48.90901184082" lon="2.7005922794342"><ele>118</ele><time>2026-4-30T18:23:58Z</time></trkpt>
<trkpt lat="48.908985137939" lon="2.7007300853729"><ele>118</ele><time>2026-4-30T18:24:1Z</time></trkpt>
<trkpt lat="48.908962249756" lon="2.7008516788483"><ele>118</ele><time>2026-4-30T18:24:4Z</time></trkpt>
<trkpt lat="48.908935546875" lon="2.7009932994843"><ele>117</ele><time>2026-4-30T18:24:7Z</time></trkpt>
<trkpt lat="48.908912658691" lon="2.7011363506317"><ele>117</ele><time>2026-4-30T18:24:10Z</time></trkpt>
<trkpt lat="48.908893585205" lon="2.7012715339661"><ele>116</ele><time>2026-4-30T18:24:13Z</time></trkpt>
<trkpt lat="48.908885955811" lon="2.7014002799988"><ele>116</ele><time>2026-4-30T18:24:16Z</time></trkpt>
<trkpt lat="48.908874511719" lon="2.7015602588654"><ele>116</ele><time>2026-4-30T18:24:19Z</time></trkpt>
<trkpt lat="48.908855438232" lon="2.7017233371735"><ele>116</ele><time>2026-4-30T18:24:22Z</time></trkpt>
<trkpt lat="48.908828735352" lon="2.7018616199493"><ele>116</ele><time>2026-4-30T18:24:25Z</time></trkpt>
<trkpt lat="48.908771514893" lon="2.7019989490509"><ele>116</ele><time>2026-4-30T18:24:28Z</time></trkpt>
<trkpt lat="48.908702850342" lon="2.7021470069885"><ele>116</ele><time>2026-4-30T18:24:31Z</time></trkpt>
<trkpt lat="48.908638000488" lon="2.7022805213928"><ele>116</ele><time>2026-4-30T18:24:34Z</time></trkpt>
<trkpt lat="48.908550262451" lon="2.7023723125458"><ele>116</ele><time>2026-4-30T18:24:37Z</time></trkpt>
<trkpt lat="48.908458709717" lon="2.7024619579315"><ele>116</ele><time>2026-4-30T18:24:40Z</time></trkpt>
<trkpt lat="48.908359527588" lon="2.702544927597"><ele>115</ele><time>2026-4-30T18:24:43Z</time></trkpt>
<trkpt lat="48.908256530762" lon="2.7026255130768"><ele>115</ele><time>2026-4-30T18:24:46Z</time></trkpt>
<trkpt lat="48.908153533936" lon="2.7026929855347"><ele>115</ele><time>2026-4-30T18:24:49Z</time></trkpt>
<trkpt lat="48.90803527832" lon="2.702739238739"><ele>115</ele><time>2026-4-30T18:24:52Z</time></trkpt>
<trkpt lat="48.907905578613" lon="2.7027659416199"><ele>115</ele><time>2026-4-30T18:24:55Z</time></trkpt>
<trkpt lat="48.907772064209" lon="2.7027976512909"><ele>114</ele><time>2026-4-30T18:24:58Z</time></trkpt>
<trkpt lat="48.907657623291" lon="2.7028348445892"><ele>114</ele><time>2026-4-30T18:25:1Z</time></trkpt>
<trkpt lat="48.907566070557" lon="2.7028543949127"><ele>114</ele><time>2026-4-30T18:25:4Z</time></trkpt>
<trkpt lat="48.907485961914" lon="2.7028775215149"><ele>113</ele><time>2026-4-30T18:25:7Z</time></trkpt>
<trkpt lat="48.907398223877" lon="2.7029092311859"><ele>113</ele><time>2026-4-30T18:25:10Z</time></trkpt>
<trkpt lat="48.90731048584" lon="2.7029685974121"><ele>112</ele><time>2026-4-30T18:25:13Z</time></trkpt>
<trkpt lat="48.907241821289" lon="2.7030420303345"><ele>112</ele><time>2026-4-30T18:25:16Z</time></trkpt>
<trkpt lat="48.907192230225" lon="2.7030980587006"><ele>112</ele><time>2026-4-30T18:25:19Z</time></trkpt>
<trkpt lat="48.907192230225" lon="2.7030980587006"><ele>112</ele><time>2026-4-30T18:25:22Z</time></trkpt>
<trkpt lat="48.90718460083" lon="2.7031869888306"><ele>112</ele><time>2026-4-30T18:25:25Z</time></trkpt>
<trkpt lat="48.90718460083" lon="2.7031869888306"><ele>112</ele><time>2026-4-30T18:25:28Z</time></trkpt>
<trkpt lat="48.90718460083" lon="2.7031869888306"><ele>112</ele><time>2026-4-30T18:25:31Z</time></trkpt>
<trkpt lat="48.907245635986" lon="2.7031216621399"><ele>113</ele><time>2026-4-30T18:25:34Z</time></trkpt>
<trkpt lat="48.907245635986" lon="2.7031216621399"><ele>113</ele><time>2026-4-30T18:25:37Z</time></trkpt>
<trkpt lat="48.907245635986" lon="2.7031216621399"><ele>113</ele><time>2026-4-30T18:25:40Z</time></trkpt>
<trkpt lat="48.907207489014" lon="2.7033016681671"><ele>113</ele><time>2026-4-30T18:25:43Z</time></trkpt>
<trkpt lat="48.907329559326" lon="2.7031223773956"><ele>113</ele><time>2026-4-30T18:25:46Z</time></trkpt>
<trkpt lat="48.907413482666" lon="2.703017950058"><ele>113</ele><time>2026-4-30T18:25:49Z</time></trkpt>
<trkpt lat="48.90746307373" lon="2.7029597759247"><ele>113</ele><time>2026-4-30T18:25:52Z</time></trkpt>
<trkpt lat="48.907520294189" lon="2.7029218673706"><ele>114</ele><time>2026-4-30T18:25:55Z</time></trkpt>
<trkpt lat="48.907577514648" lon="2.7028975486755"><ele>114</ele><time>2026-4-30T18:25:58Z</time></trkpt>
<trkpt lat="48.907646179199" lon="2.7028651237488"><ele>114</ele><time>2026-4-30T18:26:1Z</time></trkpt>
<trkpt lat="48.907722473145" lon="2.7028284072876"><ele>114</ele><time>2026-4-30T18:26:4Z</time></trkpt>
<trkpt lat="48.907783508301" lon="2.7028005123138"><ele>114</ele><time>2026-4-30T18:26:7Z</time></trkpt>
<trkpt lat="48.907783508301" lon="2.7028005123138"><ele>114</ele><time>2026-4-30T18:26:10Z</time></trkpt>
<trkpt lat="48.907783508301" lon="2.7028005123138"><ele>114</ele><time>2026-4-30T18:26:13Z</time></trkpt>
<trkpt lat="48.907775878906" lon="2.7028110027313"><ele>114</ele><time>2026-4-30T18:26:16Z</time></trkpt>
<trkpt lat="48.907978057861" lon="2.7027227878571"><ele>115</ele><time>2026-4-30T18:26:19Z</time></trkpt>
<trkpt lat="48.908042907715" lon="2.702700138092"><ele>115</ele><time>2026-4-30T18:26:22Z</time></trkpt>
<trkpt lat="48.908115386963" lon="2.7026691436768"><ele>115</ele><time>2026-4-30T18:26:25Z</time></trkpt>
<trkpt lat="48.908176422119" lon="2.7026376724243"><ele>115</ele><time>2026-4-30T18:26:28Z</time></trkpt>
<trkpt lat="48.908176422119" lon="2.7026376724243"><ele>115</ele><time>2026-4-30T18:26:31Z</time></trkpt>
<trkpt lat="48.908176422119" lon="2.7026376724243"><ele>115</ele><time>2026-4-30T18:26:34Z</time></trkpt>
<trkpt lat="48.908176422119" lon="2.7026376724243"><ele>115</ele><time>2026-4-30T18:26:37Z</time></trkpt>
<trkpt lat="48.908176422119" lon="2.7026376724243"><ele>115</ele><time>2026-4-30T18:26:40Z</time></trkpt>
<trkpt lat="48.908294677734" lon="2.7025821208954"><ele>115</ele><time>2026-4-30T18:26:43Z</time></trkpt>
<trkpt lat="48.908382415771" lon="2.7025210857391"><ele>115</ele><time>2026-4-30T18:26:46Z</time></trkpt>
<trkpt lat="48.908451080322" lon="2.7024512290955"><ele>115</ele><time>2026-4-30T18:26:49Z</time></trkpt>
<trkpt lat="48.908519744873" lon="2.7023589611053"><ele>115</ele><time>2026-4-30T18:26:52Z</time></trkpt>
<trkpt lat="48.908584594727" lon="2.7022557258606"><ele>115</ele><time>2026-4-30T18:26:55Z</time></trkpt>
<trkpt lat="48.908706665039" lon="2.7020070552826"><ele>115</ele><time>2026-4-30T18:26:58Z</time></trkpt>
<trkpt lat="48.908740997314" lon="2.7018578052521"><ele>115</ele><time>2026-4-30T18:27:1Z</time></trkpt>
<trkpt lat="48.908763885498" lon="2.7016904354095"><ele>115</ele><time>2026-4-30T18:27:4Z</time></trkpt>
<trkpt lat="48.908790588379" lon="2.7015173435211"><ele>115</ele><time>2026-4-30T18:27:7Z</time></trkpt>
<trkpt lat="48.908802032471" lon="2.7013347148895"><ele>115</ele><time>2026-4-30T18:27:10Z</time></trkpt>
<trkpt lat="48.908809661865" lon="2.7011528015137"><ele>115</ele><time>2026-4-30T18:27:13Z</time></trkpt>
<trkpt lat="48.908832550049" lon="2.7009937763214"><ele>116</ele><time>2026-4-30T18:27:16Z</time></trkpt>
<trkpt lat="48.908870697021" lon="2.7008538246155"><ele>116</ele><time>2026-4-30T18:27:19Z</time></trkpt>
<trkpt lat="48.908924102783" lon="2.7006967067719"><ele>117</ele><time>2026-4-30T18:27:22Z</time></trkpt>
<trkpt lat="48.908962249756" lon="2.7005383968353"><ele>118</ele><time>2026-4-30T18:27:25Z</time></trkpt>
<trkpt lat="48.908992767334" lon="2.7004151344299"><ele>118</ele><time>2026-4-30T18:27:28Z</time></trkpt>
<trkpt lat="48.909023284912" lon="2.7002944946289"><ele>118</ele><time>2026-4-30T18:27:31Z</time></trkpt>
<trkpt lat="48.909046173096" lon="2.7001514434814"><ele>119</ele><time>2026-4-30T18:27:34Z</time></trkpt>
<trkpt lat="48.909069061279" lon="2.6999859809875"><ele>119</ele><time>2026-4-30T18:27:37Z</time></trkpt>
<trkpt lat="48.909103393555" lon="2.6998467445374"><ele>119</ele><time>2026-4-30T18:27:40Z</time></trkpt>
<trkpt lat="48.909122467041" lon="2.6997215747833"><ele>120</ele><time>2026-4-30T18:27:43Z</time></trkpt>
<trkpt lat="48.909122467041" lon="2.6997215747833"><ele>120</ele><time>2026-4-30T18:27:46Z</time></trkpt>
<trkpt lat="48.909122467041" lon="2.6997215747833"><ele>120</ele><time>2026-4-30T18:27:49Z</time></trkpt>
<trkpt lat="48.909156799316" lon="2.6996240615845"><ele>120</ele><time>2026-4-30T18:27:52Z</time></trkpt>
<trkpt lat="48.909156799316" lon="2.6996240615845"><ele>120</ele><time>2026-4-30T18:27:55Z</time></trkpt>
<trkpt lat="48.909156799316" lon="2.6996240615845"><ele>120</ele><time>2026-4-30T18:27:58Z</time></trkpt>
<trkpt lat="48.908954620361" lon="2.6993517875671"><ele>118</ele><time>2026-4-30T18:28:1Z</time></trkpt>
<trkpt lat="48.90894317627" lon="2.6992383003235"><ele>118</ele><time>2026-4-30T18:28:4Z</time></trkpt>
<trkpt lat="48.908897399902" lon="2.6991131305695"><ele>117</ele><time>2026-4-30T18:28:7Z</time></trkpt>
<trkpt lat="48.908878326416" lon="2.6989831924438"><ele>117</ele><time>2026-4-30T18:28:10Z</time></trkpt>
<trkpt lat="48.908885955811" lon="2.6988627910614"><ele>117</ele><time>2026-4-30T18:28:13Z</time></trkpt>
<trkpt lat="48.908908843994" lon="2.6986453533173"><ele>117</ele><time>2026-4-30T18:28:16Z</time></trkpt>
<trkpt lat="48.908912658691" lon="2.698540687561"><ele>117</ele><time>2026-4-30T18:28:19Z</time></trkpt>
<trkpt lat="48.908893585205" lon="2.6984267234802"><ele>116</ele><time>2026-4-30T18:28:22Z</time></trkpt>
<trkpt lat="48.908874511719" lon="2.6983139514923"><ele>116</ele><time>2026-4-30T18:28:25Z</time></trkpt>
<trkpt lat="48.908866882324" lon="2.6981775760651"><ele>116</ele><time>2026-4-30T18:28:28Z</time></trkpt>
<trkpt lat="48.90885925293" lon="2.6980288028717"><ele>116</ele><time>2026-4-30T18:28:31Z</time></trkpt>
<trkpt lat="48.908836364746" lon="2.6978719234467"><ele>116</ele><time>2026-4-30T18:28:34Z</time></trkpt>
<trkpt lat="48.908809661865" lon="2.6976943016052"><ele>116</ele><time>2026-4-30T18:28:37Z</time></trkpt>
<trkpt lat="48.908779144287" lon="2.6975357532501"><ele>115</ele><time>2026-4-30T18:28:40Z</time></trkpt>
<trkpt lat="48.908721923828" lon="2.6973493099213"><ele>115</ele><time>2026-4-30T18:28:43Z</time></trkpt>
<trkpt lat="48.908657073975" lon="2.6971762180328"><ele>115</ele><time>2026-4-30T18:28:46Z</time></trkpt>
<trkpt lat="48.908596038818" lon="2.6970167160034"><ele>115</ele><time>2026-4-30T18:28:49Z</time></trkpt>
<trkpt lat="48.908531188965" lon="2.6968622207642"><ele>114</ele><time>2026-4-30T18:28:52Z</time></trkpt>
<trkpt lat="48.908470153809" lon="2.6966822147369"><ele>114</ele><time>2026-4-30T18:28:55Z</time></trkpt>
<trkpt lat="48.908451080322" lon="2.6964952945709"><ele>115</ele><time>2026-4-30T18:28:58Z</time></trkpt>
<trkpt lat="48.90841293335" lon="2.696343421936"><ele>114</ele><time>2026-4-30T18:29:1Z</time></trkpt>
<trkpt lat="48.908363342285" lon="2.6962049007416"><ele>114</ele><time>2026-4-30T18:29:4Z</time></trkpt>
<trkpt lat="48.908321380615" lon="2.6960592269897"><ele>114</ele><time>2026-4-30T18:29:7Z</time></trkpt>
<trkpt lat="48.908306121826" lon="2.695907831192"><ele>114</ele><time>2026-4-30T18:29:10Z</time></trkpt>
<trkpt lat="48.908309936523" lon="2.6957297325134"><ele>114</ele><time>2026-4-30T18:29:13Z</time></trkpt>
<trkpt lat="48.908309936523" lon="2.6955633163452"><ele>114</ele><time>2026-4-30T18:29:16Z</time></trkpt>
<trkpt lat="48.908294677734" lon="2.6953890323639"><ele>114</ele><time>2026-4-30T18:29:19Z</time></trkpt>
<trkpt lat="48.908279418945" lon="2.6952164173126"><ele>115</ele><time>2026-4-30T18:29:22Z</time></trkpt>
<trkpt lat="48.908256530762" lon="2.6950418949127"><ele>115</ele><time>2026-4-30T18:29:25Z</time></trkpt>
<trkpt lat="48.90824508667" lon="2.6948807239532"><ele>114</ele><time>2026-4-30T18:29:28Z</time></trkpt>
<trkpt lat="48.908241271973" lon="2.6947309970856"><ele>114</ele><time>2026-4-30T18:29:31Z</time></trkpt>
<trkpt lat="48.908256530762" lon="2.6945734024048"><ele>114</ele><time>2026-4-30T18:29:34Z</time></trkpt>
<trkpt lat="48.90828704834" lon="2.6944241523743"><ele>114</ele><time>2026-4-30T18:29:37Z</time></trkpt>
<trkpt lat="48.908336639404" lon="2.6942663192749"><ele>114</ele><time>2026-4-30T18:29:40Z</time></trkpt>
<trkpt lat="48.908390045166" lon="2.694130897522"><ele>114</ele><time>2026-4-30T18:29:43Z</time></trkpt>
<trkpt lat="48.908451080322" lon="2.6940438747406"><ele>115</ele><time>2026-4-30T18:29:46Z</time></trkpt>
<trkpt lat="48.908527374268" lon="2.6939330101013"><ele>115</ele><time>2026-4-30T18:29:49Z</time></trkpt>
<trkpt lat="48.90860748291" lon="2.6938195228577"><ele>115</ele><time>2026-4-30T18:29:52Z</time></trkpt>
<trkpt lat="48.908683776855" lon="2.69371342659"><ele>115</ele><time>2026-4-30T18:29:55Z</time></trkpt>
<trkpt lat="48.908756256104" lon="2.6935946941376"><ele>115</ele><time>2026-4-30T18:29:58Z</time></trkpt>
<trkpt lat="48.908832550049" lon="2.693487405777"><ele>115</ele><time>2026-4-30T18:30:1Z</time></trkpt>
<trkpt lat="48.908908843994" lon="2.6933958530426"><ele>116</ele><time>2026-4-30T18:30:4Z</time></trkpt>
<trkpt lat="48.908988952637" lon="2.6933159828186"><ele>116</ele><time>2026-4-30T18:30:7Z</time></trkpt>
<trkpt lat="48.909069061279" lon="2.6932365894318"><ele>116</ele><time>2026-4-30T18:30:10Z</time></trkpt>
<trkpt lat="48.909149169922" lon="2.6931655406952"><ele>117</ele><time>2026-4-30T18:30:13Z</time></trkpt>
<trkpt lat="48.909240722656" lon="2.6930994987488"><ele>116</ele><time>2026-4-30T18:30:16Z</time></trkpt>
<trkpt lat="48.909336090088" lon="2.6930294036865"><ele>116</ele><time>2026-4-30T18:30:19Z</time></trkpt>
<trkpt lat="48.909420013428" lon="2.6929788589478"><ele>116</ele><time>2026-4-30T18:30:22Z</time></trkpt>
<trkpt lat="48.909519195557" lon="2.6929159164429"><ele>116</ele><time>2026-4-30T18:30:25Z</time></trkpt>
<trkpt lat="48.909633636475" lon="2.6928489208221"><ele>117</ele><time>2026-4-30T18:30:28Z</time></trkpt>
<trkpt lat="48.909732818604" lon="2.6927843093872"><ele>117</ele><time>2026-4-30T18:30:31Z</time></trkpt>
<trkpt lat="48.909820556641" lon="2.6927075386047"><ele>117</ele><time>2026-4-30T18:30:34Z</time></trkpt>
<trkpt lat="48.90990447998" lon="2.69260597229"><ele>116</ele><time>2026-4-30T18:30:37Z</time></trkpt>
<trkpt lat="48.909992218018" lon="2.6924867630005"><ele>116</ele><time>2026-4-30T18:30:40Z</time></trkpt>
<trkpt lat="48.910068511963" lon="2.6923620700836"><ele>115</ele><time>2026-4-30T18:30:43Z</time></trkpt>
<trkpt lat="48.910140991211" lon="2.6922495365143"><ele>115</ele><time>2026-4-30T18:30:46Z</time></trkpt>
<trkpt lat="48.910209655762" lon="2.692147731781"><ele>115</ele><time>2026-4-30T18:30:49Z</time></trkpt>
<trkpt lat="48.910270690918" lon="2.6920545101166"><ele>115</ele><time>2026-4-30T18:30:52Z</time></trkpt>
<trkpt lat="48.910270690918" lon="2.6920545101166"><ele>115</ele><time>2026-4-30T18:30:55Z</time></trkpt>
<trkpt lat="48.910270690918" lon="2.6920545101166"><ele>115</ele><time>2026-4-30T18:30:58Z</time></trkpt>
<trkpt lat="48.910270690918" lon="2.6920545101166"><ele>115</ele><time>2026-4-30T18:31:1Z</time></trkpt>
<trkpt lat="48.910335540771" lon="2.69202876091"><ele>115</ele><time>2026-4-30T18:31:4Z</time></trkpt>
<trkpt lat="48.910335540771" lon="2.69202876091"><ele>115</ele><time>2026-4-30T18:31:7Z</time></trkpt>
<trkpt lat="48.910335540771" lon="2.69202876091"><ele>115</ele><time>2026-4-30T18:31:10Z</time></trkpt>
<trkpt lat="48.910453796387" lon="2.6918437480927"><ele>115</ele><time>2026-4-30T18:31:13Z</time></trkpt>
<trkpt lat="48.910499572754" lon="2.6917803287506"><ele>115</ele><time>2026-4-30T18:31:16Z</time></trkpt>
<trkpt lat="48.910552978516" lon="2.6917035579681"><ele>115</ele><time>2026-4-30T18:31:19Z</time></trkpt>
<trkpt lat="48.910610198975" lon="2.6916320323944"><ele>115</ele><time>2026-4-30T18:31:22Z</time></trkpt>
<trkpt lat="48.910667419434" lon="2.6915948390961"><ele>116</ele><time>2026-4-30T18:31:25Z</time></trkpt>
<trkpt lat="48.910736083984" lon="2.6915566921234"><ele>116</ele><time>2026-4-30T18:31:28Z</time></trkpt>
<trkpt lat="48.910800933838" lon="2.6914966106415"><ele>117</ele><time>2026-4-30T18:31:31Z</time></trkpt>
<trkpt lat="48.910861968994" lon="2.691442489624"><ele>117</ele><time>2026-4-30T18:31:34Z</time></trkpt>
<trkpt lat="48.910915374756" lon="2.6913919448853"><ele>117</ele><time>2026-4-30T18:31:37Z</time></trkpt>
<trkpt lat="48.910980224609" lon="2.6913094520569"><ele>117</ele><time>2026-4-30T18:31:40Z</time></trkpt>
<trkpt lat="48.911052703857" lon="2.6912117004395"><ele>116</ele><time>2026-4-30T18:31:43Z</time></trkpt>
<trkpt lat="48.911128997803" lon="2.6911020278931"><ele>116</ele><time>2026-4-30T18:31:46Z</time></trkpt>
<trkpt lat="48.911224365234" lon="2.6909630298615"><ele>116</ele><time>2026-4-30T18:31:49Z</time></trkpt>
<trkpt lat="48.911327362061" lon="2.6908226013184"><ele>116</ele><time>2026-4-30T18:31:52Z</time></trkpt>
<trkpt lat="48.911426544189" lon="2.6906878948212"><ele>116</ele><time>2026-4-30T18:31:55Z</time></trkpt>
<trkpt lat="48.911518096924" lon="2.6905617713928"><ele>117</ele><time>2026-4-30T18:31:58Z</time></trkpt>
<trkpt lat="48.911582946777" lon="2.6904735565186"><ele>118</ele><time>2026-4-30T18:32:1Z</time></trkpt>
<trkpt lat="48.911655426025" lon="2.6904063224792"><ele>118</ele><time>2026-4-30T18:32:4Z</time></trkpt>
<trkpt lat="48.911731719971" lon="2.6903517246246"><ele>119</ele><time>2026-4-30T18:32:7Z</time></trkpt>
<trkpt lat="48.911804199219" lon="2.6903212070465"><ele>120</ele><time>2026-4-30T18:32:10Z</time></trkpt>
<trkpt lat="48.911865234375" lon="2.690315246582"><ele>120</ele><time>2026-4-30T18:32:13Z</time></trkpt>
<trkpt lat="48.911865234375" lon="2.690315246582"><ele>120</ele><time>2026-4-30T18:32:16Z</time></trkpt>
<trkpt lat="48.91194152832" lon="2.6903336048126"><ele>121</ele><time>2026-4-30T18:32:19Z</time></trkpt>
<trkpt lat="48.91194152832" lon="2.6903336048126"><ele>121</ele><time>2026-4-30T18:32:22Z</time></trkpt>
<trkpt lat="48.911998748779" lon="2.6903495788574"><ele>122</ele><time>2026-4-30T18:32:25Z</time></trkpt>
<trkpt lat="48.911998748779" lon="2.6903495788574"><ele>122</ele><time>2026-4-30T18:32:28Z</time></trkpt>
<trkpt lat="48.912071228027" lon="2.6903417110443"><ele>123</ele><time>2026-4-30T18:32:31Z</time></trkpt>
<trkpt lat="48.912071228027" lon="2.6903417110443"><ele>123</ele><time>2026-4-30T18:32:34Z</time></trkpt>
<trkpt lat="48.912101745605" lon="2.6903297901154"><ele>123</ele><time>2026-4-30T18:32:37Z</time></trkpt>
<trkpt lat="48.912101745605" lon="2.6903297901154"><ele>123</ele><time>2026-4-30T18:32:40Z</time></trkpt>
<trkpt lat="48.91215133667" lon="2.6903157234192"><ele>124</ele><time>2026-4-30T18:32:43Z</time></trkpt>
<trkpt lat="48.912189483643" lon="2.6903083324432"><ele>124</ele><time>2026-4-30T18:32:46Z</time></trkpt>
<trkpt lat="48.912189483643" lon="2.6903083324432"><ele>124</ele><time>2026-4-30T18:32:49Z</time></trkpt>
<trkpt lat="48.912242889404" lon="2.6903023719788"><ele>125</ele><time>2026-4-30T18:32:52Z</time></trkpt>
<trkpt lat="48.912288665771" lon="2.6902945041656"><ele>125</ele><time>2026-4-30T18:32:55Z</time></trkpt>
<trkpt lat="48.912288665771" lon="2.6902945041656"><ele>125</ele><time>2026-4-30T18:32:58Z</time></trkpt>
<trkpt lat="48.91234588623" lon="2.6902849674225"><ele>126</ele><time>2026-4-30T18:33:1Z</time></trkpt>
<trkpt lat="48.912395477295" lon="2.690279006958"><ele>126</ele><time>2026-4-30T18:33:4Z</time></trkpt>
<trkpt lat="48.912441253662" lon="2.6902754306793"><ele>127</ele><time>2026-4-30T18:33:7Z</time></trkpt>
<trkpt lat="48.912479400635" lon="2.6902740001678"><ele>127</ele><time>2026-4-30T18:33:10Z</time></trkpt>
<trkpt lat="48.912509918213" lon="2.6902732849121"><ele>127</ele><time>2026-4-30T18:33:13Z</time></trkpt>
<trkpt lat="48.912578582764" lon="2.6902661323547"><ele>128</ele><time>2026-4-30T18:33:16Z</time></trkpt>
<trkpt lat="48.912651062012" lon="2.6902313232422"><ele>128</ele><time>2026-4-30T18:33:19Z</time></trkpt>
<trkpt lat="48.912651062012" lon="2.6902313232422"><ele>128</ele><time>2026-4-30T18:33:22Z</time></trkpt>
<trkpt lat="48.91272354126" lon="2.6902315616608"><ele>128</ele><time>2026-4-30T18:33:25Z</time></trkpt>
<trkpt lat="48.912822723389" lon="2.6902174949646"><ele>128</ele><time>2026-4-30T18:33:28Z</time></trkpt>
<trkpt lat="48.91287612915" lon="2.6902000904083"><ele>129</ele><time>2026-4-30T18:33:31Z</time></trkpt>
<trkpt lat="48.912967681885" lon="2.6901731491089"><ele>129</ele><time>2026-4-30T18:33:34Z</time></trkpt>
<trkpt lat="48.912967681885" lon="2.6901731491089"><ele>129</ele><time>2026-4-30T18:33:37Z</time></trkpt>
<trkpt lat="48.913051605225" lon="2.6901395320892"><ele>129</ele><time>2026-4-30T18:33:40Z</time></trkpt>
<trkpt lat="48.913143157959" lon="2.6901142597198"><ele>129</ele><time>2026-4-30T18:33:43Z</time></trkpt>
<trkpt lat="48.91325378418" lon="2.6900975704193"><ele>130</ele><time>2026-4-30T18:33:46Z</time></trkpt>
<trkpt lat="48.913326263428" lon="2.69007396698"><ele>130</ele><time>2026-4-30T18:33:49Z</time></trkpt>
<trkpt lat="48.913402557373" lon="2.6900477409363"><ele>130</ele><time>2026-4-30T18:33:52Z</time></trkpt>
<trkpt lat="48.913463592529" lon="2.6900248527527"><ele>131</ele><time>2026-4-30T18:33:55Z</time></trkpt>
<trkpt lat="48.913543701172" lon="2.6899955272675"><ele>131</ele><time>2026-4-30T18:33:58Z</time></trkpt>
<trkpt lat="48.913608551025" lon="2.6899688243866"><ele>131</ele><time>2026-4-30T18:34:1Z</time></trkpt>
<trkpt lat="48.913673400879" lon="2.689936876297"><ele>131</ele><time>2026-4-30T18:34:4Z</time></trkpt>
<trkpt lat="48.913734436035" lon="2.6899061203003"><ele>131</ele><time>2026-4-30T18:34:7Z</time></trkpt>
<trkpt lat="48.913734436035" lon="2.6899061203003"><ele>131</ele><time>2026-4-30T18:34:10Z</time></trkpt>
<trkpt lat="48.913837432861" lon="2.689843416214"><ele>132</ele><time>2026-4-30T18:34:13Z</time></trkpt>
<trkpt lat="48.913837432861" lon="2.689843416214"><ele>132</ele><time>2026-4-30T18:34:16Z</time></trkpt>
<trkpt lat="48.91393661499" lon="2.6898424625397"><ele>132</ele><time>2026-4-30T18:34:19Z</time></trkpt>
<trkpt lat="48.91393661499" lon="2.6898424625397"><ele>132</ele><time>2026-4-30T18:34:22Z</time></trkpt>
<trkpt lat="48.9140625" lon="2.6898062229156"><ele>132</ele><time>2026-4-30T18:34:25Z</time></trkpt>
<trkpt lat="48.914131164551" lon="2.6897799968719"><ele>133</ele><time>2026-4-30T18:34:28Z</time></trkpt>
<trkpt lat="48.914192199707" lon="2.6897521018982"><ele>133</ele><time>2026-4-30T18:34:31Z</time></trkpt>
<trkpt lat="48.914245605469" lon="2.6897032260895"><ele>132</ele><time>2026-4-30T18:34:34Z</time></trkpt>
<trkpt lat="48.914291381836" lon="2.689644575119"><ele>132</ele><time>2026-4-30T18:34:37Z</time></trkpt>
<trkpt lat="48.914291381836" lon="2.689644575119"><ele>132</ele><time>2026-4-30T18:34:40Z</time></trkpt>
<trkpt lat="48.914352416992" lon="2.6896116733551"><ele>132</ele><time>2026-4-30T18:34:43Z</time></trkpt>
<trkpt lat="48.914398193359" lon="2.6895599365234"><ele>132</ele><time>2026-4-30T18:34:46Z</time></trkpt>
<trkpt lat="48.91446685791" lon="2.6894788742065"><ele>132</ele><time>2026-4-30T18:34:49Z</time></trkpt>
<trkpt lat="48.914531707764" lon="2.6893947124481"><ele>132</ele><time>2026-4-30T18:34:52Z</time></trkpt>
<trkpt lat="48.914608001709" lon="2.6893043518066"><ele>131</ele><time>2026-4-30T18:34:55Z</time></trkpt>
<trkpt lat="48.914669036865" lon="2.689239025116"><ele>131</ele><time>2026-4-30T18:34:58Z</time></trkpt>
<trkpt lat="48.914726257324" lon="2.6891989707947"><ele>131</ele><time>2026-4-30T18:35:1Z</time></trkpt>
<trkpt lat="48.914791107178" lon="2.6891405582428"><ele>131</ele><time>2026-4-30T18:35:4Z</time></trkpt>
<trkpt lat="48.914852142334" lon="2.6890752315521"><ele>131</ele><time>2026-4-30T18:35:7Z</time></trkpt>
<trkpt lat="48.914916992188" lon="2.6890051364899"><ele>131</ele><time>2026-4-30T18:35:10Z</time></trkpt>
<trkpt lat="48.91499710083" lon="2.6889262199402"><ele>132</ele><time>2026-4-30T18:35:13Z</time></trkpt>
<trkpt lat="48.915065765381" lon="2.688857793808"><ele>132</ele><time>2026-4-30T18:35:16Z</time></trkpt>
<trkpt lat="48.915130615234" lon="2.6888227462769"><ele>132</ele><time>2026-4-30T18:35:19Z</time></trkpt>
<trkpt lat="48.915199279785" lon="2.688779592514"><ele>132</ele><time>2026-4-30T18:35:22Z</time></trkpt>
<trkpt lat="48.915256500244" lon="2.6887271404266"><ele>132</ele><time>2026-4-30T18:35:25Z</time></trkpt>
<trkpt lat="48.9153175354" lon="2.6886730194092"><ele>132</ele><time>2026-4-30T18:35:28Z</time></trkpt>
<trkpt lat="48.915393829346" lon="2.6886563301086"><ele>132</ele><time>2026-4-30T18:35:31Z</time></trkpt>
<trkpt lat="48.915473937988" lon="2.6886620521545"><ele>132</ele><time>2026-4-30T18:35:34Z</time></trkpt>
<trkpt lat="48.915531158447" lon="2.6886925697327"><ele>132</ele><time>2026-4-30T18:35:37Z</time></trkpt>
<trkpt lat="48.915592193604" lon="2.688728094101"><ele>132</ele><time>2026-4-30T18:35:40Z</time></trkpt>
<trkpt lat="48.915592193604" lon="2.688728094101"><ele>132</ele><time>2026-4-30T18:35:43Z</time></trkpt>
<trkpt lat="48.915687561035" lon="2.6888043880463"><ele>132</ele><time>2026-4-30T18:35:46Z</time></trkpt>
<trkpt lat="48.915744781494" lon="2.6888344287872"><ele>132</ele><time>2026-4-30T18:35:49Z</time></trkpt>
<trkpt lat="48.915802001953" lon="2.6888649463654"><ele>132</ele><time>2026-4-30T18:35:52Z</time></trkpt>
<trkpt lat="48.915859222412" lon="2.6888973712921"><ele>132</ele><time>2026-4-30T18:35:55Z</time></trkpt>
<trkpt lat="48.915912628174" lon="2.688930273056"><ele>132</ele><time>2026-4-30T18:35:58Z</time></trkpt>
<trkpt lat="48.915912628174" lon="2.688930273056"><ele>132</ele><time>2026-4-30T18:36:1Z</time></trkpt>
<trkpt lat="48.916019439697" lon="2.6889932155609"><ele>132</ele><time>2026-4-30T18:36:4Z</time></trkpt>
<trkpt lat="48.916080474854" lon="2.6890208721161"><ele>132</ele><time>2026-4-30T18:36:7Z</time></trkpt>
<trkpt lat="48.916145324707" lon="2.6890497207642"><ele>132</ele><time>2026-4-30T18:36:10Z</time></trkpt>
<trkpt lat="48.916206359863" lon="2.6890754699707"><ele>132</ele><time>2026-4-30T18:36:13Z</time></trkpt>
<trkpt lat="48.916271209717" lon="2.68909740448"><ele>132</ele><time>2026-4-30T18:36:16Z</time></trkpt>
<trkpt lat="48.916339874268" lon="2.6891179084778"><ele>132</ele><time>2026-4-30T18:36:19Z</time></trkpt>
<trkpt lat="48.916393280029" lon="2.689138174057"><ele>132</ele><time>2026-4-30T18:36:22Z</time></trkpt>
<trkpt lat="48.916450500488" lon="2.6891529560089"><ele>132</ele><time>2026-4-30T18:36:25Z</time></trkpt>
<trkpt lat="48.916519165039" lon="2.6891603469849"><ele>132</ele><time>2026-4-30T18:36:28Z</time></trkpt>
<trkpt lat="48.916599273682" lon="2.6891503334045"><ele>132</ele><time>2026-4-30T18:36:31Z</time></trkpt>
<trkpt lat="48.916683197021" lon="2.6891329288483"><ele>132</ele><time>2026-4-30T18:36:34Z</time></trkpt>
<trkpt lat="48.916770935059" lon="2.6891136169434"><ele>132</ele><time>2026-4-30T18:36:37Z</time></trkpt>
<trkpt lat="48.916877746582" lon="2.6890919208527"><ele>132</ele><time>2026-4-30T18:36:40Z</time></trkpt>
<trkpt lat="48.916988372803" lon="2.6890685558319"><ele>131</ele><time>2026-4-30T18:36:43Z</time></trkpt>
<trkpt lat="48.917087554932" lon="2.6890435218811"><ele>131</ele><time>2026-4-30T18:36:46Z</time></trkpt>
<trkpt lat="48.917198181152" lon="2.6890149116516"><ele>131</ele><time>2026-4-30T18:36:49Z</time></trkpt>
<trkpt lat="48.917285919189" lon="2.6889936923981"><ele>131</ele><time>2026-4-30T18:36:52Z</time></trkpt>
<trkpt lat="48.917346954346" lon="2.6890001296997"><ele>130</ele><time>2026-4-30T18:36:55Z</time></trkpt>
<trkpt lat="48.917411804199" lon="2.6890001296997"><ele>130</ele><time>2026-4-30T18:36:58Z</time></trkpt>
<trkpt lat="48.917510986328" lon="2.6889913082123"><ele>130</ele><time>2026-4-30T18:37:1Z</time></trkpt>
<trkpt lat="48.917594909668" lon="2.6889855861664"><ele>129</ele><time>2026-4-30T18:37:4Z</time></trkpt>
<trkpt lat="48.917686462402" lon="2.6889789104462"><ele>128</ele><time>2026-4-30T18:37:7Z</time></trkpt>
<trkpt lat="48.917812347412" lon="2.688957452774"><ele>126</ele><time>2026-4-30T18:37:10Z</time></trkpt>
<trkpt lat="48.917953491211" lon="2.6889340877533"><ele>125</ele><time>2026-4-30T18:37:13Z</time></trkpt>
<trkpt lat="48.918083190918" lon="2.6888213157654"><ele>124</ele><time>2026-4-30T18:37:16Z</time></trkpt>
<trkpt lat="48.91845703125" lon="2.6880674362183"><ele>123</ele><time>2026-4-30T18:37:19Z</time></trkpt>
<trkpt lat="48.91873550415" lon="2.6877670288086"><ele>124</ele><time>2026-4-30T18:37:22Z</time></trkpt>
<trkpt lat="48.918849945068" lon="2.6877434253693"><ele>124</ele><time>2026-4-30T18:37:25Z</time></trkpt>
<trkpt lat="48.918983459473" lon="2.6877262592316"><ele>124</ele><time>2026-4-30T18:37:28Z</time></trkpt>
<trkpt lat="48.919082641602" lon="2.6877198219299"><ele>124</ele><time>2026-4-30T18:37:31Z</time></trkpt>
<trkpt lat="48.919178009033" lon="2.6876966953278"><ele>124</ele><time>2026-4-30T18:37:34Z</time></trkpt>
<trkpt lat="48.91926574707" lon="2.6876204013824"><ele>124</ele><time>2026-4-30T18:37:37Z</time></trkpt>
<trkpt lat="48.91934967041" lon="2.6875171661377"><ele>124</ele><time>2026-4-30T18:37:40Z</time></trkpt>
<trkpt lat="48.919441223145" lon="2.6873705387115"><ele>124</ele><time>2026-4-30T18:37:43Z</time></trkpt>
<trkpt lat="48.919521331787" lon="2.6872479915619"><ele>124</ele><time>2026-4-30T18:37:46Z</time></trkpt>
<trkpt lat="48.91960144043" lon="2.6871387958527"><ele>125</ele><time>2026-4-30T18:37:49Z</time></trkpt>
<trkpt lat="48.919673919678" lon="2.6870436668396"><ele>125</ele><time>2026-4-30T18:37:52Z</time></trkpt>
<trkpt lat="48.91975402832" lon="2.6869370937347"><ele>125</ele><time>2026-4-30T18:37:55Z</time></trkpt>
<trkpt lat="48.919826507568" lon="2.6868314743042"><ele>125</ele><time>2026-4-30T18:37:58Z</time></trkpt>
<trkpt lat="48.919914245605" lon="2.686704158783"><ele>125</ele><time>2026-4-30T18:38:1Z</time></trkpt>
<trkpt lat="48.920024871826" lon="2.6865477561951"><ele>125</ele><time>2026-4-30T18:38:4Z</time></trkpt>
<trkpt lat="48.92015838623" lon="2.6863896846771"><ele>125</ele><time>2026-4-30T18:38:7Z</time></trkpt>
<trkpt lat="48.920272827148" lon="2.6862716674805"><ele>125</ele><time>2026-4-30T18:38:10Z</time></trkpt>
<trkpt lat="48.92036819458" lon="2.6862018108368"><ele>125</ele><time>2026-4-30T18:38:13Z</time></trkpt>
<trkpt lat="48.920436859131" lon="2.6861562728882"><ele>124</ele><time>2026-4-30T18:38:16Z</time></trkpt>
<trkpt lat="48.920528411865" lon="2.6860902309418"><ele>124</ele><time>2026-4-30T18:38:19Z</time></trkpt>
<trkpt lat="48.920627593994" lon="2.6860377788544"><ele>123</ele><time>2026-4-30T18:38:22Z</time></trkpt>
<trkpt lat="48.920722961426" lon="2.6860020160675"><ele>123</ele><time>2026-4-30T18:38:25Z</time></trkpt>
<trkpt lat="48.920822143555" lon="2.6859519481659"><ele>123</ele><time>2026-4-30T18:38:28Z</time></trkpt>
<trkpt lat="48.920921325684" lon="2.6858983039856"><ele>122</ele><time>2026-4-30T18:38:31Z</time></trkpt>
<trkpt lat="48.921043395996" lon="2.6858360767365"><ele>122</ele><time>2026-4-30T18:38:34Z</time></trkpt>
<trkpt lat="48.921154022217" lon="2.6857795715332"><ele>121</ele><time>2026-4-30T18:38:37Z</time></trkpt>
<trkpt lat="48.921253204346" lon="2.6857225894928"><ele>121</ele><time>2026-4-30T18:38:40Z</time></trkpt>
<trkpt lat="48.92134475708" lon="2.685658454895"><ele>120</ele><time>2026-4-30T18:38:43Z</time></trkpt>
<trkpt lat="48.921401977539" lon="2.6855933666229"><ele>120</ele><time>2026-4-30T18:38:46Z</time></trkpt>
<trkpt lat="48.921401977539" lon="2.6855933666229"><ele>120</ele><time>2026-4-30T18:38:49Z</time></trkpt>
<trkpt lat="48.921447753906" lon="2.685533285141"><ele>120</ele><time>2026-4-30T18:38:52Z</time></trkpt>
<trkpt lat="48.92151260376" lon="2.6855459213257"><ele>119</ele><time>2026-4-30T18:38:55Z</time></trkpt>
<trkpt lat="48.921611785889" lon="2.6855561733246"><ele>119</ele><time>2026-4-30T18:38:58Z</time></trkpt>
<trkpt lat="48.921680450439" lon="2.6854686737061"><ele>118</ele><time>2026-4-30T18:39:1Z</time></trkpt>
<trkpt lat="48.921722412109" lon="2.6853468418121"><ele>118</ele><time>2026-4-30T18:39:4Z</time></trkpt>
<trkpt lat="48.921760559082" lon="2.68528008461"><ele>118</ele><time>2026-4-30T18:39:7Z</time></trkpt>
<trkpt lat="48.921810150146" lon="2.6852073669434"><ele>118</ele><time>2026-4-30T18:39:10Z</time></trkpt>
<trkpt lat="48.921875" lon="2.6851155757904"><ele>118</ele><time>2026-4-30T18:39:13Z</time></trkpt>
<trkpt lat="48.921943664551" lon="2.6850185394287"><ele>118</ele><time>2026-4-30T18:39:16Z</time></trkpt>
<trkpt lat="48.922008514404" lon="2.6849193572998"><ele>118</ele><time>2026-4-30T18:39:19Z</time></trkpt>
<trkpt lat="48.922061920166" lon="2.6848151683807"><ele>118</ele><time>2026-4-30T18:39:22Z</time></trkpt>
<trkpt lat="48.922107696533" lon="2.6847097873688"><ele>118</ele><time>2026-4-30T18:39:25Z</time></trkpt>
<trkpt lat="48.922149658203" lon="2.6845910549164"><ele>118</ele><time>2026-4-30T18:39:28Z</time></trkpt>
<trkpt lat="48.922180175781" lon="2.6844606399536"><ele>119</ele><time>2026-4-30T18:39:31Z</time></trkpt>
<trkpt lat="48.922203063965" lon="2.6843366622925"><ele>119</ele><time>2026-4-30T18:39:34Z</time></trkpt>
<trkpt lat="48.922218322754" lon="2.6842122077942"><ele>119</ele><time>2026-4-30T18:39:37Z</time></trkpt>
<trkpt lat="48.922206878662" lon="2.6840806007385"><ele>119</ele><time>2026-4-30T18:39:40Z</time></trkpt>
<trkpt lat="48.922183990479" lon="2.6839234828949"><ele>119</ele><time>2026-4-30T18:39:43Z</time></trkpt>
<trkpt lat="48.922161102295" lon="2.6837825775146"><ele>120</ele><time>2026-4-30T18:39:46Z</time></trkpt>
<trkpt lat="48.922145843506" lon="2.6836342811584"><ele>120</ele><time>2026-4-30T18:39:49Z</time></trkpt>
<trkpt lat="48.922130584717" lon="2.6834816932678"><ele>121</ele><time>2026-4-30T18:39:52Z</time></trkpt>
<trkpt lat="48.922103881836" lon="2.6833271980286"><ele>121</ele><time>2026-4-30T18:39:55Z</time></trkpt>
<trkpt lat="48.922077178955" lon="2.6832461357117"><ele>121</ele><time>2026-4-30T18:39:58Z</time></trkpt>
<trkpt lat="48.922077178955" lon="2.6832461357117"><ele>121</ele><time>2026-4-30T18:40:1Z</time></trkpt>
<trkpt lat="48.922012329102" lon="2.6831109523773"><ele>121</ele><time>2026-4-30T18:40:4Z</time></trkpt>
<trkpt lat="48.921966552734" lon="2.6830141544342"><ele>122</ele><time>2026-4-30T18:40:7Z</time></trkpt>
<trkpt lat="48.921920776367" lon="2.6829113960266"><ele>122</ele><time>2026-4-30T18:40:10Z</time></trkpt>
<trkpt lat="48.921852111816" lon="2.6827788352966"><ele>122</ele><time>2026-4-30T18:40:13Z</time></trkpt>
<trkpt lat="48.92179107666" lon="2.6826586723328"><ele>122</ele><time>2026-4-30T18:40:16Z</time></trkpt>
<trkpt lat="48.921730041504" lon="2.6825501918793"><ele>122</ele><time>2026-4-30T18:40:19Z</time></trkpt>
<trkpt lat="48.921657562256" lon="2.6824426651001"><ele>122</ele><time>2026-4-30T18:40:22Z</time></trkpt>
<trkpt lat="48.921573638916" lon="2.6823246479034"><ele>122</ele><time>2026-4-30T18:40:25Z</time></trkpt>
<trkpt lat="48.921493530273" lon="2.6822090148926"><ele>123</ele><time>2026-4-30T18:40:28Z</time></trkpt>
<trkpt lat="48.921440124512" lon="2.6821038722992"><ele>123</ele><time>2026-4-30T18:40:31Z</time></trkpt>
<trkpt lat="48.921375274658" lon="2.6820092201233"><ele>124</ele><time>2026-4-30T18:40:34Z</time></trkpt>
<trkpt lat="48.92134475708" lon="2.6818675994873"><ele>124</ele><time>2026-4-30T18:40:37Z</time></trkpt>
<trkpt lat="48.921360015869" lon="2.6817569732666"><ele>123</ele><time>2026-4-30T18:40:40Z</time></trkpt>
<trkpt lat="48.921401977539" lon="2.6815984249115"><ele>123</ele><time>2026-4-30T18:40:43Z</time></trkpt>
<trkpt lat="48.921459197998" lon="2.6814398765564"><ele>122</ele><time>2026-4-30T18:40:46Z</time></trkpt>
<trkpt lat="48.92151260376" lon="2.6813008785248"><ele>122</ele><time>2026-4-30T18:40:49Z</time></trkpt>
<trkpt lat="48.921562194824" lon="2.6811745166779"><ele>122</ele><time>2026-4-30T18:40:52Z</time></trkpt>
<trkpt lat="48.921611785889" lon="2.68106508255"><ele>122</ele><time>2026-4-30T18:40:55Z</time></trkpt>
<trkpt lat="48.92166519165" lon="2.6809465885162"><ele>122</ele><time>2026-4-30T18:40:58Z</time></trkpt>
<trkpt lat="48.921718597412" lon="2.6808302402496"><ele>122</ele><time>2026-4-30T18:41:1Z</time></trkpt>
<trkpt lat="48.921772003174" lon="2.6807060241699"><ele>122</ele><time>2026-4-30T18:41:4Z</time></trkpt>
<trkpt lat="48.921821594238" lon="2.6805963516235"><ele>122</ele><time>2026-4-30T18:41:7Z</time></trkpt>
<trkpt lat="48.921871185303" lon="2.6804943084717"><ele>122</ele><time>2026-4-30T18:41:10Z</time></trkpt>
<trkpt lat="48.921924591064" lon="2.6803829669952"><ele>122</ele><time>2026-4-30T18:41:13Z</time></trkpt>
<trkpt lat="48.921993255615" lon="2.6802461147308"><ele>123</ele><time>2026-4-30T18:41:16Z</time></trkpt>
<trkpt lat="48.922058105469" lon="2.680121421814"><ele>123</ele><time>2026-4-30T18:41:19Z</time></trkpt>
<trkpt lat="48.922103881836" lon="2.6800405979156"><ele>123</ele><time>2026-4-30T18:41:22Z</time></trkpt>
<trkpt lat="48.922130584717" lon="2.6799430847168"><ele>123</ele><time>2026-4-30T18:41:25Z</time></trkpt>
<trkpt lat="48.922145843506" lon="2.6798372268677"><ele>123</ele><time>2026-4-30T18:41:28Z</time></trkpt>
<trkpt lat="48.922157287598" lon="2.6797490119934"><ele>123</ele><time>2026-4-30T18:41:31Z</time></trkpt>
<trkpt lat="48.922168731689" lon="2.6796634197235"><ele>123</ele><time>2026-4-30T18:41:34Z</time></trkpt>
<trkpt lat="48.922183990479" lon="2.6795616149902"><ele>123</ele><time>2026-4-30T18:41:37Z</time></trkpt>
<trkpt lat="48.922199249268" lon="2.6794610023499"><ele>122</ele><time>2026-4-30T18:41:40Z</time></trkpt>
<trkpt lat="48.922222137451" lon="2.6793735027313"><ele>122</ele><time>2026-4-30T18:41:43Z</time></trkpt>
<trkpt lat="48.922222137451" lon="2.6793735027313"><ele>122</ele><time>2026-4-30T18:41:46Z</time></trkpt>
<trkpt lat="48.922203063965" lon="2.67924284935"><ele>122</ele><time>2026-4-30T18:41:49Z</time></trkpt>
<trkpt lat="48.922203063965" lon="2.67924284935"><ele>122</ele><time>2026-4-30T18:41:52Z</time></trkpt>
<trkpt lat="48.922172546387" lon="2.6791112422943"><ele>123</ele><time>2026-4-30T18:41:55Z</time></trkpt>
<trkpt lat="48.922164916992" lon="2.6789569854736"><ele>123</ele><time>2026-4-30T18:41:58Z</time></trkpt>
<trkpt lat="48.922172546387" lon="2.6788382530212"><ele>123</ele><time>2026-4-30T18:42:1Z</time></trkpt>
<trkpt lat="48.922191619873" lon="2.6787128448486"><ele>123</ele><time>2026-4-30T18:42:4Z</time></trkpt>
<trkpt lat="48.922206878662" lon="2.6786062717438"><ele>124</ele><time>2026-4-30T18:42:7Z</time></trkpt>
<trkpt lat="48.922233581543" lon="2.6785011291504"><ele>124</ele><time>2026-4-30T18:42:10Z</time></trkpt>
<trkpt lat="48.922252655029" lon="2.6783833503723"><ele>124</ele><time>2026-4-30T18:42:13Z</time></trkpt>
<trkpt lat="48.922271728516" lon="2.6782722473145"><ele>124</ele><time>2026-4-30T18:42:16Z</time></trkpt>
<trkpt lat="48.922283172607" lon="2.6781742572784"><ele>124</ele><time>2026-4-30T18:42:19Z</time></trkpt>
<trkpt lat="48.922290802002" lon="2.6780781745911"><ele>125</ele><time>2026-4-30T18:42:22Z</time></trkpt>
<trkpt lat="48.922290802002" lon="2.6780781745911"><ele>125</ele><time>2026-4-30T18:42:25Z</time></trkpt>
<trkpt lat="48.922309875488" lon="2.6779284477234"><ele>125</ele><time>2026-4-30T18:42:28Z</time></trkpt>
<trkpt lat="48.922309875488" lon="2.6779284477234"><ele>125</ele><time>2026-4-30T18:42:31Z</time></trkpt>
<trkpt lat="48.922328948975" lon="2.6777651309967"><ele>125</ele><time>2026-4-30T18:42:34Z</time></trkpt>
<trkpt lat="48.922332763672" lon="2.6776759624481"><ele>126</ele><time>2026-4-30T18:42:37Z</time></trkpt>
<trkpt lat="48.922344207764" lon="2.677565574646"><ele>126</ele><time>2026-4-30T18:42:40Z</time></trkpt>
<trkpt lat="48.922348022461" lon="2.6774353981018"><ele>126</ele><time>2026-4-30T18:42:43Z</time></trkpt>
<trkpt lat="48.922344207764" lon="2.6773118972778"><ele>126</ele><time>2026-4-30T18:42:46Z</time></trkpt>
<trkpt lat="48.922344207764" lon="2.6771855354309"><ele>127</ele><time>2026-4-30T18:42:49Z</time></trkpt>
<trkpt lat="48.922340393066" lon="2.6770868301392"><ele>127</ele><time>2026-4-30T18:42:52Z</time></trkpt>
<trkpt lat="48.922340393066" lon="2.676985502243"><ele>127</ele><time>2026-4-30T18:42:55Z</time></trkpt>
<trkpt lat="48.922344207764" lon="2.6768443584442"><ele>127</ele><time>2026-4-30T18:42:58Z</time></trkpt>
<trkpt lat="48.922344207764" lon="2.6767103672028"><ele>127</ele><time>2026-4-30T18:43:1Z</time></trkpt>
<trkpt lat="48.922344207764" lon="2.6765899658203"><ele>128</ele><time>2026-4-30T18:43:4Z</time></trkpt>
<trkpt lat="48.92236328125" lon="2.6764707565308"><ele>128</ele><time>2026-4-30T18:43:7Z</time></trkpt>
<trkpt lat="48.922378540039" lon="2.6763563156128"><ele>128</ele><time>2026-4-30T18:43:10Z</time></trkpt>
<trkpt lat="48.922409057617" lon="2.676234960556"><ele>128</ele><time>2026-4-30T18:43:13Z</time></trkpt>
<trkpt lat="48.922428131104" lon="2.676096200943"><ele>128</ele><time>2026-4-30T18:43:16Z</time></trkpt>
<trkpt lat="48.922443389893" lon="2.6759264469147"><ele>128</ele><time>2026-4-30T18:43:19Z</time></trkpt>
<trkpt lat="48.922435760498" lon="2.6757864952087"><ele>128</ele><time>2026-4-30T18:43:22Z</time></trkpt>
<trkpt lat="48.922439575195" lon="2.6756455898285"><ele>129</ele><time>2026-4-30T18:43:25Z</time></trkpt>
<trkpt lat="48.922439575195" lon="2.6755104064941"><ele>129</ele><time>2026-4-30T18:43:28Z</time></trkpt>
<trkpt lat="48.922443389893" lon="2.6753702163696"><ele>129</ele><time>2026-4-30T18:43:31Z</time></trkpt>
<trkpt lat="48.922443389893" lon="2.6752517223358"><ele>129</ele><time>2026-4-30T18:43:34Z</time></trkpt>
<trkpt lat="48.922439575195" lon="2.6751379966736"><ele>130</ele><time>2026-4-30T18:43:37Z</time></trkpt>
<trkpt lat="48.922424316406" lon="2.6750175952911"><ele>130</ele><time>2026-4-30T18:43:40Z</time></trkpt>
<trkpt lat="48.92240524292" lon="2.6749033927917"><ele>130</ele><time>2026-4-30T18:43:43Z</time></trkpt>
<trkpt lat="48.922386169434" lon="2.674786567688"><ele>130</ele><time>2026-4-30T18:43:46Z</time></trkpt>
<trkpt lat="48.922370910645" lon="2.6746904850006"><ele>130</ele><time>2026-4-30T18:43:49Z</time></trkpt>
<trkpt lat="48.922359466553" lon="2.6746008396149"><ele>130</ele><time>2026-4-30T18:43:52Z</time></trkpt>
<trkpt lat="48.922359466553" lon="2.6746008396149"><ele>130</ele><time>2026-4-30T18:43:55Z</time></trkpt>
<trkpt lat="48.92236328125" lon="2.6743795871735"><ele>130</ele><time>2026-4-30T18:43:58Z</time></trkpt>
<trkpt lat="48.922370910645" lon="2.6742269992828"><ele>130</ele><time>2026-4-30T18:44:1Z</time></trkpt>
<trkpt lat="48.922382354736" lon="2.6740789413452"><ele>130</ele><time>2026-4-30T18:44:4Z</time></trkpt>
<trkpt lat="48.922409057617" lon="2.6739120483398"><ele>130</ele><time>2026-4-30T18:44:7Z</time></trkpt>
<trkpt lat="48.922424316406" lon="2.6737780570984"><ele>129</ele><time>2026-4-30T18:44:10Z</time></trkpt>
<trkpt lat="48.922435760498" lon="2.6736524105072"><ele>129</ele><time>2026-4-30T18:44:13Z</time></trkpt>
<trkpt lat="48.92244720459" lon="2.6735148429871"><ele>129</ele><time>2026-4-30T18:44:16Z</time></trkpt>
<trkpt lat="48.922451019287" lon="2.6733558177948"><ele>129</ele><time>2026-4-30T18:44:19Z</time></trkpt>
<trkpt lat="48.92244720459" lon="2.6732180118561"><ele>129</ele><time>2026-4-30T18:44:22Z</time></trkpt>
<trkpt lat="48.92244720459" lon="2.673086643219"><ele>129</ele><time>2026-4-30T18:44:25Z</time></trkpt>
<trkpt lat="48.922454833984" lon="2.672943353653"><ele>128</ele><time>2026-4-30T18:44:28Z</time></trkpt>
<trkpt lat="48.922481536865" lon="2.6727993488312"><ele>128</ele><time>2026-4-30T18:44:31Z</time></trkpt>
<trkpt lat="48.922500610352" lon="2.6726505756378"><ele>128</ele><time>2026-4-30T18:44:34Z</time></trkpt>
<trkpt lat="48.922508239746" lon="2.6724998950958"><ele>128</ele><time>2026-4-30T18:44:37Z</time></trkpt>
<trkpt lat="48.922519683838" lon="2.6723434925079"><ele>129</ele><time>2026-4-30T18:44:40Z</time></trkpt>
<trkpt lat="48.922527313232" lon="2.6722042560577"><ele>129</ele><time>2026-4-30T18:44:43Z</time></trkpt>
<trkpt lat="48.92253112793" lon="2.6720468997955"><ele>130</ele><time>2026-4-30T18:44:46Z</time></trkpt>
<trkpt lat="48.92253112793" lon="2.6718754768372"><ele>130</ele><time>2026-4-30T18:44:49Z</time></trkpt>
<trkpt lat="48.92253112793" lon="2.6716899871826"><ele>131</ele><time>2026-4-30T18:44:52Z</time></trkpt>
<trkpt lat="48.922546386719" lon="2.671530008316"><ele>131</ele><time>2026-4-30T18:44:55Z</time></trkpt>
<trkpt lat="48.922565460205" lon="2.671370267868"><ele>130</ele><time>2026-4-30T18:44:58Z</time></trkpt>
<trkpt lat="48.922588348389" lon="2.6712126731873"><ele>130</ele><time>2026-4-30T18:45:1Z</time></trkpt>
<trkpt lat="48.92259979248" lon="2.6710450649261"><ele>129</ele><time>2026-4-30T18:45:4Z</time></trkpt>
<trkpt lat="48.922603607178" lon="2.6708815097809"><ele>129</ele><time>2026-4-30T18:45:7Z</time></trkpt>
<trkpt lat="48.922611236572" lon="2.6706991195679"><ele>128</ele><time>2026-4-30T18:45:10Z</time></trkpt>
<trkpt lat="48.922611236572" lon="2.6705164909363"><ele>128</ele><time>2026-4-30T18:45:13Z</time></trkpt>
<trkpt lat="48.92261505127" lon="2.6703391075134"><ele>127</ele><time>2026-4-30T18:45:16Z</time></trkpt>
<trkpt lat="48.922622680664" lon="2.6701629161835"><ele>126</ele><time>2026-4-30T18:45:19Z</time></trkpt>
<trkpt lat="48.922630310059" lon="2.6699850559235"><ele>126</ele><time>2026-4-30T18:45:22Z</time></trkpt>
<trkpt lat="48.922634124756" lon="2.6697745323181"><ele>125</ele><time>2026-4-30T18:45:25Z</time></trkpt>
<trkpt lat="48.922634124756" lon="2.6695747375488"><ele>124</ele><time>2026-4-30T18:45:28Z</time></trkpt>
<trkpt lat="48.922653198242" lon="2.669371843338"><ele>123</ele><time>2026-4-30T18:45:31Z</time></trkpt>
<trkpt lat="48.92264175415" lon="2.6691772937775"><ele>122</ele><time>2026-4-30T18:45:34Z</time></trkpt>
<trkpt lat="48.9225730896" lon="2.669038772583"><ele>122</ele><time>2026-4-30T18:45:37Z</time></trkpt>
<trkpt lat="48.922454833984" lon="2.668961763382"><ele>122</ele><time>2026-4-30T18:45:40Z</time></trkpt>
<trkpt lat="48.922336578369" lon="2.6688830852509"><ele>123</ele><time>2026-4-30T18:45:43Z</time></trkpt>
<trkpt lat="48.922210693359" lon="2.6688039302826"><ele>123</ele><time>2026-4-30T18:45:46Z</time></trkpt>
<trkpt lat="48.922080993652" lon="2.6686887741089"><ele>123</ele><time>2026-4-30T18:45:49Z</time></trkpt>
<trkpt lat="48.921974182129" lon="2.6685357093811"><ele>123</ele><time>2026-4-30T18:45:52Z</time></trkpt>
<trkpt lat="48.921894073486" lon="2.6684098243713"><ele>123</ele><time>2026-4-30T18:45:55Z</time></trkpt>
<trkpt lat="48.921825408936" lon="2.6682965755463"><ele>122</ele><time>2026-4-30T18:45:58Z</time></trkpt>
<trkpt lat="48.921772003174" lon="2.6681756973267"><ele>123</ele><time>2026-4-30T18:46:1Z</time></trkpt>
<trkpt lat="48.921699523926" lon="2.6680324077606"><ele>123</ele><time>2026-4-30T18:46:4Z</time></trkpt>
<trkpt lat="48.921657562256" lon="2.6678795814514"><ele>123</ele><time>2026-4-30T18:46:7Z</time></trkpt>
<trkpt lat="48.92163848877" lon="2.6677279472351"><ele>123</ele><time>2026-4-30T18:46:10Z</time></trkpt>
<trkpt lat="48.921630859375" lon="2.6675679683685"><ele>123</ele><time>2026-4-30T18:46:13Z</time></trkpt>
<trkpt lat="48.921649932861" lon="2.6674036979675"><ele>123</ele><time>2026-4-30T18:46:16Z</time></trkpt>
<trkpt lat="48.92166519165" lon="2.6672384738922"><ele>122</ele><time>2026-4-30T18:46:19Z</time></trkpt>
<trkpt lat="48.921688079834" lon="2.6670906543732"><ele>122</ele><time>2026-4-30T18:46:22Z</time></trkpt>
<trkpt lat="48.921718597412" lon="2.6669383049011"><ele>121</ele><time>2026-4-30T18:46:25Z</time></trkpt>
<trkpt lat="48.92174911499" lon="2.6667773723602"><ele>121</ele><time>2026-4-30T18:46:28Z</time></trkpt>
<trkpt lat="48.921768188477" lon="2.6666429042816"><ele>120</ele><time>2026-4-30T18:46:31Z</time></trkpt>
<trkpt lat="48.921806335449" lon="2.6664917469025"><ele>120</ele><time>2026-4-30T18:46:34Z</time></trkpt>
<trkpt lat="48.921840667725" lon="2.6663670539856"><ele>119</ele><time>2026-4-30T18:46:37Z</time></trkpt>
<trkpt lat="48.921863555908" lon="2.6662545204163"><ele>119</ele><time>2026-4-30T18:46:40Z</time></trkpt>
<trkpt lat="48.921894073486" lon="2.6661376953125"><ele>118</ele><time>2026-4-30T18:46:43Z</time></trkpt>
<trkpt lat="48.921924591064" lon="2.666020154953"><ele>118</ele><time>2026-4-30T18:46:46Z</time></trkpt>
<trkpt lat="48.921955108643" lon="2.6659035682678"><ele>117</ele><time>2026-4-30T18:46:49Z</time></trkpt>
<trkpt lat="48.921977996826" lon="2.6658098697662"><ele>117</ele><time>2026-4-30T18:46:52Z</time></trkpt>
<trkpt lat="48.921977996826" lon="2.6657152175903"><ele>117</ele><time>2026-4-30T18:46:55Z</time></trkpt>
<trkpt lat="48.921977996826" lon="2.6657152175903"><ele>117</ele><time>2026-4-30T18:46:58Z</time></trkpt>
<trkpt lat="48.921985626221" lon="2.6655550003052"><ele>116</ele><time>2026-4-30T18:47:1Z</time></trkpt>
<trkpt lat="48.921997070312" lon="2.6654350757599"><ele>116</ele><time>2026-4-30T18:47:4Z</time></trkpt>
<trkpt lat="48.922016143799" lon="2.665301322937"><ele>115</ele><time>2026-4-30T18:47:7Z</time></trkpt>
<trkpt lat="48.922039031982" lon="2.6651747226715"><ele>115</ele><time>2026-4-30T18:47:10Z</time></trkpt>
<trkpt lat="48.922065734863" lon="2.6650538444519"><ele>114</ele><time>2026-4-30T18:47:13Z</time></trkpt>
<trkpt lat="48.922100067139" lon="2.6649115085602"><ele>114</ele><time>2026-4-30T18:47:16Z</time></trkpt>
<trkpt lat="48.922138214111" lon="2.6647534370422"><ele>114</ele><time>2026-4-30T18:47:19Z</time></trkpt>
<trkpt lat="48.922168731689" lon="2.6645996570587"><ele>114</ele><time>2026-4-30T18:47:22Z</time></trkpt>
<trkpt lat="48.92219543457" lon="2.6644606590271"><ele>114</ele><time>2026-4-30T18:47:25Z</time></trkpt>
<trkpt lat="48.922222137451" lon="2.6643218994141"><ele>114</ele><time>2026-4-30T18:47:28Z</time></trkpt>
<trkpt lat="48.922252655029" lon="2.6641728878021"><ele>114</ele><time>2026-4-30T18:47:31Z</time></trkpt>
<trkpt lat="48.922286987305" lon="2.6640207767487"><ele>114</ele><time>2026-4-30T18:47:34Z</time></trkpt>
<trkpt lat="48.922328948975" lon="2.6638474464417"><ele>114</ele><time>2026-4-30T18:47:37Z</time></trkpt>
<trkpt lat="48.922378540039" lon="2.6636550426483"><ele>115</ele><time>2026-4-30T18:47:40Z</time></trkpt>
<trkpt lat="48.922428131104" lon="2.6634683609009"><ele>115</ele><time>2026-4-30T18:47:43Z</time></trkpt>
<trkpt lat="48.922477722168" lon="2.6632754802704"><ele>115</ele><time>2026-4-30T18:47:46Z</time></trkpt>
<trkpt lat="48.922523498535" lon="2.6630671024323"><ele>115</ele><time>2026-4-30T18:47:49Z</time></trkpt>
<trkpt lat="48.922565460205" lon="2.6628935337067"><ele>115</ele><time>2026-4-30T18:47:52Z</time></trkpt>
<trkpt lat="48.922595977783" lon="2.6627352237701"><ele>116</ele><time>2026-4-30T18:47:55Z</time></trkpt>
<trkpt lat="48.922622680664" lon="2.6625945568085"><ele>116</ele><time>2026-4-30T18:47:58Z</time></trkpt>
<trkpt lat="48.922649383545" lon="2.6624557971954"><ele>116</ele><time>2026-4-30T18:48:1Z</time></trkpt>
<trkpt lat="48.922676086426" lon="2.6623277664185"><ele>116</ele><time>2026-4-30T18:48:4Z</time></trkpt>
<trkpt lat="48.922706604004" lon="2.6621901988983"><ele>116</ele><time>2026-4-30T18:48:7Z</time></trkpt>
<trkpt lat="48.922737121582" lon="2.6620507240295"><ele>116</ele><time>2026-4-30T18:48:10Z</time></trkpt>
<trkpt lat="48.922775268555" lon="2.6619098186493"><ele>116</ele><time>2026-4-30T18:48:13Z</time></trkpt>
<trkpt lat="48.922805786133" lon="2.6617910861969"><ele>116</ele><time>2026-4-30T18:48:16Z</time></trkpt>
<trkpt lat="48.922840118408" lon="2.6616480350494"><ele>116</ele><time>2026-4-30T18:48:19Z</time></trkpt>
<trkpt lat="48.922870635986" lon="2.6615071296692"><ele>116</ele><time>2026-4-30T18:48:22Z</time></trkpt>
<trkpt lat="48.922901153564" lon="2.6613781452179"><ele>115</ele><time>2026-4-30T18:48:25Z</time></trkpt>
<trkpt lat="48.92293548584" lon="2.6612436771393"><ele>115</ele><time>2026-4-30T18:48:28Z</time></trkpt>
<trkpt lat="48.922958374023" lon="2.6611621379852"><ele>115</ele><time>2026-4-30T18:48:31Z</time></trkpt>
<trkpt lat="48.922981262207" lon="2.6610813140869"><ele>115</ele><time>2026-4-30T18:48:34Z</time></trkpt>
<trkpt lat="48.923011779785" lon="2.6609833240509"><ele>114</ele><time>2026-4-30T18:48:37Z</time></trkpt>
<trkpt lat="48.923027038574" lon="2.660897731781"><ele>114</ele><time>2026-4-30T18:48:40Z</time></trkpt>
<trkpt lat="48.923027038574" lon="2.660897731781"><ele>114</ele><time>2026-4-30T18:48:43Z</time></trkpt>
<trkpt lat="48.92306137085" lon="2.6607346534729"><ele>114</ele><time>2026-4-30T18:48:46Z</time></trkpt>
<trkpt lat="48.923091888428" lon="2.6606431007385"><ele>113</ele><time>2026-4-30T18:48:49Z</time></trkpt>
<trkpt lat="48.923091888428" lon="2.6606431007385"><ele>113</ele><time>2026-4-30T18:48:52Z</time></trkpt>
<trkpt lat="48.923141479492" lon="2.6604793071747"><ele>113</ele><time>2026-4-30T18:48:55Z</time></trkpt>
<trkpt lat="48.923175811768" lon="2.6603803634644"><ele>113</ele><time>2026-4-30T18:48:58Z</time></trkpt>
<trkpt lat="48.923210144043" lon="2.6602609157562"><ele>113</ele><time>2026-4-30T18:49:1Z</time></trkpt>
<trkpt lat="48.923244476318" lon="2.6601674556732"><ele>113</ele><time>2026-4-30T18:49:4Z</time></trkpt>
<trkpt lat="48.923278808594" lon="2.6600875854492"><ele>112</ele><time>2026-4-30T18:49:7Z</time></trkpt>
<trkpt lat="48.923320770264" lon="2.6599838733673"><ele>112</ele><time>2026-4-30T18:49:10Z</time></trkpt>
<trkpt lat="48.923358917236" lon="2.6598854064941"><ele>112</ele><time>2026-4-30T18:49:13Z</time></trkpt>
<trkpt lat="48.923400878906" lon="2.6597864627838"><ele>112</ele><time>2026-4-30T18:49:16Z</time></trkpt>
<trkpt lat="48.923446655273" lon="2.6596276760101"><ele>113</ele><time>2026-4-30T18:49:19Z</time></trkpt>
<trkpt lat="48.923480987549" lon="2.6595230102539"><ele>113</ele><time>2026-4-30T18:49:22Z</time></trkpt>
<trkpt lat="48.923519134521" lon="2.6593999862671"><ele>113</ele><time>2026-4-30T18:49:25Z</time></trkpt>
<trkpt lat="48.923557281494" lon="2.659273147583"><ele>113</ele><time>2026-4-30T18:49:28Z</time></trkpt>
<trkpt lat="48.923595428467" lon="2.6591396331787"><ele>113</ele><time>2026-4-30T18:49:31Z</time></trkpt>
<trkpt lat="48.923648834229" lon="2.6590039730072"><ele>113</ele><time>2026-4-30T18:49:34Z</time></trkpt>
<trkpt lat="48.923713684082" lon="2.6588847637177"><ele>113</ele><time>2026-4-30T18:49:37Z</time></trkpt>
<trkpt lat="48.92378616333" lon="2.6587629318237"><ele>113</ele><time>2026-4-30T18:49:40Z</time></trkpt>
<trkpt lat="48.923858642578" lon="2.6586539745331"><ele>114</ele><time>2026-4-30T18:49:43Z</time></trkpt>
<trkpt lat="48.923915863037" lon="2.6585314273834"><ele>114</ele><time>2026-4-30T18:49:46Z</time></trkpt>
<trkpt lat="48.923965454102" lon="2.6583790779114"><ele>114</ele><time>2026-4-30T18:49:49Z</time></trkpt>
<trkpt lat="48.923999786377" lon="2.658242225647"><ele>114</ele><time>2026-4-30T18:49:52Z</time></trkpt>
<trkpt lat="48.924018859863" lon="2.6581199169159"><ele>114</ele><time>2026-4-30T18:49:55Z</time></trkpt>
<trkpt lat="48.924030303955" lon="2.6580140590668"><ele>114</ele><time>2026-4-30T18:49:58Z</time></trkpt>
<trkpt lat="48.924041748047" lon="2.6579053401947"><ele>115</ele><time>2026-4-30T18:50:1Z</time></trkpt>
<trkpt lat="48.924049377441" lon="2.6578135490417"><ele>115</ele><time>2026-4-30T18:50:4Z</time></trkpt>
<trkpt lat="48.924049377441" lon="2.6578135490417"><ele>115</ele><time>2026-4-30T18:50:7Z</time></trkpt>
<trkpt lat="48.924057006836" lon="2.6576590538025"><ele>115</ele><time>2026-4-30T18:50:10Z</time></trkpt>
<trkpt lat="48.924057006836" lon="2.6576590538025"><ele>115</ele><time>2026-4-30T18:50:13Z</time></trkpt>
<trkpt lat="48.924057006836" lon="2.6576590538025"><ele>115</ele><time>2026-4-30T18:50:16Z</time></trkpt>
<trkpt lat="48.924057006836" lon="2.6576590538025"><ele>115</ele><time>2026-4-30T18:50:19Z</time></trkpt>
<trkpt lat="48.92407989502" lon="2.657705783844"><ele>115</ele><time>2026-4-30T18:50:22Z</time></trkpt>
<trkpt lat="48.924087524414" lon="2.657769203186"><ele>115</ele><time>2026-4-30T18:50:25Z</time></trkpt>
<trkpt lat="48.924083709717" lon="2.6578485965729"><ele>115</ele><time>2026-4-30T18:50:28Z</time></trkpt>
<trkpt lat="48.92407989502" lon="2.6579418182373"><ele>114</ele><time>2026-4-30T18:50:31Z</time></trkpt>
<trkpt lat="48.924072265625" lon="2.6580440998077"><ele>114</ele><time>2026-4-30T18:50:34Z</time></trkpt>
<trkpt lat="48.924057006836" lon="2.6582555770874"><ele>114</ele><time>2026-4-30T18:50:37Z</time></trkpt>
<trkpt lat="48.924049377441" lon="2.6583487987518"><ele>114</ele><time>2026-4-30T18:50:40Z</time></trkpt>
<trkpt lat="48.92403793335" lon="2.6584680080414"><ele>114</ele><time>2026-4-30T18:50:43Z</time></trkpt>
<trkpt lat="48.924022674561" lon="2.6585826873779"><ele>114</ele><time>2026-4-30T18:50:46Z</time></trkpt>
<trkpt lat="48.923984527588" lon="2.658686876297"><ele>113</ele><time>2026-4-30T18:50:49Z</time></trkpt>
<trkpt lat="48.923931121826" lon="2.658784866333"><ele>113</ele><time>2026-4-30T18:50:52Z</time></trkpt>
<trkpt lat="48.923885345459" lon="2.6588606834412"><ele>113</ele><time>2026-4-30T18:50:55Z</time></trkpt>
<trkpt lat="48.923839569092" lon="2.6589329242706"><ele>113</ele><time>2026-4-30T18:50:58Z</time></trkpt>
<trkpt lat="48.923789978027" lon="2.6590037345886"><ele>113</ele><time>2026-4-30T18:51:1Z</time></trkpt>
<trkpt lat="48.923732757568" lon="2.6590845584869"><ele>113</ele><time>2026-4-30T18:51:4Z</time></trkpt>
<trkpt lat="48.923675537109" lon="2.6591811180115"><ele>113</ele><time>2026-4-30T18:51:7Z</time></trkpt>
<trkpt lat="48.923614501953" lon="2.6593019962311"><ele>113</ele><time>2026-4-30T18:51:10Z</time></trkpt>
<trkpt lat="48.923557281494" lon="2.659435749054"><ele>113</ele><time>2026-4-30T18:51:13Z</time></trkpt>
<trkpt lat="48.923496246338" lon="2.6595690250397"><ele>113</ele><time>2026-4-30T18:51:16Z</time></trkpt>
<trkpt lat="48.923442840576" lon="2.6596949100494"><ele>112</ele><time>2026-4-30T18:51:19Z</time></trkpt>
<trkpt lat="48.923408508301" lon="2.6598103046417"><ele>112</ele><time>2026-4-30T18:51:22Z</time></trkpt>
<trkpt lat="48.923374176025" lon="2.6599280834198"><ele>112</ele><time>2026-4-30T18:51:25Z</time></trkpt>
<trkpt lat="48.923332214355" lon="2.6600577831268"><ele>112</ele><time>2026-4-30T18:51:28Z</time></trkpt>
<trkpt lat="48.92329788208" lon="2.6601839065552"><ele>112</ele><time>2026-4-30T18:51:31Z</time></trkpt>
<trkpt lat="48.923263549805" lon="2.6603102684021"><ele>113</ele><time>2026-4-30T18:51:34Z</time></trkpt>
<trkpt lat="48.923229217529" lon="2.6604342460632"><ele>113</ele><time>2026-4-30T18:51:37Z</time></trkpt>
<trkpt lat="48.923191070557" lon="2.6605427265167"><ele>113</ele><time>2026-4-30T18:51:40Z</time></trkpt>
<trkpt lat="48.923149108887" lon="2.6606597900391"><ele>113</ele><time>2026-4-30T18:51:43Z</time></trkpt>
<trkpt lat="48.923114776611" lon="2.6607472896576"><ele>113</ele><time>2026-4-30T18:51:46Z</time></trkpt>
<trkpt lat="48.923114776611" lon="2.6607472896576"><ele>113</ele><time>2026-4-30T18:51:49Z</time></trkpt>
<trkpt lat="48.92306137085" lon="2.660852432251"><ele>114</ele><time>2026-4-30T18:51:52Z</time></trkpt>
<trkpt lat="48.92306137085" lon="2.660852432251"><ele>114</ele><time>2026-4-30T18:51:55Z</time></trkpt>
<trkpt lat="48.923000335693" lon="2.6609981060028"><ele>114</ele><time>2026-4-30T18:51:58Z</time></trkpt>
<trkpt lat="48.923000335693" lon="2.6609981060028"><ele>114</ele><time>2026-4-30T18:52:1Z</time></trkpt>
<trkpt lat="48.922985076904" lon="2.6611144542694"><ele>115</ele><time>2026-4-30T18:52:4Z</time></trkpt>
<trkpt lat="48.922985076904" lon="2.6611144542694"><ele>115</ele><time>2026-4-30T18:52:7Z</time></trkpt>
<trkpt lat="48.923030853271" lon="2.661031961441"><ele>114</ele><time>2026-4-30T18:52:10Z</time></trkpt>
<trkpt lat="48.923030853271" lon="2.661031961441"><ele>114</ele><time>2026-4-30T18:52:13Z</time></trkpt>
<trkpt lat="48.922992706299" lon="2.6609337329865"><ele>114</ele><time>2026-4-30T18:52:16Z</time></trkpt>
<trkpt lat="48.922992706299" lon="2.6609337329865"><ele>114</ele><time>2026-4-30T18:52:19Z</time></trkpt>
<trkpt lat="48.922916412354" lon="2.6608927249908"><ele>114</ele><time>2026-4-30T18:52:22Z</time></trkpt>
<trkpt lat="48.922840118408" lon="2.6608839035034"><ele>114</ele><time>2026-4-30T18:52:25Z</time></trkpt>
<trkpt lat="48.922756195068" lon="2.6609010696411"><ele>114</ele><time>2026-4-30T18:52:28Z</time></trkpt>
<trkpt lat="48.922649383545" lon="2.6608860492706"><ele>115</ele><time>2026-4-30T18:52:31Z</time></trkpt>
<trkpt lat="48.922538757324" lon="2.6608564853668"><ele>115</ele><time>2026-4-30T18:52:34Z</time></trkpt>
<trkpt lat="48.922431945801" lon="2.6608154773712"><ele>115</ele><time>2026-4-30T18:52:37Z</time></trkpt>
<trkpt lat="48.92232131958" lon="2.6607713699341"><ele>116</ele><time>2026-4-30T18:52:40Z</time></trkpt>
<trkpt lat="48.922267913818" lon="2.6607506275177"><ele>116</ele><time>2026-4-30T18:52:43Z</time></trkpt>
<trkpt lat="48.922210693359" lon="2.6607308387756"><ele>116</ele><time>2026-4-30T18:52:46Z</time></trkpt>
<trkpt lat="48.922149658203" lon="2.660707950592"><ele>116</ele><time>2026-4-30T18:52:49Z</time></trkpt>
<trkpt lat="48.922088623047" lon="2.6606833934784"><ele>116</ele><time>2026-4-30T18:52:52Z</time></trkpt>
<trkpt lat="48.922027587891" lon="2.6606562137604"><ele>117</ele><time>2026-4-30T18:52:55Z</time></trkpt>
<trkpt lat="48.921970367432" lon="2.660626411438"><ele>117</ele><time>2026-4-30T18:52:58Z</time></trkpt>
<trkpt lat="48.921909332275" lon="2.660594701767"><ele>117</ele><time>2026-4-30T18:53:1Z</time></trkpt>
<trkpt lat="48.921840667725" lon="2.6605625152588"><ele>117</ele><time>2026-4-30T18:53:4Z</time></trkpt>
<trkpt lat="48.921783447266" lon="2.6605365276337"><ele>117</ele><time>2026-4-30T18:53:7Z</time></trkpt>
<trkpt lat="48.921722412109" lon="2.6605083942413"><ele>117</ele><time>2026-4-30T18:53:10Z</time></trkpt>
<trkpt lat="48.921657562256" lon="2.6604804992676"><ele>118</ele><time>2026-4-30T18:53:13Z</time></trkpt>
<trkpt lat="48.921588897705" lon="2.6604528427124"><ele>118</ele><time>2026-4-30T18:53:16Z</time></trkpt>
<trkpt lat="48.92151260376" lon="2.660425901413"><ele>118</ele><time>2026-4-30T18:53:19Z</time></trkpt>
<trkpt lat="48.921447753906" lon="2.6604032516479"><ele>118</ele><time>2026-4-30T18:53:22Z</time></trkpt>
<trkpt lat="48.921379089355" lon="2.6603858470917"><ele>118</ele><time>2026-4-30T18:53:25Z</time></trkpt>
<trkpt lat="48.921306610107" lon="2.6603677272797"><ele>118</ele><time>2026-4-30T18:53:28Z</time></trkpt>
<trkpt lat="48.921234130859" lon="2.6603507995605"><ele>118</ele><time>2026-4-30T18:53:31Z</time></trkpt>
<trkpt lat="48.921169281006" lon="2.6603331565857"><ele>118</ele><time>2026-4-30T18:53:34Z</time></trkpt>
<trkpt lat="48.921100616455" lon="2.6603164672852"><ele>118</ele><time>2026-4-30T18:53:37Z</time></trkpt>
<trkpt lat="48.921028137207" lon="2.6602985858917"><ele>118</ele><time>2026-4-30T18:53:40Z</time></trkpt>
<trkpt lat="48.920955657959" lon="2.6602799892426"><ele>118</ele><time>2026-4-30T18:53:43Z</time></trkpt>
<trkpt lat="48.920879364014" lon="2.6602630615234"><ele>118</ele><time>2026-4-30T18:53:46Z</time></trkpt>
<trkpt lat="48.920803070068" lon="2.6602454185486"><ele>118</ele><time>2026-4-30T18:53:49Z</time></trkpt>
<trkpt lat="48.920734405518" lon="2.6602318286896"><ele>118</ele><time>2026-4-30T18:53:52Z</time></trkpt>
<trkpt lat="48.920669555664" lon="2.6602256298065"><ele>118</ele><time>2026-4-30T18:53:55Z</time></trkpt>
<trkpt lat="48.920589447021" lon="2.6602227687836"><ele>118</ele><time>2026-4-30T18:53:58Z</time></trkpt>
<trkpt lat="48.920516967773" lon="2.660219669342"><ele>118</ele><time>2026-4-30T18:54:1Z</time></trkpt>
<trkpt lat="48.920433044434" lon="2.6602280139923"><ele>118</ele><time>2026-4-30T18:54:4Z</time></trkpt>
<trkpt lat="48.920352935791" lon="2.6602458953857"><ele>118</ele><time>2026-4-30T18:54:7Z</time></trkpt>
<trkpt lat="48.920272827148" lon="2.6602711677551"><ele>118</ele><time>2026-4-30T18:54:10Z</time></trkpt>
<trkpt lat="48.920192718506" lon="2.6602988243103"><ele>118</ele><time>2026-4-30T18:54:13Z</time></trkpt>
<trkpt lat="48.920104980469" lon="2.6603229045868"><ele>118</ele><time>2026-4-30T18:54:16Z</time></trkpt>
<trkpt lat="48.920013427734" lon="2.6603484153748"><ele>117</ele><time>2026-4-30T18:54:19Z</time></trkpt>
<trkpt lat="48.919929504395" lon="2.6603727340698"><ele>118</ele><time>2026-4-30T18:54:22Z</time></trkpt>
<trkpt lat="48.919857025146" lon="2.660392999649"><ele>118</ele><time>2026-4-30T18:54:25Z</time></trkpt>
<trkpt lat="48.919788360596" lon="2.6604092121124"><ele>118</ele><time>2026-4-30T18:54:28Z</time></trkpt>
<trkpt lat="48.919708251953" lon="2.6604206562042"><ele>118</ele><time>2026-4-30T18:54:31Z</time></trkpt>
<trkpt lat="48.919628143311" lon="2.6604301929474"><ele>118</ele><time>2026-4-30T18:54:34Z</time></trkpt>
<trkpt lat="48.919548034668" lon="2.6604318618774"><ele>119</ele><time>2026-4-30T18:54:37Z</time></trkpt>
<trkpt lat="48.91947555542" lon="2.6604204177856"><ele>119</ele><time>2026-4-30T18:54:40Z</time></trkpt>
<trkpt lat="48.919395446777" lon="2.6603875160217"><ele>119</ele><time>2026-4-30T18:54:43Z</time></trkpt>
<trkpt lat="48.919326782227" lon="2.6603498458862"><ele>119</ele><time>2026-4-30T18:54:46Z</time></trkpt>
<trkpt lat="48.919258117676" lon="2.6603116989136"><ele>119</ele><time>2026-4-30T18:54:49Z</time></trkpt>
<trkpt lat="48.919174194336" lon="2.6602709293365"><ele>119</ele><time>2026-4-30T18:54:52Z</time></trkpt>
<trkpt lat="48.919090270996" lon="2.6602282524109"><ele>119</ele><time>2026-4-30T18:54:55Z</time></trkpt>
<trkpt lat="48.919002532959" lon="2.660178899765"><ele>119</ele><time>2026-4-30T18:54:58Z</time></trkpt>
<trkpt lat="48.918926239014" lon="2.6601324081421"><ele>119</ele><time>2026-4-30T18:55:1Z</time></trkpt>
<trkpt lat="48.918830871582" lon="2.6600847244263"><ele>119</ele><time>2026-4-30T18:55:4Z</time></trkpt>
<trkpt lat="48.918754577637" lon="2.6600501537323"><ele>119</ele><time>2026-4-30T18:55:7Z</time></trkpt>
<trkpt lat="48.918682098389" lon="2.6600179672241"><ele>119</ele><time>2026-4-30T18:55:10Z</time></trkpt>
<trkpt lat="48.918605804443" lon="2.65998005867"><ele>119</ele><time>2026-4-30T18:55:13Z</time></trkpt>
<trkpt lat="48.918533325195" lon="2.6599218845367"><ele>119</ele><time>2026-4-30T18:55:16Z</time></trkpt>
<trkpt lat="48.918476104736" lon="2.6598608493805"><ele>118</ele><time>2026-4-30T18:55:19Z</time></trkpt>
<trkpt lat="48.91841506958" lon="2.6598229408264"><ele>118</ele><time>2026-4-30T18:55:22Z</time></trkpt>
<trkpt lat="48.918354034424" lon="2.6597967147827"><ele>118</ele><time>2026-4-30T18:55:25Z</time></trkpt>
<trkpt lat="48.918292999268" lon="2.6598372459412"><ele>118</ele><time>2026-4-30T18:55:28Z</time></trkpt>
<trkpt lat="48.918251037598" lon="2.6598937511444"><ele>119</ele><time>2026-4-30T18:55:31Z</time></trkpt>
<trkpt lat="48.918251037598" lon="2.6598937511444"><ele>119</ele><time>2026-4-30T18:55:34Z</time></trkpt>
<trkpt lat="48.918216705322" lon="2.6600487232208"><ele>120</ele><time>2026-4-30T18:55:37Z</time></trkpt>
<trkpt lat="48.918197631836" lon="2.6601593494415"><ele>120</ele><time>2026-4-30T18:55:40Z</time></trkpt>
<trkpt lat="48.918170928955" lon="2.6602749824524"><ele>121</ele><time>2026-4-30T18:55:43Z</time></trkpt>
<trkpt lat="48.918132781982" lon="2.6603972911835"><ele>122</ele><time>2026-4-30T18:55:46Z</time></trkpt>
<trkpt lat="48.918098449707" lon="2.660534620285"><ele>123</ele><time>2026-4-30T18:55:49Z</time></trkpt>
<trkpt lat="48.918056488037" lon="2.6606662273407"><ele>124</ele><time>2026-4-30T18:55:52Z</time></trkpt>
<trkpt lat="48.918014526367" lon="2.6607849597931"><ele>125</ele><time>2026-4-30T18:55:55Z</time></trkpt>
<trkpt lat="48.917980194092" lon="2.6608920097351"><ele>125</ele><time>2026-4-30T18:55:58Z</time></trkpt>
<trkpt lat="48.917934417725" lon="2.6609907150269"><ele>126</ele><time>2026-4-30T18:56:1Z</time></trkpt>
<trkpt lat="48.917881011963" lon="2.6610908508301"><ele>126</ele><time>2026-4-30T18:56:4Z</time></trkpt>
<trkpt lat="48.917831420898" lon="2.6611742973328"><ele>127</ele><time>2026-4-30T18:56:7Z</time></trkpt>
<trkpt lat="48.917789459229" lon="2.6612458229065"><ele>127</ele><time>2026-4-30T18:56:10Z</time></trkpt>
<trkpt lat="48.917739868164" lon="2.6613254547119"><ele>128</ele><time>2026-4-30T18:56:13Z</time></trkpt>
<trkpt lat="48.917678833008" lon="2.6614036560059"><ele>128</ele><time>2026-4-30T18:56:16Z</time></trkpt>
<trkpt lat="48.917621612549" lon="2.6614696979523"><ele>128</ele><time>2026-4-30T18:56:19Z</time></trkpt>
<trkpt lat="48.917568206787" lon="2.6615259647369"><ele>128</ele><time>2026-4-30T18:56:22Z</time></trkpt>
<trkpt lat="48.917568206787" lon="2.6615259647369"><ele>128</ele><time>2026-4-30T18:56:25Z</time></trkpt>
<trkpt lat="48.917491912842" lon="2.6616387367249"><ele>129</ele><time>2026-4-30T18:56:28Z</time></trkpt>
<trkpt lat="48.917446136475" lon="2.6617026329041"><ele>129</ele><time>2026-4-30T18:56:31Z</time></trkpt>
<trkpt lat="48.917400360107" lon="2.6617574691772"><ele>129</ele><time>2026-4-30T18:56:34Z</time></trkpt>
<trkpt lat="48.917358398438" lon="2.6618168354034"><ele>129</ele><time>2026-4-30T18:56:37Z</time></trkpt>
<trkpt lat="48.917308807373" lon="2.6618895530701"><ele>129</ele><time>2026-4-30T18:56:40Z</time></trkpt>
<trkpt lat="48.917263031006" lon="2.6619539260864"><ele>129</ele><time>2026-4-30T18:56:43Z</time></trkpt>
<trkpt lat="48.917213439941" lon="2.6620302200317"><ele>129</ele><time>2026-4-30T18:56:46Z</time></trkpt>
<trkpt lat="48.917163848877" lon="2.6621036529541"><ele>129</ele><time>2026-4-30T18:56:49Z</time></trkpt>
<trkpt lat="48.917163848877" lon="2.6621036529541"><ele>129</ele><time>2026-4-30T18:56:52Z</time></trkpt>
<trkpt lat="48.917098999023" lon="2.6622352600098"><ele>130</ele><time>2026-4-30T18:56:55Z</time></trkpt>
<trkpt lat="48.917057037354" lon="2.6623182296753"><ele>130</ele><time>2026-4-30T18:56:58Z</time></trkpt>
<trkpt lat="48.917011260986" lon="2.6624071598053"><ele>130</ele><time>2026-4-30T18:57:1Z</time></trkpt>
<trkpt lat="48.916969299316" lon="2.6624791622162"><ele>130</ele><time>2026-4-30T18:57:4Z</time></trkpt>
<trkpt lat="48.916904449463" lon="2.6626038551331"><ele>130</ele><time>2026-4-30T18:57:7Z</time></trkpt>
<trkpt lat="48.916904449463" lon="2.6626038551331"><ele>130</ele><time>2026-4-30T18:57:10Z</time></trkpt>
<trkpt lat="48.916835784912" lon="2.6627402305603"><ele>131</ele><time>2026-4-30T18:57:13Z</time></trkpt>
<trkpt lat="48.916786193848" lon="2.6628246307373"><ele>131</ele><time>2026-4-30T18:57:16Z</time></trkpt>
<trkpt lat="48.916732788086" lon="2.6629054546356"><ele>131</ele><time>2026-4-30T18:57:19Z</time></trkpt>
<trkpt lat="48.916683197021" lon="2.6629791259766"><ele>131</ele><time>2026-4-30T18:57:22Z</time></trkpt>
<trkpt lat="48.916633605957" lon="2.6630430221558"><ele>131</ele><time>2026-4-30T18:57:25Z</time></trkpt>
<trkpt lat="48.91658782959" lon="2.6630983352661"><ele>131</ele><time>2026-4-30T18:57:28Z</time></trkpt>
<trkpt lat="48.91658782959" lon="2.6630983352661"><ele>131</ele><time>2026-4-30T18:57:31Z</time></trkpt>
<trkpt lat="48.916496276855" lon="2.663206577301"><ele>131</ele><time>2026-4-30T18:57:34Z</time></trkpt>
<trkpt lat="48.916450500488" lon="2.663272857666"><ele>131</ele><time>2026-4-30T18:57:37Z</time></trkpt>
<trkpt lat="48.916412353516" lon="2.6633329391479"><ele>131</ele><time>2026-4-30T18:57:40Z</time></trkpt>
<trkpt lat="48.916358947754" lon="2.6634042263031"><ele>131</ele><time>2026-4-30T18:57:43Z</time></trkpt>
<trkpt lat="48.916316986084" lon="2.663458108902"><ele>131</ele><time>2026-4-30T18:57:46Z</time></trkpt>
<trkpt lat="48.916263580322" lon="2.6635119915009"><ele>130</ele><time>2026-4-30T18:57:49Z</time></trkpt>
<trkpt lat="48.916263580322" lon="2.6635119915009"><ele>130</ele><time>2026-4-30T18:57:52Z</time></trkpt>
<trkpt lat="48.916168212891" lon="2.663610458374"><ele>130</ele><time>2026-4-30T18:57:55Z</time></trkpt>
<trkpt lat="48.916069030762" lon="2.6636824607849"><ele>130</ele><time>2026-4-30T18:57:58Z</time></trkpt>
<trkpt lat="48.916011810303" lon="2.6637308597565"><ele>129</ele><time>2026-4-30T18:58:1Z</time></trkpt>
<trkpt lat="48.915935516357" lon="2.6637926101685"><ele>129</ele><time>2026-4-30T18:58:4Z</time></trkpt>
<trkpt lat="48.915855407715" lon="2.6638503074646"><ele>129</ele><time>2026-4-30T18:58:7Z</time></trkpt>
<trkpt lat="48.915782928467" lon="2.6639039516449"><ele>128</ele><time>2026-4-30T18:58:10Z</time></trkpt>
<trkpt lat="48.915725708008" lon="2.6639482975006"><ele>128</ele><time>2026-4-30T18:58:13Z</time></trkpt>
<trkpt lat="48.915657043457" lon="2.6639981269836"><ele>128</ele><time>2026-4-30T18:58:16Z</time></trkpt>
<trkpt lat="48.915592193604" lon="2.6640467643738"><ele>127</ele><time>2026-4-30T18:58:19Z</time></trkpt>
<trkpt lat="48.915542602539" lon="2.6640882492065"><ele>127</ele><time>2026-4-30T18:58:22Z</time></trkpt>
<trkpt lat="48.915481567383" lon="2.6641368865967"><ele>127</ele><time>2026-4-30T18:58:25Z</time></trkpt>
<trkpt lat="48.915420532227" lon="2.6641821861267"><ele>127</ele><time>2026-4-30T18:58:28Z</time></trkpt>
<trkpt lat="48.91535949707" lon="2.6642289161682"><ele>127</ele><time>2026-4-30T18:58:31Z</time></trkpt>
<trkpt lat="48.915294647217" lon="2.6642832756042"><ele>127</ele><time>2026-4-30T18:58:34Z</time></trkpt>
<trkpt lat="48.915225982666" lon="2.6643385887146"><ele>127</ele><time>2026-4-30T18:58:37Z</time></trkpt>
<trkpt lat="48.915161132812" lon="2.6643929481506"><ele>127</ele><time>2026-4-30T18:58:40Z</time></trkpt>
<trkpt lat="48.915111541748" lon="2.6644413471222"><ele>127</ele><time>2026-4-30T18:58:43Z</time></trkpt>
<trkpt lat="48.915111541748" lon="2.6644413471222"><ele>127</ele><time>2026-4-30T18:58:46Z</time></trkpt>
<trkpt lat="48.915019989014" lon="2.664511680603"><ele>127</ele><time>2026-4-30T18:58:49Z</time></trkpt>
<trkpt lat="48.914970397949" lon="2.664558172226"><ele>127</ele><time>2026-4-30T18:58:52Z</time></trkpt>
<trkpt lat="48.914970397949" lon="2.664558172226"><ele>127</ele><time>2026-4-30T18:58:55Z</time></trkpt>
<trkpt lat="48.914916992188" lon="2.6646206378937"><ele>127</ele><time>2026-4-30T18:58:58Z</time></trkpt>
<trkpt lat="48.914989471436" lon="2.6645340919495"><ele>127</ele><time>2026-4-30T18:59:1Z</time></trkpt>
<trkpt lat="48.915035247803" lon="2.6644763946533"><ele>126</ele><time>2026-4-30T18:59:4Z</time></trkpt>
<trkpt lat="48.915077209473" lon="2.6644032001495"><ele>126</ele><time>2026-4-30T18:59:7Z</time></trkpt>
<trkpt lat="48.915077209473" lon="2.6644032001495"><ele>126</ele><time>2026-4-30T18:59:10Z</time></trkpt>
<trkpt lat="48.915077209473" lon="2.6644032001495"><ele>126</ele><time>2026-4-30T18:59:13Z</time></trkpt>
<trkpt lat="48.915077209473" lon="2.6644032001495"><ele>126</ele><time>2026-4-30T18:59:16Z</time></trkpt>
<trkpt lat="48.915077209473" lon="2.6644032001495"><ele>126</ele><time>2026-4-30T18:59:19Z</time></trkpt>
<trkpt lat="48.915077209473" lon="2.6644032001495"><ele>126</ele><time>2026-4-30T18:59:22Z</time></trkpt>
<trkpt lat="48.915012359619" lon="2.6644921302795"><ele>126</ele><time>2026-4-30T18:59:25Z</time></trkpt>
<trkpt lat="48.914951324463" lon="2.6645565032959"><ele>127</ele><time>2026-4-30T18:59:28Z</time></trkpt>
<trkpt lat="48.914897918701" lon="2.6646144390106"><ele>127</ele><time>2026-4-30T18:59:31Z</time></trkpt>
<trkpt lat="48.914840698242" lon="2.6646666526794"><ele>127</ele><time>2026-4-30T18:59:34Z</time></trkpt>
<trkpt lat="48.91478729248" lon="2.6647198200226"><ele>127</ele><time>2026-4-30T18:59:37Z</time></trkpt>
<trkpt lat="48.914684295654" lon="2.6648283004761"><ele>128</ele><time>2026-4-30T18:59:40Z</time></trkpt>
<trkpt lat="48.914611816406" lon="2.6649377346039"><ele>129</ele><time>2026-4-30T18:59:43Z</time></trkpt>
<trkpt lat="48.914566040039" lon="2.6649935245514"><ele>129</ele><time>2026-4-30T18:59:46Z</time></trkpt>
<trkpt lat="48.914520263672" lon="2.665052652359"><ele>130</ele><time>2026-4-30T18:59:49Z</time></trkpt>
<trkpt lat="48.914451599121" lon="2.6651549339294"><ele>130</ele><time>2026-4-30T18:59:52Z</time></trkpt>
<trkpt lat="48.914405822754" lon="2.6652131080627"><ele>130</ele><time>2026-4-30T18:59:55Z</time></trkpt>
<trkpt lat="48.914360046387" lon="2.6652717590332"><ele>130</ele><time>2026-4-30T18:59:58Z</time></trkpt>
<trkpt lat="48.914310455322" lon="2.6653211116791"><ele>130</ele><time>2026-4-30T19:0:1Z</time></trkpt>
<trkpt lat="48.914253234863" lon="2.6653692722321"><ele>131</ele><time>2026-4-30T19:0:4Z</time></trkpt>
<trkpt lat="48.914199829102" lon="2.6654150485992"><ele>131</ele><time>2026-4-30T19:0:7Z</time></trkpt>
<trkpt lat="48.914119720459" lon="2.6654403209686"><ele>130</ele><time>2026-4-30T19:0:10Z</time></trkpt>
<trkpt lat="48.914119720459" lon="2.6654403209686"><ele>130</ele><time>2026-4-30T19:0:13Z</time></trkpt>
<trkpt lat="48.914093017578" lon="2.6653060913086"><ele>130</ele><time>2026-4-30T19:0:16Z</time></trkpt>
<trkpt lat="48.914073944092" lon="2.6652071475983"><ele>129</ele><time>2026-4-30T19:0:19Z</time></trkpt>
<trkpt lat="48.914058685303" lon="2.6650857925415"><ele>128</ele><time>2026-4-30T19:0:22Z</time></trkpt>
<trkpt lat="48.914043426514" lon="2.6649544239044"><ele>127</ele><time>2026-4-30T19:0:25Z</time></trkpt>
<trkpt lat="48.914024353027" lon="2.664831161499"><ele>126</ele><time>2026-4-30T19:0:28Z</time></trkpt>
<trkpt lat="48.914009094238" lon="2.6647307872772"><ele>125</ele><time>2026-4-30T19:0:31Z</time></trkpt>
<trkpt lat="48.913982391357" lon="2.6646249294281"><ele>123</ele><time>2026-4-30T19:0:34Z</time></trkpt>
<trkpt lat="48.913967132568" lon="2.6645247936249"><ele>122</ele><time>2026-4-30T19:0:37Z</time></trkpt>
<trkpt lat="48.913940429688" lon="2.6643853187561"><ele>120</ele><time>2026-4-30T19:0:40Z</time></trkpt>
<trkpt lat="48.913913726807" lon="2.6642363071442"><ele>119</ele><time>2026-4-30T19:0:43Z</time></trkpt>
<trkpt lat="48.913898468018" lon="2.6641058921814"><ele>117</ele><time>2026-4-30T19:0:46Z</time></trkpt>
<trkpt lat="48.913887023926" lon="2.6639487743378"><ele>115</ele><time>2026-4-30T19:0:49Z</time></trkpt>
<trkpt lat="48.913879394531" lon="2.6637756824493"><ele>113</ele><time>2026-4-30T19:0:52Z</time></trkpt>
<trkpt lat="48.913856506348" lon="2.6635627746582"><ele>110</ele><time>2026-4-30T19:0:55Z</time></trkpt>
<trkpt lat="48.91382598877" lon="2.6633591651917"><ele>108</ele><time>2026-4-30T19:0:58Z</time></trkpt>
<trkpt lat="48.913791656494" lon="2.6631734371185"><ele>106</ele><time>2026-4-30T19:1:1Z</time></trkpt>
<trkpt lat="48.913780212402" lon="2.6630187034607"><ele>104</ele><time>2026-4-30T19:1:4Z</time></trkpt>
<trkpt lat="48.9137840271" lon="2.6628539562225"><ele>102</ele><time>2026-4-30T19:1:7Z</time></trkpt>
<trkpt lat="48.913787841797" lon="2.6626896858215"><ele>101</ele><time>2026-4-30T19:1:10Z</time></trkpt>
<trkpt lat="48.913768768311" lon="2.6625571250916"><ele>99</ele><time>2026-4-30T19:1:13Z</time></trkpt>
<trkpt lat="48.913722991943" lon="2.6624264717102"><ele>98</ele><time>2026-4-30T19:1:16Z</time></trkpt>
<trkpt lat="48.913681030273" lon="2.6622564792633"><ele>97</ele><time>2026-4-30T19:1:19Z</time></trkpt>
<trkpt lat="48.913673400879" lon="2.662109375"><ele>96</ele><time>2026-4-30T19:1:22Z</time></trkpt>
<trkpt lat="48.913692474365" lon="2.6619713306427"><ele>96</ele><time>2026-4-30T19:1:25Z</time></trkpt>
<trkpt lat="48.91370010376" lon="2.6618058681488"><ele>95</ele><time>2026-4-30T19:1:28Z</time></trkpt>
<trkpt lat="48.913692474365" lon="2.6616251468658"><ele>94</ele><time>2026-4-30T19:1:31Z</time></trkpt>
<trkpt lat="48.913677215576" lon="2.6614742279053"><ele>93</ele><time>2026-4-30T19:1:34Z</time></trkpt>
<trkpt lat="48.913669586182" lon="2.6613786220551"><ele>93</ele><time>2026-4-30T19:1:37Z</time></trkpt>
<trkpt lat="48.913669586182" lon="2.6613786220551"><ele>93</ele><time>2026-4-30T19:1:40Z</time></trkpt>
<trkpt lat="48.913669586182" lon="2.6613786220551"><ele>93</ele><time>2026-4-30T19:1:43Z</time></trkpt>
<trkpt lat="48.913669586182" lon="2.6613786220551"><ele>93</ele><time>2026-4-30T19:1:46Z</time></trkpt>
<trkpt lat="48.913669586182" lon="2.6613786220551"><ele>93</ele><time>2026-4-30T19:1:49Z</time></trkpt>
<trkpt lat="48.913669586182" lon="2.6613786220551"><ele>93</ele><time>2026-4-30T19:1:52Z</time></trkpt>
<trkpt lat="48.913623809814" lon="2.6609213352203"><ele>90</ele><time>2026-4-30T19:1:55Z</time></trkpt>
<trkpt lat="48.913608551025" lon="2.6607987880707"><ele>90</ele><time>2026-4-30T19:1:58Z</time></trkpt>
<trkpt lat="48.913597106934" lon="2.6606674194336"><ele>89</ele><time>2026-4-30T19:2:1Z</time></trkpt>
<trkpt lat="48.913589477539" lon="2.660548210144"><ele>89</ele><time>2026-4-30T19:2:4Z</time></trkpt>
<trkpt lat="48.913589477539" lon="2.6604242324829"><ele>88</ele><time>2026-4-30T19:2:7Z</time></trkpt>
<trkpt lat="48.913612365723" lon="2.6602704524994"><ele>88</ele><time>2026-4-30T19:2:10Z</time></trkpt>
<trkpt lat="48.913650512695" lon="2.6601150035858"><ele>87</ele><time>2026-4-30T19:2:13Z</time></trkpt>
<trkpt lat="48.913684844971" lon="2.6599822044373"><ele>87</ele><time>2026-4-30T19:2:16Z</time></trkpt>
<trkpt lat="48.913715362549" lon="2.6598608493805"><ele>88</ele><time>2026-4-30T19:2:19Z</time></trkpt>
<trkpt lat="48.913745880127" lon="2.6597678661346"><ele>88</ele><time>2026-4-30T19:2:22Z</time></trkpt>
<trkpt lat="48.913772583008" lon="2.6596841812134"><ele>89</ele><time>2026-4-30T19:2:25Z</time></trkpt>
<trkpt lat="48.913791656494" lon="2.6595966815948"><ele>89</ele><time>2026-4-30T19:2:28Z</time></trkpt>
<trkpt lat="48.913806915283" lon="2.659478187561"><ele>90</ele><time>2026-4-30T19:2:31Z</time></trkpt>
<trkpt lat="48.91382598877" lon="2.6593637466431"><ele>90</ele><time>2026-4-30T19:2:34Z</time></trkpt>
<trkpt lat="48.913848876953" lon="2.659250497818"><ele>91</ele><time>2026-4-30T19:2:37Z</time></trkpt>
<trkpt lat="48.913875579834" lon="2.6591203212738"><ele>91</ele><time>2026-4-30T19:2:40Z</time></trkpt>
<trkpt lat="48.913887023926" lon="2.659027338028"><ele>92</ele><time>2026-4-30T19:2:43Z</time></trkpt>
<trkpt lat="48.913890838623" lon="2.6589353084564"><ele>92</ele><time>2026-4-30T19:2:46Z</time></trkpt>
<trkpt lat="48.913890838623" lon="2.6589353084564"><ele>92</ele><time>2026-4-30T19:2:49Z</time></trkpt>
<trkpt lat="48.913837432861" lon="2.658712387085"><ele>93</ele><time>2026-4-30T19:2:52Z</time></trkpt>
<trkpt lat="48.913776397705" lon="2.658614397049"><ele>93</ele><time>2026-4-30T19:2:55Z</time></trkpt>
<trkpt lat="48.913726806641" lon="2.6585638523102"><ele>93</ele><time>2026-4-30T19:2:58Z</time></trkpt>
<trkpt lat="48.913673400879" lon="2.658519744873"><ele>93</ele><time>2026-4-30T19:3:1Z</time></trkpt>
<trkpt lat="48.913612365723" lon="2.6584770679474"><ele>93</ele><time>2026-4-30T19:3:4Z</time></trkpt>
<trkpt lat="48.913547515869" lon="2.658439874649"><ele>93</ele><time>2026-4-30T19:3:7Z</time></trkpt>
<trkpt lat="48.913459777832" lon="2.6584227085114"><ele>92</ele><time>2026-4-30T19:3:10Z</time></trkpt>
<trkpt lat="48.91333770752" lon="2.6584048271179"><ele>92</ele><time>2026-4-30T19:3:13Z</time></trkpt>
<trkpt lat="48.913215637207" lon="2.6583776473999"><ele>91</ele><time>2026-4-30T19:3:16Z</time></trkpt>
<trkpt lat="48.913074493408" lon="2.658344745636"><ele>90</ele><time>2026-4-30T19:3:19Z</time></trkpt>
<trkpt lat="48.912940979004" lon="2.6583111286163"><ele>90</ele><time>2026-4-30T19:3:22Z</time></trkpt>
<trkpt lat="48.912803649902" lon="2.6582703590393"><ele>89</ele><time>2026-4-30T19:3:25Z</time></trkpt>
<trkpt lat="48.912647247314" lon="2.6582229137421"><ele>88</ele><time>2026-4-30T19:3:28Z</time></trkpt>
<trkpt lat="48.912494659424" lon="2.6581709384918"><ele>88</ele><time>2026-4-30T19:3:31Z</time></trkpt>
<trkpt lat="48.912338256836" lon="2.6581146717072"><ele>87</ele><time>2026-4-30T19:3:34Z</time></trkpt>
<trkpt lat="48.912158966064" lon="2.6580471992493"><ele>86</ele><time>2026-4-30T19:3:37Z</time></trkpt>
<trkpt lat="48.912006378174" lon="2.6579926013947"><ele>86</ele><time>2026-4-30T19:3:40Z</time></trkpt>
<trkpt lat="48.911838531494" lon="2.6579487323761"><ele>85</ele><time>2026-4-30T19:3:43Z</time></trkpt>
<trkpt lat="48.911666870117" lon="2.6579329967499"><ele>84</ele><time>2026-4-30T19:3:46Z</time></trkpt>
<trkpt lat="48.91149520874" lon="2.6579411029816"><ele>83</ele><time>2026-4-30T19:3:49Z</time></trkpt>
<trkpt lat="48.911327362061" lon="2.6579601764679"><ele>83</ele><time>2026-4-30T19:3:52Z</time></trkpt>
<trkpt lat="48.911151885986" lon="2.657954454422"><ele>82</ele><time>2026-4-30T19:3:55Z</time></trkpt>
<trkpt lat="48.910991668701" lon="2.6578869819641"><ele>82</ele><time>2026-4-30T19:3:58Z</time></trkpt>
<trkpt lat="48.910846710205" lon="2.6577785015106"><ele>82</ele><time>2026-4-30T19:4:1Z</time></trkpt>
<trkpt lat="48.910717010498" lon="2.6576540470123"><ele>82</ele><time>2026-4-30T19:4:4Z</time></trkpt>
<trkpt lat="48.910591125488" lon="2.6575214862823"><ele>82</ele><time>2026-4-30T19:4:7Z</time></trkpt>
<trkpt lat="48.910465240479" lon="2.6573812961578"><ele>81</ele><time>2026-4-30T19:4:10Z</time></trkpt>
<trkpt lat="48.910346984863" lon="2.6572453975677"><ele>81</ele><time>2026-4-30T19:4:13Z</time></trkpt>
<trkpt lat="48.910221099854" lon="2.657107591629"><ele>81</ele><time>2026-4-30T19:4:16Z</time></trkpt>
<trkpt lat="48.910106658936" lon="2.6569809913635"><ele>81</ele><time>2026-4-30T19:4:19Z</time></trkpt>
<trkpt lat="48.909984588623" lon="2.6568555831909"><ele>80</ele><time>2026-4-30T19:4:22Z</time></trkpt>
<trkpt lat="48.909866333008" lon="2.6567275524139"><ele>80</ele><time>2026-4-30T19:4:25Z</time></trkpt>
<trkpt lat="48.909748077393" lon="2.6565985679626"><ele>80</ele><time>2026-4-30T19:4:28Z</time></trkpt>
<trkpt lat="48.90962600708" lon="2.6564745903015"><ele>79</ele><time>2026-4-30T19:4:31Z</time></trkpt>
<trkpt lat="48.909496307373" lon="2.6563513278961"><ele>78</ele><time>2026-4-30T19:4:34Z</time></trkpt>
<trkpt lat="48.909366607666" lon="2.6562373638153"><ele>77</ele><time>2026-4-30T19:4:37Z</time></trkpt>
<trkpt lat="48.909233093262" lon="2.6561365127563"><ele>76</ele><time>2026-4-30T19:4:40Z</time></trkpt>
<trkpt lat="48.909069061279" lon="2.6560380458832"><ele>75</ele><time>2026-4-30T19:4:43Z</time></trkpt>
<trkpt lat="48.908908843994" lon="2.6559588909149"><ele>74</ele><time>2026-4-30T19:4:46Z</time></trkpt>
<trkpt lat="48.908756256104" lon="2.6558952331543"><ele>74</ele><time>2026-4-30T19:4:49Z</time></trkpt>
<trkpt lat="48.908611297607" lon="2.6558423042297"><ele>73</ele><time>2026-4-30T19:4:52Z</time></trkpt>
<trkpt lat="48.908473968506" lon="2.6557884216309"><ele>72</ele><time>2026-4-30T19:4:55Z</time></trkpt>
<trkpt lat="48.908348083496" lon="2.6557335853577"><ele>72</ele><time>2026-4-30T19:4:58Z</time></trkpt>
<trkpt lat="48.908226013184" lon="2.6556830406189"><ele>72</ele><time>2026-4-30T19:5:1Z</time></trkpt>
<trkpt lat="48.908134460449" lon="2.6556391716003"><ele>71</ele><time>2026-4-30T19:5:4Z</time></trkpt>
<trkpt lat="48.908081054688" lon="2.6556115150452"><ele>71</ele><time>2026-4-30T19:5:7Z</time></trkpt>
<trkpt lat="48.908081054688" lon="2.6556115150452"><ele>71</ele><time>2026-4-30T19:5:10Z</time></trkpt>
<trkpt lat="48.90803527832" lon="2.6555552482605"><ele>71</ele><time>2026-4-30T19:5:13Z</time></trkpt>
<trkpt lat="48.90803527832" lon="2.6555552482605"><ele>71</ele><time>2026-4-30T19:5:16Z</time></trkpt>
<trkpt lat="48.90795135498" lon="2.6555106639862"><ele>71</ele><time>2026-4-30T19:5:19Z</time></trkpt>
<trkpt lat="48.907829284668" lon="2.655508518219"><ele>71</ele><time>2026-4-30T19:5:22Z</time></trkpt>
<trkpt lat="48.907741546631" lon="2.6554889678955"><ele>71</ele><time>2026-4-30T19:5:25Z</time></trkpt>
<trkpt lat="48.907646179199" lon="2.655463218689"><ele>70</ele><time>2026-4-30T19:5:28Z</time></trkpt>
<trkpt lat="48.907566070557" lon="2.6554253101349"><ele>70</ele><time>2026-4-30T19:5:31Z</time></trkpt>
<trkpt lat="48.907485961914" lon="2.6553711891174"><ele>70</ele><time>2026-4-30T19:5:34Z</time></trkpt>
<trkpt lat="48.907386779785" lon="2.6553132534027"><ele>70</ele><time>2026-4-30T19:5:37Z</time></trkpt>
<trkpt lat="48.907283782959" lon="2.6552546024323"><ele>69</ele><time>2026-4-30T19:5:40Z</time></trkpt>
<trkpt lat="48.907165527344" lon="2.6551864147186"><ele>69</ele><time>2026-4-30T19:5:43Z</time></trkpt>
<trkpt lat="48.907039642334" lon="2.6551089286804"><ele>69</ele><time>2026-4-30T19:5:46Z</time></trkpt>
<trkpt lat="48.906917572021" lon="2.6550226211548"><ele>68</ele><time>2026-4-30T19:5:49Z</time></trkpt>
<trkpt lat="48.906799316406" lon="2.6549353599548"><ele>68</ele><time>2026-4-30T19:5:52Z</time></trkpt>
<trkpt lat="48.906688690186" lon="2.6548504829407"><ele>68</ele><time>2026-4-30T19:5:55Z</time></trkpt>
<trkpt lat="48.906558990479" lon="2.6547439098358"><ele>68</ele><time>2026-4-30T19:5:58Z</time></trkpt>
<trkpt lat="48.906433105469" lon="2.6546225547791"><ele>68</ele><time>2026-4-30T19:6:1Z</time></trkpt>
<trkpt lat="48.906314849854" lon="2.6545038223267"><ele>68</ele><time>2026-4-30T19:6:4Z</time></trkpt>
<trkpt lat="48.906192779541" lon="2.6543836593628"><ele>68</ele><time>2026-4-30T19:6:7Z</time></trkpt>
<trkpt lat="48.906070709229" lon="2.6542530059814"><ele>68</ele><time>2026-4-30T19:6:10Z</time></trkpt>
<trkpt lat="48.905944824219" lon="2.6541101932526"><ele>68</ele><time>2026-4-30T19:6:13Z</time></trkpt>
<trkpt lat="48.905826568604" lon="2.6539762020111"><ele>68</ele><time>2026-4-30T19:6:16Z</time></trkpt>
<trkpt lat="48.905712127686" lon="2.6538429260254"><ele>68</ele><time>2026-4-30T19:6:19Z</time></trkpt>
<trkpt lat="48.905597686768" lon="2.6537139415741"><ele>68</ele><time>2026-4-30T19:6:22Z</time></trkpt>
<trkpt lat="48.90548324585" lon="2.6535902023315"><ele>68</ele><time>2026-4-30T19:6:25Z</time></trkpt>
<trkpt lat="48.905376434326" lon="2.6534781455994"><ele>68</ele><time>2026-4-30T19:6:28Z</time></trkpt>
<trkpt lat="48.905261993408" lon="2.6533689498901"><ele>68</ele><time>2026-4-30T19:6:31Z</time></trkpt>
<trkpt lat="48.905151367188" lon="2.6532592773438"><ele>68</ele><time>2026-4-30T19:6:34Z</time></trkpt>
<trkpt lat="48.905040740967" lon="2.6531524658203"><ele>68</ele><time>2026-4-30T19:6:37Z</time></trkpt>
<trkpt lat="48.904937744141" lon="2.6530485153198"><ele>68</ele><time>2026-4-30T19:6:40Z</time></trkpt>
<trkpt lat="48.904834747314" lon="2.6529483795166"><ele>68</ele><time>2026-4-30T19:6:43Z</time></trkpt>
<trkpt lat="48.904735565186" lon="2.6528551578522"><ele>68</ele><time>2026-4-30T19:6:46Z</time></trkpt>
<trkpt lat="48.904628753662" lon="2.6527647972107"><ele>68</ele><time>2026-4-30T19:6:49Z</time></trkpt>
<trkpt lat="48.904521942139" lon="2.6526775360107"><ele>68</ele><time>2026-4-30T19:6:52Z</time></trkpt>
<trkpt lat="48.904411315918" lon="2.6525883674622"><ele>68</ele><time>2026-4-30T19:6:55Z</time></trkpt>
<trkpt lat="48.904304504395" lon="2.6524953842163"><ele>68</ele><time>2026-4-30T19:6:58Z</time></trkpt>
<trkpt lat="48.904201507568" lon="2.6523926258087"><ele>68</ele><time>2026-4-30T19:7:1Z</time></trkpt>
<trkpt lat="48.90408706665" lon="2.6522798538208"><ele>68</ele><time>2026-4-30T19:7:4Z</time></trkpt>
<trkpt lat="48.90397644043" lon="2.652172088623"><ele>68</ele><time>2026-4-30T19:7:7Z</time></trkpt>
<trkpt lat="48.903865814209" lon="2.6520733833313"><ele>68</ele><time>2026-4-30T19:7:10Z</time></trkpt>
<trkpt lat="48.903762817383" lon="2.6519935131073"><ele>68</ele><time>2026-4-30T19:7:13Z</time></trkpt>
<trkpt lat="48.903656005859" lon="2.6518983840942"><ele>68</ele><time>2026-4-30T19:7:16Z</time></trkpt>
<trkpt lat="48.903545379639" lon="2.6517822742462"><ele>68</ele><time>2026-4-30T19:7:19Z</time></trkpt>
<trkpt lat="48.90344619751" lon="2.6516582965851"><ele>68</ele><time>2026-4-30T19:7:22Z</time></trkpt>
<trkpt lat="48.903358459473" lon="2.6515295505524"><ele>68</ele><time>2026-4-30T19:7:25Z</time></trkpt>
<trkpt lat="48.903282165527" lon="2.651403427124"><ele>68</ele><time>2026-4-30T19:7:28Z</time></trkpt>
<trkpt lat="48.903217315674" lon="2.651260137558"><ele>68</ele><time>2026-4-30T19:7:31Z</time></trkpt>
<trkpt lat="48.903160095215" lon="2.6511244773865"><ele>68</ele><time>2026-4-30T19:7:34Z</time></trkpt>
<trkpt lat="48.90311050415" lon="2.6510021686554"><ele>68</ele><time>2026-4-30T19:7:37Z</time></trkpt>
<trkpt lat="48.903057098389" lon="2.6508696079254"><ele>68</ele><time>2026-4-30T19:7:40Z</time></trkpt>
<trkpt lat="48.902992248535" lon="2.650723695755"><ele>68</ele><time>2026-4-30T19:7:43Z</time></trkpt>
<trkpt lat="48.902935028076" lon="2.6506037712097"><ele>67</ele><time>2026-4-30T19:7:46Z</time></trkpt>
<trkpt lat="48.902870178223" lon="2.6504812240601"><ele>67</ele><time>2026-4-30T19:7:49Z</time></trkpt>
<trkpt lat="48.902809143066" lon="2.6503627300262"><ele>67</ele><time>2026-4-30T19:7:52Z</time></trkpt>
<trkpt lat="48.902751922607" lon="2.650239944458"><ele>67</ele><time>2026-4-30T19:7:55Z</time></trkpt>
<trkpt lat="48.902687072754" lon="2.6501116752625"><ele>67</ele><time>2026-4-30T19:7:58Z</time></trkpt>
<trkpt lat="48.902610778809" lon="2.6499805450439"><ele>66</ele><time>2026-4-30T19:8:1Z</time></trkpt>
<trkpt lat="48.902523040771" lon="2.6498379707336"><ele>66</ele><time>2026-4-30T19:8:4Z</time></trkpt>
<trkpt lat="48.902442932129" lon="2.6497356891632"><ele>66</ele><time>2026-4-30T19:8:7Z</time></trkpt>
<trkpt lat="48.902362823486" lon="2.6496458053589"><ele>66</ele><time>2026-4-30T19:8:10Z</time></trkpt>
<trkpt lat="48.902267456055" lon="2.6495518684387"><ele>66</ele><time>2026-4-30T19:8:13Z</time></trkpt>
<trkpt lat="48.902168273926" lon="2.6494586467743"><ele>66</ele><time>2026-4-30T19:8:16Z</time></trkpt>
<trkpt lat="48.902080535889" lon="2.6493825912476"><ele>66</ele><time>2026-4-30T19:8:19Z</time></trkpt>
<trkpt lat="48.901973724365" lon="2.6492915153503"><ele>66</ele><time>2026-4-30T19:8:22Z</time></trkpt>
<trkpt lat="48.90185546875" lon="2.6492013931274"><ele>66</ele><time>2026-4-30T19:8:25Z</time></trkpt>
<trkpt lat="48.901756286621" lon="2.6490964889526"><ele>67</ele><time>2026-4-30T19:8:28Z</time></trkpt>
<trkpt lat="48.901664733887" lon="2.648966550827"><ele>67</ele><time>2026-4-30T19:8:31Z</time></trkpt>
<trkpt lat="48.90157699585" lon="2.6488614082336"><ele>68</ele><time>2026-4-30T19:8:34Z</time></trkpt>
<trkpt lat="48.901496887207" lon="2.6488151550293"><ele>68</ele><time>2026-4-30T19:8:37Z</time></trkpt>
<trkpt lat="48.901496887207" lon="2.6488151550293"><ele>68</ele><time>2026-4-30T19:8:40Z</time></trkpt>
<trkpt lat="48.901496887207" lon="2.6488151550293"><ele>68</ele><time>2026-4-30T19:8:43Z</time></trkpt>
<trkpt lat="48.901378631592" lon="2.6486999988556"><ele>68</ele><time>2026-4-30T19:8:46Z</time></trkpt>
<trkpt lat="48.901294708252" lon="2.6485986709595"><ele>68</ele><time>2026-4-30T19:8:49Z</time></trkpt>
<trkpt lat="48.901176452637" lon="2.6484825611115"><ele>68</ele><time>2026-4-30T19:8:52Z</time></trkpt>
<trkpt lat="48.901062011719" lon="2.6483795642853"><ele>68</ele><time>2026-4-30T19:8:55Z</time></trkpt>
<trkpt lat="48.900939941406" lon="2.6482996940613"><ele>68</ele><time>2026-4-30T19:8:58Z</time></trkpt>
<trkpt lat="48.900814056396" lon="2.6482398509979"><ele>68</ele><time>2026-4-30T19:9:1Z</time></trkpt>
<trkpt lat="48.900684356689" lon="2.6481890678406"><ele>67</ele><time>2026-4-30T19:9:4Z</time></trkpt>
<trkpt lat="48.900554656982" lon="2.6481504440308"><ele>67</ele><time>2026-4-30T19:9:7Z</time></trkpt>
<trkpt lat="48.900421142578" lon="2.6481249332428"><ele>67</ele><time>2026-4-30T19:9:10Z</time></trkpt>
<trkpt lat="48.900283813477" lon="2.6481170654297"><ele>66</ele><time>2026-4-30T19:9:13Z</time></trkpt>
<trkpt lat="48.900142669678" lon="2.6481323242188"><ele>66</ele><time>2026-4-30T19:9:16Z</time></trkpt>
<trkpt lat="48.899990081787" lon="2.6481308937073"><ele>66</ele><time>2026-4-30T19:9:19Z</time></trkpt>
<trkpt lat="48.899829864502" lon="2.6481292247772"><ele>65</ele><time>2026-4-30T19:9:22Z</time></trkpt>
<trkpt lat="48.899669647217" lon="2.648138999939"><ele>64</ele><time>2026-4-30T19:9:25Z</time></trkpt>
<trkpt lat="48.899505615234" lon="2.6481580734253"><ele>63</ele><time>2026-4-30T19:9:28Z</time></trkpt>
<trkpt lat="48.899345397949" lon="2.6481230258942"><ele>62</ele><time>2026-4-30T19:9:31Z</time></trkpt>
<trkpt lat="48.899185180664" lon="2.6480309963226"><ele>61</ele><time>2026-4-30T19:9:34Z</time></trkpt>
<trkpt lat="48.899036407471" lon="2.6479001045227"><ele>60</ele><time>2026-4-30T19:9:37Z</time></trkpt>
<trkpt lat="48.898906707764" lon="2.6477646827698"><ele>59</ele><time>2026-4-30T19:9:40Z</time></trkpt>
<trkpt lat="48.898784637451" lon="2.6476340293884"><ele>58</ele><time>2026-4-30T19:9:43Z</time></trkpt>
<trkpt lat="48.898670196533" lon="2.6475052833557"><ele>57</ele><time>2026-4-30T19:9:46Z</time></trkpt>
<trkpt lat="48.898567199707" lon="2.647376537323"><ele>57</ele><time>2026-4-30T19:9:49Z</time></trkpt>
<trkpt lat="48.898456573486" lon="2.647246837616"><ele>56</ele><time>2026-4-30T19:9:52Z</time></trkpt>
<trkpt lat="48.898345947266" lon="2.647115945816"><ele>56</ele><time>2026-4-30T19:9:55Z</time></trkpt>
<trkpt lat="48.898242950439" lon="2.6470022201538"><ele>56</ele><time>2026-4-30T19:9:58Z</time></trkpt>
<trkpt lat="48.898132324219" lon="2.6468844413757"><ele>56</ele><time>2026-4-30T19:10:1Z</time></trkpt>
<trkpt lat="48.898029327393" lon="2.6467678546906"><ele>56</ele><time>2026-4-30T19:10:4Z</time></trkpt>
<trkpt lat="48.897926330566" lon="2.6466536521912"><ele>57</ele><time>2026-4-30T19:10:7Z</time></trkpt>
<trkpt lat="48.897830963135" lon="2.6465401649475"><ele>58</ele><time>2026-4-30T19:10:10Z</time></trkpt>
<trkpt lat="48.8977394104" lon="2.6464295387268"><ele>60</ele><time>2026-4-30T19:10:13Z</time></trkpt>
<trkpt lat="48.897655487061" lon="2.6463215351105"><ele>61</ele><time>2026-4-30T19:10:16Z</time></trkpt>
<trkpt lat="48.897567749023" lon="2.6462178230286"><ele>62</ele><time>2026-4-30T19:10:19Z</time></trkpt>
<trkpt lat="48.897491455078" lon="2.6461343765259"><ele>63</ele><time>2026-4-30T19:10:22Z</time></trkpt>
<trkpt lat="48.897415161133" lon="2.6460361480713"><ele>64</ele><time>2026-4-30T19:10:25Z</time></trkpt>
<trkpt lat="48.897331237793" lon="2.6459374427795"><ele>64</ele><time>2026-4-30T19:10:28Z</time></trkpt>
<trkpt lat="48.897281646729" lon="2.645872592926"><ele>64</ele><time>2026-4-30T19:10:31Z</time></trkpt>
<trkpt lat="48.897281646729" lon="2.645872592926"><ele>64</ele><time>2026-4-30T19:10:34Z</time></trkpt>
<trkpt lat="48.897281646729" lon="2.645872592926"><ele>64</ele><time>2026-4-30T19:10:37Z</time></trkpt>
<trkpt lat="48.897327423096" lon="2.6460158824921"><ele>63</ele><time>2026-4-30T19:10:40Z</time></trkpt>
<trkpt lat="48.897422790527" lon="2.6461379528046"><ele>63</ele><time>2026-4-30T19:10:43Z</time></trkpt>
<trkpt lat="48.897422790527" lon="2.6461379528046"><ele>63</ele><time>2026-4-30T19:10:46Z</time></trkpt>
<trkpt lat="48.897510528564" lon="2.6461169719696"><ele>63</ele><time>2026-4-30T19:10:49Z</time></trkpt>
<trkpt lat="48.897560119629" lon="2.6460223197937"><ele>63</ele><time>2026-4-30T19:10:52Z</time></trkpt>
<trkpt lat="48.897560119629" lon="2.6460223197937"><ele>63</ele><time>2026-4-30T19:10:55Z</time></trkpt>
<trkpt lat="48.897548675537" lon="2.6458888053894"><ele>64</ele><time>2026-4-30T19:10:58Z</time></trkpt>
<trkpt lat="48.897548675537" lon="2.6458888053894"><ele>64</ele><time>2026-4-30T19:11:1Z</time></trkpt>
<trkpt lat="48.897464752197" lon="2.6457598209381"><ele>65</ele><time>2026-4-30T19:11:4Z</time></trkpt>
<trkpt lat="48.897457122803" lon="2.6456303596497"><ele>65</ele><time>2026-4-30T19:11:7Z</time></trkpt>
<trkpt lat="48.897441864014" lon="2.6455721855164"><ele>65</ele><time>2026-4-30T19:11:10Z</time></trkpt>
<trkpt lat="48.897422790527" lon="2.6455070972443"><ele>65</ele><time>2026-4-30T19:11:13Z</time></trkpt>
<trkpt lat="48.897407531738" lon="2.645446062088"><ele>65</ele><time>2026-4-30T19:11:16Z</time></trkpt>
<trkpt lat="48.897392272949" lon="2.6453840732574"><ele>65</ele><time>2026-4-30T19:11:19Z</time></trkpt>
<trkpt lat="48.897384643555" lon="2.6453192234039"><ele>65</ele><time>2026-4-30T19:11:22Z</time></trkpt>
<trkpt lat="48.897373199463" lon="2.6451950073242"><ele>65</ele><time>2026-4-30T19:11:25Z</time></trkpt>
<trkpt lat="48.897380828857" lon="2.6450364589691"><ele>66</ele><time>2026-4-30T19:11:28Z</time></trkpt>
<trkpt lat="48.897346496582" lon="2.6449000835419"><ele>65</ele><time>2026-4-30T19:11:31Z</time></trkpt>
<trkpt lat="48.897277832031" lon="2.6448309421539"><ele>65</ele><time>2026-4-30T19:11:34Z</time></trkpt>
<trkpt lat="48.897235870361" lon="2.6447467803955"><ele>65</ele><time>2026-4-30T19:11:37Z</time></trkpt>
<trkpt lat="48.897201538086" lon="2.6446077823639"><ele>64</ele><time>2026-4-30T19:11:40Z</time></trkpt>
<trkpt lat="48.897159576416" lon="2.6444356441498"><ele>64</ele><time>2026-4-30T19:11:43Z</time></trkpt>
<trkpt lat="48.897129058838" lon="2.6443529129028"><ele>64</ele><time>2026-4-30T19:11:46Z</time></trkpt>
<trkpt lat="48.897094726562" lon="2.6442761421204"><ele>64</ele><time>2026-4-30T19:11:49Z</time></trkpt>
<trkpt lat="48.897029876709" lon="2.6442255973816"><ele>64</ele><time>2026-4-30T19:11:52Z</time></trkpt>
<trkpt lat="48.896976470947" lon="2.6441793441772"><ele>64</ele><time>2026-4-30T19:11:55Z</time></trkpt>
<trkpt lat="48.896911621094" lon="2.6441130638123"><ele>64</ele><time>2026-4-30T19:11:58Z</time></trkpt>
<trkpt lat="48.89684677124" lon="2.6440424919128"><ele>64</ele><time>2026-4-30T19:12:1Z</time></trkpt>
<trkpt lat="48.896800994873" lon="2.6439464092255"><ele>63</ele><time>2026-4-30T19:12:4Z</time></trkpt>
<trkpt lat="48.896774291992" lon="2.6438519954681"><ele>63</ele><time>2026-4-30T19:12:7Z</time></trkpt>
<trkpt lat="48.896732330322" lon="2.6437547206879"><ele>63</ele><time>2026-4-30T19:12:10Z</time></trkpt>
<trkpt lat="48.89669418335" lon="2.6436789035797"><ele>63</ele><time>2026-4-30T19:12:13Z</time></trkpt>
<trkpt lat="48.89669418335" lon="2.6436789035797"><ele>63</ele><time>2026-4-30T19:12:16Z</time></trkpt>
<trkpt lat="48.89669418335" lon="2.6436789035797"><ele>63</ele><time>2026-4-30T19:12:19Z</time></trkpt>
<trkpt lat="48.896728515625" lon="2.643497467041"><ele>62</ele><time>2026-4-30T19:12:22Z</time></trkpt>
<trkpt lat="48.896728515625" lon="2.643497467041"><ele>62</ele><time>2026-4-30T19:12:25Z</time></trkpt>
<trkpt lat="48.89680480957" lon="2.6433608531952"><ele>62</ele><time>2026-4-30T19:12:28Z</time></trkpt>
<trkpt lat="48.896877288818" lon="2.6431782245636"><ele>62</ele><time>2026-4-30T19:12:31Z</time></trkpt>
<trkpt lat="48.89697265625" lon="2.6431155204773"><ele>62</ele><time>2026-4-30T19:12:34Z</time></trkpt>
<trkpt lat="48.897048950195" lon="2.643054485321"><ele>62</ele><time>2026-4-30T19:12:37Z</time></trkpt>
<trkpt lat="48.897109985352" lon="2.6430118083954"><ele>62</ele><time>2026-4-30T19:12:40Z</time></trkpt>
<trkpt lat="48.897178649902" lon="2.6429648399353"><ele>62</ele><time>2026-4-30T19:12:43Z</time></trkpt>
<trkpt lat="48.897285461426" lon="2.6428735256195"><ele>62</ele><time>2026-4-30T19:12:46Z</time></trkpt>
<trkpt lat="48.897369384766" lon="2.6428053379059"><ele>61</ele><time>2026-4-30T19:12:49Z</time></trkpt>
<trkpt lat="48.897438049316" lon="2.6427536010742"><ele>61</ele><time>2026-4-30T19:12:52Z</time></trkpt>
<trkpt lat="48.897525787354" lon="2.6427180767059"><ele>61</ele><time>2026-4-30T19:12:55Z</time></trkpt>
<trkpt lat="48.897621154785" lon="2.6426770687103"><ele>61</ele><time>2026-4-30T19:12:58Z</time></trkpt>
<trkpt lat="48.89771270752" lon="2.6426250934601"><ele>61</ele><time>2026-4-30T19:13:1Z</time></trkpt>
<trkpt lat="48.897789001465" lon="2.6425824165344"><ele>61</ele><time>2026-4-30T19:13:4Z</time></trkpt>
<trkpt lat="48.897876739502" lon="2.6425280570984"><ele>61</ele><time>2026-4-30T19:13:7Z</time></trkpt>
<trkpt lat="48.897968292236" lon="2.6424655914307"><ele>60</ele><time>2026-4-30T19:13:10Z</time></trkpt>
<trkpt lat="48.898040771484" lon="2.6424095630646"><ele>60</ele><time>2026-4-30T19:13:13Z</time></trkpt>
<trkpt lat="48.898101806641" lon="2.6423742771149"><ele>60</ele><time>2026-4-30T19:13:16Z</time></trkpt>
<trkpt lat="48.898178100586" lon="2.6423313617706"><ele>60</ele><time>2026-4-30T19:13:19Z</time></trkpt>
<trkpt lat="48.898254394531" lon="2.6422853469849"><ele>60</ele><time>2026-4-30T19:13:22Z</time></trkpt>
<trkpt lat="48.898323059082" lon="2.6422438621521"><ele>60</ele><time>2026-4-30T19:13:25Z</time></trkpt>
<trkpt lat="48.898323059082" lon="2.6422438621521"><ele>60</ele><time>2026-4-30T19:13:28Z</time></trkpt>
<trkpt lat="48.898471832275" lon="2.6421384811401"><ele>61</ele><time>2026-4-30T19:13:31Z</time></trkpt>
<trkpt lat="48.898544311523" lon="2.64208984375"><ele>61</ele><time>2026-4-30T19:13:34Z</time></trkpt>
<trkpt lat="48.898544311523" lon="2.64208984375"><ele>61</ele><time>2026-4-30T19:13:37Z</time></trkpt>
<trkpt lat="48.898662567139" lon="2.6420166492462"><ele>61</ele><time>2026-4-30T19:13:40Z</time></trkpt>
<trkpt lat="48.898723602295" lon="2.641988992691"><ele>61</ele><time>2026-4-30T19:13:43Z</time></trkpt>
<trkpt lat="48.898777008057" lon="2.641960144043"><ele>61</ele><time>2026-4-30T19:13:46Z</time></trkpt>
<trkpt lat="48.898834228516" lon="2.6419315338135"><ele>62</ele><time>2026-4-30T19:13:49Z</time></trkpt>
<trkpt lat="48.898834228516" lon="2.6419315338135"><ele>62</ele><time>2026-4-30T19:13:52Z</time></trkpt>
<trkpt lat="48.898921966553" lon="2.641871213913"><ele>62</ele><time>2026-4-30T19:13:55Z</time></trkpt>
<trkpt lat="48.898975372314" lon="2.6418387889862"><ele>62</ele><time>2026-4-30T19:13:58Z</time></trkpt>
<trkpt lat="48.899040222168" lon="2.6418008804321"><ele>62</ele><time>2026-4-30T19:14:1Z</time></trkpt>
<trkpt lat="48.899105072021" lon="2.6417624950409"><ele>62</ele><time>2026-4-30T19:14:4Z</time></trkpt>
<trkpt lat="48.89916229248" lon="2.641725063324"><ele>62</ele><time>2026-4-30T19:14:7Z</time></trkpt>
<trkpt lat="48.89916229248" lon="2.641725063324"><ele>62</ele><time>2026-4-30T19:14:10Z</time></trkpt>
<trkpt lat="48.899242401123" lon="2.6416611671448"><ele>62</ele><time>2026-4-30T19:14:13Z</time></trkpt>
<trkpt lat="48.899242401123" lon="2.6416611671448"><ele>62</ele><time>2026-4-30T19:14:16Z</time></trkpt>
<trkpt lat="48.899341583252" lon="2.6416075229645"><ele>63</ele><time>2026-4-30T19:14:19Z</time></trkpt>
<trkpt lat="48.899341583252" lon="2.6416075229645"><ele>63</ele><time>2026-4-30T19:14:22Z</time></trkpt>
<trkpt lat="48.899433135986" lon="2.6415557861328"><ele>64</ele><time>2026-4-30T19:14:25Z</time></trkpt>
<trkpt lat="48.899433135986" lon="2.6415557861328"><ele>64</ele><time>2026-4-30T19:14:28Z</time></trkpt>
<trkpt lat="48.899490356445" lon="2.6415135860443"><ele>64</ele><time>2026-4-30T19:14:31Z</time></trkpt>
<trkpt lat="48.899547576904" lon="2.6414837837219"><ele>64</ele><time>2026-4-30T19:14:34Z</time></trkpt>
<trkpt lat="48.899631500244" lon="2.6414201259613"><ele>64</ele><time>2026-4-30T19:14:37Z</time></trkpt>
<trkpt lat="48.899631500244" lon="2.6414201259613"><ele>64</ele><time>2026-4-30T19:14:40Z</time></trkpt>
<trkpt lat="48.899700164795" lon="2.6413669586182"><ele>65</ele><time>2026-4-30T19:14:43Z</time></trkpt>
<trkpt lat="48.899768829346" lon="2.6413190364838"><ele>65</ele><time>2026-4-30T19:14:46Z</time></trkpt>
<trkpt lat="48.899837493896" lon="2.6412944793701"><ele>65</ele><time>2026-4-30T19:14:49Z</time></trkpt>
<trkpt lat="48.899837493896" lon="2.6412944793701"><ele>65</ele><time>2026-4-30T19:14:52Z</time></trkpt>
<trkpt lat="48.899913787842" lon="2.6412570476532"><ele>66</ele><time>2026-4-30T19:14:55Z</time></trkpt>
<trkpt lat="48.899913787842" lon="2.6412570476532"><ele>66</ele><time>2026-4-30T19:14:58Z</time></trkpt>
<trkpt lat="48.899967193604" lon="2.6412146091461"><ele>66</ele><time>2026-4-30T19:15:1Z</time></trkpt>
<trkpt lat="48.899967193604" lon="2.6412146091461"><ele>66</ele><time>2026-4-30T19:15:4Z</time></trkpt>
<trkpt lat="48.899967193604" lon="2.6412146091461"><ele>66</ele><time>2026-4-30T19:15:7Z</time></trkpt>
<trkpt lat="48.899932861328" lon="2.6411299705505"><ele>65</ele><time>2026-4-30T19:15:10Z</time></trkpt>
<trkpt lat="48.899856567383" lon="2.641042470932"><ele>65</ele><time>2026-4-30T19:15:13Z</time></trkpt>
<trkpt lat="48.899765014648" lon="2.640976190567"><ele>64</ele><time>2026-4-30T19:15:16Z</time></trkpt>
<trkpt lat="48.899707794189" lon="2.6409683227539"><ele>64</ele><time>2026-4-30T19:15:19Z</time></trkpt>
<trkpt lat="48.899639129639" lon="2.6409432888031"><ele>64</ele><time>2026-4-30T19:15:22Z</time></trkpt>
<trkpt lat="48.899578094482" lon="2.6409201622009"><ele>64</ele><time>2026-4-30T19:15:25Z</time></trkpt>
<trkpt lat="48.899578094482" lon="2.6409201622009"><ele>64</ele><time>2026-4-30T19:15:28Z</time></trkpt>
<trkpt lat="48.899463653564" lon="2.6408820152283"><ele>63</ele><time>2026-4-30T19:15:31Z</time></trkpt>
<trkpt lat="48.899391174316" lon="2.6408412456512"><ele>63</ele><time>2026-4-30T19:15:34Z</time></trkpt>
<trkpt lat="48.899314880371" lon="2.6407942771912"><ele>63</ele><time>2026-4-30T19:15:37Z</time></trkpt>
<trkpt lat="48.89924621582" lon="2.6407630443573"><ele>62</ele><time>2026-4-30T19:15:40Z</time></trkpt>
<trkpt lat="48.899169921875" lon="2.6407308578491"><ele>62</ele><time>2026-4-30T19:15:43Z</time></trkpt>
<trkpt lat="48.899085998535" lon="2.6406970024109"><ele>62</ele><time>2026-4-30T19:15:46Z</time></trkpt>
<trkpt lat="48.899005889893" lon="2.6406536102295"><ele>62</ele><time>2026-4-30T19:15:49Z</time></trkpt>
<trkpt lat="48.898918151855" lon="2.640604019165"><ele>62</ele><time>2026-4-30T19:15:52Z</time></trkpt>
<trkpt lat="48.89884185791" lon="2.6405584812164"><ele>62</ele><time>2026-4-30T19:15:55Z</time></trkpt>
<trkpt lat="48.898750305176" lon="2.6405050754547"><ele>62</ele><time>2026-4-30T19:15:58Z</time></trkpt>
<trkpt lat="48.898670196533" lon="2.6404418945312"><ele>62</ele><time>2026-4-30T19:16:1Z</time></trkpt>
<trkpt lat="48.898601531982" lon="2.6403810977936"><ele>62</ele><time>2026-4-30T19:16:4Z</time></trkpt>
<trkpt lat="48.898536682129" lon="2.6403365135193"><ele>62</ele><time>2026-4-30T19:16:7Z</time></trkpt>
<trkpt lat="48.898490905762" lon="2.6402812004089"><ele>62</ele><time>2026-4-30T19:16:10Z</time></trkpt>
<trkpt lat="48.898448944092" lon="2.6402153968811"><ele>62</ele><time>2026-4-30T19:16:13Z</time></trkpt>
<trkpt lat="48.898406982422" lon="2.6401398181915"><ele>62</ele><time>2026-4-30T19:16:16Z</time></trkpt>
<trkpt lat="48.898406982422" lon="2.6401398181915"><ele>62</ele><time>2026-4-30T19:16:19Z</time></trkpt>
<trkpt lat="48.898326873779" lon="2.6400666236877"><ele>62</ele><time>2026-4-30T19:16:22Z</time></trkpt>
<trkpt lat="48.898239135742" lon="2.6400852203369"><ele>62</ele><time>2026-4-30T19:16:25Z</time></trkpt>
<trkpt lat="48.898239135742" lon="2.6400852203369"><ele>62</ele><time>2026-4-30T19:16:28Z</time></trkpt>
<trkpt lat="48.898113250732" lon="2.6401634216309"><ele>61</ele><time>2026-4-30T19:16:31Z</time></trkpt>
<trkpt lat="48.898017883301" lon="2.6401965618134"><ele>61</ele><time>2026-4-30T19:16:34Z</time></trkpt>
<trkpt lat="48.897945404053" lon="2.6402151584625"><ele>61</ele><time>2026-4-30T19:16:37Z</time></trkpt>
<trkpt lat="48.897880554199" lon="2.6402318477631"><ele>61</ele><time>2026-4-30T19:16:40Z</time></trkpt>
<trkpt lat="48.897804260254" lon="2.640255689621"><ele>60</ele><time>2026-4-30T19:16:43Z</time></trkpt>
<trkpt lat="48.897716522217" lon="2.6402785778046"><ele>60</ele><time>2026-4-30T19:16:46Z</time></trkpt>
<trkpt lat="48.897640228271" lon="2.6402859687805"><ele>60</ele><time>2026-4-30T19:16:49Z</time></trkpt>
<trkpt lat="48.897510528564" lon="2.6403424739838"><ele>60</ele><time>2026-4-30T19:16:52Z</time></trkpt>
<trkpt lat="48.897441864014" lon="2.6403801441193"><ele>60</ele><time>2026-4-30T19:16:55Z</time></trkpt>
<trkpt lat="48.897357940674" lon="2.6404237747192"><ele>60</ele><time>2026-4-30T19:16:58Z</time></trkpt>
<trkpt lat="48.897274017334" lon="2.6404585838318"><ele>60</ele><time>2026-4-30T19:17:1Z</time></trkpt>
<trkpt lat="48.897197723389" lon="2.6405026912689"><ele>60</ele><time>2026-4-30T19:17:4Z</time></trkpt>
<trkpt lat="48.897129058838" lon="2.6405529975891"><ele>60</ele><time>2026-4-30T19:17:7Z</time></trkpt>
<trkpt lat="48.897048950195" lon="2.6405651569366"><ele>60</ele><time>2026-4-30T19:17:10Z</time></trkpt>
<trkpt lat="48.897048950195" lon="2.6405651569366"><ele>60</ele><time>2026-4-30T19:17:13Z</time></trkpt>
<trkpt lat="48.897022247314" lon="2.6405193805695"><ele>60</ele><time>2026-4-30T19:17:16Z</time></trkpt>
<trkpt lat="48.896987915039" lon="2.6404509544373"><ele>60</ele><time>2026-4-30T19:17:19Z</time></trkpt>
<trkpt lat="48.896949768066" lon="2.6403801441193"><ele>60</ele><time>2026-4-30T19:17:22Z</time></trkpt>
<trkpt lat="48.896911621094" lon="2.6403112411499"><ele>60</ele><time>2026-4-30T19:17:25Z</time></trkpt>
<trkpt lat="48.896884918213" lon="2.640239238739"><ele>60</ele><time>2026-4-30T19:17:28Z</time></trkpt>
<trkpt lat="48.896823883057" lon="2.6400384902954"><ele>60</ele><time>2026-4-30T19:17:31Z</time></trkpt>
<trkpt lat="48.896770477295" lon="2.6398787498474"><ele>60</ele><time>2026-4-30T19:17:34Z</time></trkpt>
<trkpt lat="48.89672088623" lon="2.6397430896759"><ele>61</ele><time>2026-4-30T19:17:37Z</time></trkpt>
<trkpt lat="48.896667480469" lon="2.6396024227142"><ele>61</ele><time>2026-4-30T19:17:40Z</time></trkpt>
<trkpt lat="48.896598815918" lon="2.639434337616"><ele>61</ele><time>2026-4-30T19:17:43Z</time></trkpt>
<trkpt lat="48.896518707275" lon="2.6392822265625"><ele>62</ele><time>2026-4-30T19:17:46Z</time></trkpt>
<trkpt lat="48.896480560303" lon="2.6391551494598"><ele>62</ele><time>2026-4-30T19:17:49Z</time></trkpt>
<trkpt lat="48.896453857422" lon="2.6390633583069"><ele>62</ele><time>2026-4-30T19:17:52Z</time></trkpt>
<trkpt lat="48.896453857422" lon="2.6390633583069"><ele>62</ele><time>2026-4-30T19:17:55Z</time></trkpt>
<trkpt lat="48.896472930908" lon="2.6389265060425"><ele>62</ele><time>2026-4-30T19:17:58Z</time></trkpt>
<trkpt lat="48.896453857422" lon="2.6388218402863"><ele>61</ele><time>2026-4-30T19:18:1Z</time></trkpt>
<trkpt lat="48.896430969238" lon="2.6387114524841"><ele>61</ele><time>2026-4-30T19:18:4Z</time></trkpt>
<trkpt lat="48.896408081055" lon="2.6386206150055"><ele>61</ele><time>2026-4-30T19:18:7Z</time></trkpt>
<trkpt lat="48.896362304688" lon="2.6385161876678"><ele>61</ele><time>2026-4-30T19:18:10Z</time></trkpt>
<trkpt lat="48.896293640137" lon="2.6384494304657"><ele>61</ele><time>2026-4-30T19:18:13Z</time></trkpt>
<trkpt lat="48.896217346191" lon="2.638418674469"><ele>61</ele><time>2026-4-30T19:18:16Z</time></trkpt>
<trkpt lat="48.896152496338" lon="2.6384117603302"><ele>61</ele><time>2026-4-30T19:18:19Z</time></trkpt>
<trkpt lat="48.89608001709" lon="2.638409614563"><ele>61</ele><time>2026-4-30T19:18:22Z</time></trkpt>
<trkpt lat="48.896007537842" lon="2.6384100914001"><ele>61</ele><time>2026-4-30T19:18:25Z</time></trkpt>
<trkpt lat="48.895938873291" lon="2.6384170055389"><ele>61</ele><time>2026-4-30T19:18:28Z</time></trkpt>
<trkpt lat="48.895874023438" lon="2.6384260654449"><ele>61</ele><time>2026-4-30T19:18:31Z</time></trkpt>
<trkpt lat="48.895812988281" lon="2.6384341716766"><ele>61</ele><time>2026-4-30T19:18:34Z</time></trkpt>
<trkpt lat="48.89574432373" lon="2.6384506225586"><ele>61</ele><time>2026-4-30T19:18:37Z</time></trkpt>
<trkpt lat="48.895656585693" lon="2.6384603977203"><ele>61</ele><time>2026-4-30T19:18:40Z</time></trkpt>
<trkpt lat="48.895584106445" lon="2.6384665966034"><ele>61</ele><time>2026-4-30T19:18:43Z</time></trkpt>
<trkpt lat="48.895503997803" lon="2.638468503952"><ele>61</ele><time>2026-4-30T19:18:46Z</time></trkpt>
<trkpt lat="48.895420074463" lon="2.6384735107422"><ele>61</ele><time>2026-4-30T19:18:49Z</time></trkpt>
<trkpt lat="48.895324707031" lon="2.6384797096252"><ele>60</ele><time>2026-4-30T19:18:52Z</time></trkpt>
<trkpt lat="48.8952293396" lon="2.6385109424591"><ele>60</ele><time>2026-4-30T19:18:55Z</time></trkpt>
<trkpt lat="48.895153045654" lon="2.6385464668274"><ele>60</ele><time>2026-4-30T19:18:58Z</time></trkpt>
<trkpt lat="48.895050048828" lon="2.6385595798492"><ele>60</ele><time>2026-4-30T19:19:1Z</time></trkpt>
<trkpt lat="48.894992828369" lon="2.6385540962219"><ele>60</ele><time>2026-4-30T19:19:4Z</time></trkpt>
<trkpt lat="48.894924163818" lon="2.6385416984558"><ele>60</ele><time>2026-4-30T19:19:7Z</time></trkpt>
<trkpt lat="48.894828796387" lon="2.6385414600372"><ele>60</ele><time>2026-4-30T19:19:10Z</time></trkpt>
<trkpt lat="48.89474105835" lon="2.6385564804077"><ele>60</ele><time>2026-4-30T19:19:13Z</time></trkpt>
<trkpt lat="48.894660949707" lon="2.6385660171509"><ele>60</ele><time>2026-4-30T19:19:16Z</time></trkpt>
<trkpt lat="48.894577026367" lon="2.6385681629181"><ele>60</ele><time>2026-4-30T19:19:19Z</time></trkpt>
<trkpt lat="48.894496917725" lon="2.638573884964"><ele>60</ele><time>2026-4-30T19:19:22Z</time></trkpt>
<trkpt lat="48.894420623779" lon="2.6385715007782"><ele>60</ele><time>2026-4-30T19:19:25Z</time></trkpt>
<trkpt lat="48.894336700439" lon="2.638580083847"><ele>60</ele><time>2026-4-30T19:19:28Z</time></trkpt>
<trkpt lat="48.894256591797" lon="2.6385896205902"><ele>60</ele><time>2026-4-30T19:19:31Z</time></trkpt>
<trkpt lat="48.894149780273" lon="2.6385807991028"><ele>60</ele><time>2026-4-30T19:19:34Z</time></trkpt>
<trkpt lat="48.894069671631" lon="2.6385555267334"><ele>60</ele><time>2026-4-30T19:19:37Z</time></trkpt>
<trkpt lat="48.893985748291" lon="2.6385481357574"><ele>60</ele><time>2026-4-30T19:19:40Z</time></trkpt>
<trkpt lat="48.893878936768" lon="2.6385691165924"><ele>60</ele><time>2026-4-30T19:19:43Z</time></trkpt>
<trkpt lat="48.893779754639" lon="2.6386013031006"><ele>60</ele><time>2026-4-30T19:19:46Z</time></trkpt>
<trkpt lat="48.893669128418" lon="2.6386225223541"><ele>60</ele><time>2026-4-30T19:19:49Z</time></trkpt>
<trkpt lat="48.893566131592" lon="2.6386499404907"><ele>60</ele><time>2026-4-30T19:19:52Z</time></trkpt>
<trkpt lat="48.893474578857" lon="2.6386659145355"><ele>61</ele><time>2026-4-30T19:19:55Z</time></trkpt>
<trkpt lat="48.893409729004" lon="2.6386637687683"><ele>61</ele><time>2026-4-30T19:19:58Z</time></trkpt>
<trkpt lat="48.893409729004" lon="2.6386637687683"><ele>61</ele><time>2026-4-30T19:20:1Z</time></trkpt>
<trkpt lat="48.893333435059" lon="2.6386618614197"><ele>61</ele><time>2026-4-30T19:20:4Z</time></trkpt>
<trkpt lat="48.893333435059" lon="2.6386618614197"><ele>61</ele><time>2026-4-30T19:20:7Z</time></trkpt>
<trkpt lat="48.893333435059" lon="2.6386618614197"><ele>61</ele><time>2026-4-30T19:20:10Z</time></trkpt>
<trkpt lat="48.893333435059" lon="2.6386618614197"><ele>61</ele><time>2026-4-30T19:20:13Z</time></trkpt>
<trkpt lat="48.893417358398" lon="2.6386218070984"><ele>61</ele><time>2026-4-30T19:20:16Z</time></trkpt>
<trkpt lat="48.893417358398" lon="2.6386218070984"><ele>61</ele><time>2026-4-30T19:20:19Z</time></trkpt>
<trkpt lat="48.893424987793" lon="2.6385037899017"><ele>60</ele><time>2026-4-30T19:20:22Z</time></trkpt>
<trkpt lat="48.89338684082" lon="2.6383852958679"><ele>60</ele><time>2026-4-30T19:20:25Z</time></trkpt>
<trkpt lat="48.89334487915" lon="2.6382811069489"><ele>60</ele><time>2026-4-30T19:20:28Z</time></trkpt>
<trkpt lat="48.893291473389" lon="2.6381947994232"><ele>60</ele><time>2026-4-30T19:20:31Z</time></trkpt>
<trkpt lat="48.89323425293" lon="2.6381103992462"><ele>59</ele><time>2026-4-30T19:20:34Z</time></trkpt>
<trkpt lat="48.893184661865" lon="2.6380467414856"><ele>59</ele><time>2026-4-30T19:20:37Z</time></trkpt>
<trkpt lat="48.893119812012" lon="2.6379661560059"><ele>59</ele><time>2026-4-30T19:20:40Z</time></trkpt>
<trkpt lat="48.893062591553" lon="2.637882232666"><ele>59</ele><time>2026-4-30T19:20:43Z</time></trkpt>
<trkpt lat="48.893005371094" lon="2.637779712677"><ele>58</ele><time>2026-4-30T19:20:46Z</time></trkpt>
<trkpt lat="48.892959594727" lon="2.6376740932465"><ele>58</ele><time>2026-4-30T19:20:49Z</time></trkpt>
<trkpt lat="48.892917633057" lon="2.637567281723"><ele>58</ele><time>2026-4-30T19:20:52Z</time></trkpt>
<trkpt lat="48.892871856689" lon="2.6374452114105"><ele>57</ele><time>2026-4-30T19:20:55Z</time></trkpt>
<trkpt lat="48.892822265625" lon="2.6373455524445"><ele>57</ele><time>2026-4-30T19:20:58Z</time></trkpt>
<trkpt lat="48.892761230469" lon="2.6372928619385"><ele>57</ele><time>2026-4-30T19:21:1Z</time></trkpt>
<trkpt lat="48.892761230469" lon="2.6372928619385"><ele>57</ele><time>2026-4-30T19:21:4Z</time></trkpt>
<trkpt lat="48.892677307129" lon="2.6372003555298"><ele>57</ele><time>2026-4-30T19:21:7Z</time></trkpt>
<trkpt lat="48.892650604248" lon="2.6370866298676"><ele>57</ele><time>2026-4-30T19:21:10Z</time></trkpt>
<trkpt lat="48.892623901367" lon="2.6369791030884"><ele>56</ele><time>2026-4-30T19:21:13Z</time></trkpt>
<trkpt lat="48.892597198486" lon="2.6368823051453"><ele>56</ele><time>2026-4-30T19:21:16Z</time></trkpt>
<trkpt lat="48.892562866211" lon="2.6367819309235"><ele>55</ele><time>2026-4-30T19:21:19Z</time></trkpt>
<trkpt lat="48.892562866211" lon="2.6367819309235"><ele>55</ele><time>2026-4-30T19:21:22Z</time></trkpt>
<trkpt lat="48.892520904541" lon="2.6366229057312"><ele>55</ele><time>2026-4-30T19:21:25Z</time></trkpt>
<trkpt lat="48.892459869385" lon="2.6364829540253"><ele>55</ele><time>2026-4-30T19:21:28Z</time></trkpt>
<trkpt lat="48.892425537109" lon="2.6363573074341"><ele>54</ele><time>2026-4-30T19:21:31Z</time></trkpt>
<trkpt lat="48.892383575439" lon="2.636207818985"><ele>54</ele><time>2026-4-30T19:21:34Z</time></trkpt>
<trkpt lat="48.892349243164" lon="2.6360805034637"><ele>54</ele><time>2026-4-30T19:21:37Z</time></trkpt>
<trkpt lat="48.892314910889" lon="2.6359603404999"><ele>54</ele><time>2026-4-30T19:21:40Z</time></trkpt>
<trkpt lat="48.892265319824" lon="2.6358439922333"><ele>54</ele><time>2026-4-30T19:21:43Z</time></trkpt>
<trkpt lat="48.892211914062" lon="2.635763168335"><ele>54</ele><time>2026-4-30T19:21:46Z</time></trkpt>
<trkpt lat="48.892154693604" lon="2.6356661319733"><ele>55</ele><time>2026-4-30T19:21:49Z</time></trkpt>
<trkpt lat="48.892093658447" lon="2.6355469226837"><ele>55</ele><time>2026-4-30T19:21:52Z</time></trkpt>
<trkpt lat="48.89204788208" lon="2.6354265213013"><ele>55</ele><time>2026-4-30T19:21:55Z</time></trkpt>
<trkpt lat="48.89200592041" lon="2.6353034973145"><ele>55</ele><time>2026-4-30T19:21:58Z</time></trkpt>
<trkpt lat="48.891967773438" lon="2.6351821422577"><ele>56</ele><time>2026-4-30T19:22:1Z</time></trkpt>
<trkpt lat="48.89192199707" lon="2.6350433826447"><ele>56</ele><time>2026-4-30T19:22:4Z</time></trkpt>
<trkpt lat="48.891857147217" lon="2.6349217891693"><ele>56</ele><time>2026-4-30T19:22:7Z</time></trkpt>
<trkpt lat="48.891792297363" lon="2.6348295211792"><ele>56</ele><time>2026-4-30T19:22:10Z</time></trkpt>
<trkpt lat="48.891716003418" lon="2.6346859931946"><ele>56</ele><time>2026-4-30T19:22:13Z</time></trkpt>
<trkpt lat="48.891651153564" lon="2.6345686912537"><ele>55</ele><time>2026-4-30T19:22:16Z</time></trkpt>
<trkpt lat="48.891597747803" lon="2.6344327926636"><ele>55</ele><time>2026-4-30T19:22:19Z</time></trkpt>
<trkpt lat="48.891548156738" lon="2.6343121528625"><ele>55</ele><time>2026-4-30T19:22:22Z</time></trkpt>
<trkpt lat="48.891529083252" lon="2.6342186927795"><ele>54</ele><time>2026-4-30T19:22:25Z</time></trkpt>
<trkpt lat="48.891487121582" lon="2.6341421604156"><ele>54</ele><time>2026-4-30T19:22:28Z</time></trkpt>
<trkpt lat="48.891441345215" lon="2.6340816020966"><ele>54</ele><time>2026-4-30T19:22:31Z</time></trkpt>
<trkpt lat="48.891384124756" lon="2.6340072154999"><ele>54</ele><time>2026-4-30T19:22:34Z</time></trkpt>
<trkpt lat="48.891342163086" lon="2.6339409351349"><ele>55</ele><time>2026-4-30T19:22:37Z</time></trkpt>
<trkpt lat="48.891300201416" lon="2.6338493824005"><ele>54</ele><time>2026-4-30T19:22:40Z</time></trkpt>
<trkpt lat="48.891254425049" lon="2.6337609291077"><ele>55</ele><time>2026-4-30T19:22:43Z</time></trkpt>
<trkpt lat="48.891254425049" lon="2.6337609291077"><ele>55</ele><time>2026-4-30T19:22:46Z</time></trkpt>
<trkpt lat="48.891185760498" lon="2.6336507797241"><ele>55</ele><time>2026-4-30T19:22:49Z</time></trkpt>
<trkpt lat="48.891185760498" lon="2.6336507797241"><ele>55</ele><time>2026-4-30T19:22:52Z</time></trkpt>
<trkpt lat="48.891128540039" lon="2.6335244178772"><ele>55</ele><time>2026-4-30T19:22:55Z</time></trkpt>
<trkpt lat="48.891128540039" lon="2.6335244178772"><ele>55</ele><time>2026-4-30T19:22:58Z</time></trkpt>
<trkpt lat="48.89107131958" lon="2.633416891098"><ele>55</ele><time>2026-4-30T19:23:1Z</time></trkpt>
<trkpt lat="48.89107131958" lon="2.633416891098"><ele>55</ele><time>2026-4-30T19:23:4Z</time></trkpt>
<trkpt lat="48.890995025635" lon="2.6333258152008"><ele>55</ele><time>2026-4-30T19:23:7Z</time></trkpt>
<trkpt lat="48.890995025635" lon="2.6333258152008"><ele>55</ele><time>2026-4-30T19:23:10Z</time></trkpt>
<trkpt lat="48.8909034729" lon="2.6332979202271"><ele>55</ele><time>2026-4-30T19:23:13Z</time></trkpt>
<trkpt lat="48.890827178955" lon="2.6331832408905"><ele>55</ele><time>2026-4-30T19:23:16Z</time></trkpt>
<trkpt lat="48.890800476074" lon="2.6330909729004"><ele>55</ele><time>2026-4-30T19:23:19Z</time></trkpt>
<trkpt lat="48.890777587891" lon="2.632994890213"><ele>54</ele><time>2026-4-30T19:23:22Z</time></trkpt>
<trkpt lat="48.890766143799" lon="2.632880449295"><ele>54</ele><time>2026-4-30T19:23:25Z</time></trkpt>
<trkpt lat="48.890769958496" lon="2.6327359676361"><ele>54</ele><time>2026-4-30T19:23:28Z</time></trkpt>
<trkpt lat="48.890769958496" lon="2.6326024532318"><ele>54</ele><time>2026-4-30T19:23:31Z</time></trkpt>
<trkpt lat="48.89075088501" lon="2.6324806213379"><ele>54</ele><time>2026-4-30T19:23:34Z</time></trkpt>
<trkpt lat="48.890678405762" lon="2.6323747634888"><ele>53</ele><time>2026-4-30T19:23:37Z</time></trkpt>
<trkpt lat="48.890628814697" lon="2.6322569847107"><ele>53</ele><time>2026-4-30T19:23:40Z</time></trkpt>
<trkpt lat="48.890575408936" lon="2.6321268081665"><ele>52</ele><time>2026-4-30T19:23:43Z</time></trkpt>
<trkpt lat="48.89049911499" lon="2.6319704055786"><ele>51</ele><time>2026-4-30T19:23:46Z</time></trkpt>
<trkpt lat="48.890419006348" lon="2.6318054199219"><ele>51</ele><time>2026-4-30T19:23:49Z</time></trkpt>
<trkpt lat="48.890338897705" lon="2.6316468715668"><ele>50</ele><time>2026-4-30T19:23:52Z</time></trkpt>
<trkpt lat="48.890228271484" lon="2.6314384937286"><ele>49</ele><time>2026-4-30T19:23:55Z</time></trkpt>
<trkpt lat="48.890106201172" lon="2.6312353610992"><ele>49</ele><time>2026-4-30T19:23:58Z</time></trkpt>
<trkpt lat="48.889999389648" lon="2.6310441493988"><ele>49</ele><time>2026-4-30T19:24:1Z</time></trkpt>
<trkpt lat="48.889904022217" lon="2.6308708190918"><ele>49</ele><time>2026-4-30T19:24:4Z</time></trkpt>
<trkpt lat="48.889804840088" lon="2.6306948661804"><ele>49</ele><time>2026-4-30T19:24:7Z</time></trkpt>
<trkpt lat="48.889713287354" lon="2.6305203437805"><ele>49</ele><time>2026-4-30T19:24:10Z</time></trkpt>
<trkpt lat="48.889625549316" lon="2.6303560733795"><ele>49</ele><time>2026-4-30T19:24:13Z</time></trkpt>
<trkpt lat="48.889545440674" lon="2.6302094459534"><ele>49</ele><time>2026-4-30T19:24:16Z</time></trkpt>
<trkpt lat="48.889469146729" lon="2.6300673484802"><ele>49</ele><time>2026-4-30T19:24:19Z</time></trkpt>
<trkpt lat="48.889419555664" lon="2.6299102306366"><ele>50</ele><time>2026-4-30T19:24:22Z</time></trkpt>
<trkpt lat="48.889366149902" lon="2.6297955513"><ele>50</ele><time>2026-4-30T19:24:25Z</time></trkpt>
<trkpt lat="48.889305114746" lon="2.6296906471252"><ele>50</ele><time>2026-4-30T19:24:28Z</time></trkpt>
<trkpt lat="48.889251708984" lon="2.629599571228"><ele>51</ele><time>2026-4-30T19:24:31Z</time></trkpt>
<trkpt lat="48.889205932617" lon="2.6295175552368"><ele>51</ele><time>2026-4-30T19:24:34Z</time></trkpt>
<trkpt lat="48.889156341553" lon="2.6294362545013"><ele>51</ele><time>2026-4-30T19:24:37Z</time></trkpt>
<trkpt lat="48.889110565186" lon="2.6293551921844"><ele>51</ele><time>2026-4-30T19:24:40Z</time></trkpt>
<trkpt lat="48.889064788818" lon="2.629271030426"><ele>52</ele><time>2026-4-30T19:24:43Z</time></trkpt>
<trkpt lat="48.889026641846" lon="2.629200220108"><ele>52</ele><time>2026-4-30T19:24:46Z</time></trkpt>
<trkpt lat="48.888984680176" lon="2.6291191577911"><ele>52</ele><time>2026-4-30T19:24:49Z</time></trkpt>
<trkpt lat="48.888946533203" lon="2.6290438175201"><ele>53</ele><time>2026-4-30T19:24:52Z</time></trkpt>
<trkpt lat="48.888904571533" lon="2.6289675235748"><ele>53</ele><time>2026-4-30T19:24:55Z</time></trkpt>
<trkpt lat="48.888866424561" lon="2.6288950443268"><ele>53</ele><time>2026-4-30T19:24:58Z</time></trkpt>
<trkpt lat="48.888824462891" lon="2.6288204193115"><ele>53</ele><time>2026-4-30T19:25:1Z</time></trkpt>
<trkpt lat="48.888778686523" lon="2.6287457942963"><ele>53</ele><time>2026-4-30T19:25:4Z</time></trkpt>
<trkpt lat="48.888725280762" lon="2.6286625862122"><ele>53</ele><time>2026-4-30T19:25:7Z</time></trkpt>
<trkpt lat="48.888679504395" lon="2.6285741329193"><ele>53</ele><time>2026-4-30T19:25:10Z</time></trkpt>
<trkpt lat="48.888637542725" lon="2.6284928321838"><ele>54</ele><time>2026-4-30T19:25:13Z</time></trkpt>
<trkpt lat="48.888591766357" lon="2.6284041404724"><ele>54</ele><time>2026-4-30T19:25:16Z</time></trkpt>
<trkpt lat="48.88854598999" lon="2.628319978714"><ele>54</ele><time>2026-4-30T19:25:19Z</time></trkpt>
<trkpt lat="48.888500213623" lon="2.6282427310944"><ele>54</ele><time>2026-4-30T19:25:22Z</time></trkpt>
<trkpt lat="48.888454437256" lon="2.6281547546387"><ele>54</ele><time>2026-4-30T19:25:25Z</time></trkpt>
<trkpt lat="48.888404846191" lon="2.6280744075775"><ele>53</ele><time>2026-4-30T19:25:28Z</time></trkpt>
<trkpt lat="48.888359069824" lon="2.6279940605164"><ele>53</ele><time>2026-4-30T19:25:31Z</time></trkpt>
<trkpt lat="48.888313293457" lon="2.627913236618"><ele>54</ele><time>2026-4-30T19:25:34Z</time></trkpt>
<trkpt lat="48.88826751709" lon="2.6278266906738"><ele>54</ele><time>2026-4-30T19:25:37Z</time></trkpt>
<trkpt lat="48.888214111328" lon="2.6277306079865"><ele>54</ele><time>2026-4-30T19:25:40Z</time></trkpt>
<trkpt lat="48.888164520264" lon="2.6276426315308"><ele>54</ele><time>2026-4-30T19:25:43Z</time></trkpt>
<trkpt lat="48.888114929199" lon="2.6275563240051"><ele>54</ele><time>2026-4-30T19:25:46Z</time></trkpt>
<trkpt lat="48.888065338135" lon="2.6274650096893"><ele>54</ele><time>2026-4-30T19:25:49Z</time></trkpt>
<trkpt lat="48.888011932373" lon="2.6273658275604"><ele>54</ele><time>2026-4-30T19:25:52Z</time></trkpt>
<trkpt lat="48.887966156006" lon="2.6272716522217"><ele>54</ele><time>2026-4-30T19:25:55Z</time></trkpt>
<trkpt lat="48.887920379639" lon="2.6271774768829"><ele>54</ele><time>2026-4-30T19:25:58Z</time></trkpt>
<trkpt lat="48.887874603271" lon="2.6270923614502"><ele>54</ele><time>2026-4-30T19:26:1Z</time></trkpt>
<trkpt lat="48.887817382812" lon="2.6269962787628"><ele>54</ele><time>2026-4-30T19:26:4Z</time></trkpt>
<trkpt lat="48.887767791748" lon="2.626923084259"><ele>54</ele><time>2026-4-30T19:26:7Z</time></trkpt>
<trkpt lat="48.887722015381" lon="2.6268577575684"><ele>54</ele><time>2026-4-30T19:26:10Z</time></trkpt>
<trkpt lat="48.887722015381" lon="2.6268577575684"><ele>54</ele><time>2026-4-30T19:26:13Z</time></trkpt>
<trkpt lat="48.887626647949" lon="2.6268067359924"><ele>54</ele><time>2026-4-30T19:26:16Z</time></trkpt>
<trkpt lat="48.887565612793" lon="2.6268534660339"><ele>54</ele><time>2026-4-30T19:26:19Z</time></trkpt>
<trkpt lat="48.887504577637" lon="2.6269278526306"><ele>54</ele><time>2026-4-30T19:26:22Z</time></trkpt>
<trkpt lat="48.88744354248" lon="2.6270203590393"><ele>54</ele><time>2026-4-30T19:26:25Z</time></trkpt>
<trkpt lat="48.887393951416" lon="2.6271095275879"><ele>54</ele><time>2026-4-30T19:26:28Z</time></trkpt>
<trkpt lat="48.887393951416" lon="2.6271095275879"><ele>54</ele><time>2026-4-30T19:26:31Z</time></trkpt>
<trkpt lat="48.887336730957" lon="2.6271877288818"><ele>54</ele><time>2026-4-30T19:26:34Z</time></trkpt>
<trkpt lat="48.887287139893" lon="2.6272463798523"><ele>54</ele><time>2026-4-30T19:26:37Z</time></trkpt>
<trkpt lat="48.88720703125" lon="2.6273226737976"><ele>54</ele><time>2026-4-30T19:26:40Z</time></trkpt>
<trkpt lat="48.887126922607" lon="2.6274044513702"><ele>54</ele><time>2026-4-30T19:26:43Z</time></trkpt>
<trkpt lat="48.887054443359" lon="2.6274859905243"><ele>53</ele><time>2026-4-30T19:26:46Z</time></trkpt>
<trkpt lat="48.886989593506" lon="2.6275618076324"><ele>53</ele><time>2026-4-30T19:26:49Z</time></trkpt>
<trkpt lat="48.886924743652" lon="2.6276473999023"><ele>53</ele><time>2026-4-30T19:26:52Z</time></trkpt>
<trkpt lat="48.886867523193" lon="2.6277256011963"><ele>53</ele><time>2026-4-30T19:26:55Z</time></trkpt>
<trkpt lat="48.88680267334" lon="2.6278033256531"><ele>53</ele><time>2026-4-30T19:26:58Z</time></trkpt>
<trkpt lat="48.886741638184" lon="2.6278691291809"><ele>53</ele><time>2026-4-30T19:27:1Z</time></trkpt>
<trkpt lat="48.886680603027" lon="2.6279287338257"><ele>53</ele><time>2026-4-30T19:27:4Z</time></trkpt>
<trkpt lat="48.886627197266" lon="2.6279716491699"><ele>53</ele><time>2026-4-30T19:27:7Z</time></trkpt>
<trkpt lat="48.886573791504" lon="2.6280028820038"><ele>53</ele><time>2026-4-30T19:27:10Z</time></trkpt>
<trkpt lat="48.886524200439" lon="2.6280584335327"><ele>53</ele><time>2026-4-30T19:27:13Z</time></trkpt>
<trkpt lat="48.88646697998" lon="2.6281206607819"><ele>53</ele><time>2026-4-30T19:27:16Z</time></trkpt>
<trkpt lat="48.886421203613" lon="2.6281886100769"><ele>53</ele><time>2026-4-30T19:27:19Z</time></trkpt>
<trkpt lat="48.886379241943" lon="2.6282553672791"><ele>53</ele><time>2026-4-30T19:27:22Z</time></trkpt>
<trkpt lat="48.886333465576" lon="2.6283247470856"><ele>53</ele><time>2026-4-30T19:27:25Z</time></trkpt>
<trkpt lat="48.886295318604" lon="2.6283848285675"><ele>52</ele><time>2026-4-30T19:27:28Z</time></trkpt>
<trkpt lat="48.886241912842" lon="2.6284537315369"><ele>52</ele><time>2026-4-30T19:27:31Z</time></trkpt>
<trkpt lat="48.886192321777" lon="2.6285123825073"><ele>52</ele><time>2026-4-30T19:27:34Z</time></trkpt>
<trkpt lat="48.886138916016" lon="2.6285738945007"><ele>52</ele><time>2026-4-30T19:27:37Z</time></trkpt>
<trkpt lat="48.886093139648" lon="2.6286280155182"><ele>52</ele><time>2026-4-30T19:27:40Z</time></trkpt>
<trkpt lat="48.886093139648" lon="2.6286280155182"><ele>52</ele><time>2026-4-30T19:27:43Z</time></trkpt>
<trkpt lat="48.886032104492" lon="2.6287233829498"><ele>52</ele><time>2026-4-30T19:27:46Z</time></trkpt>
<trkpt lat="48.886032104492" lon="2.6287233829498"><ele>52</ele><time>2026-4-30T19:27:49Z</time></trkpt>
<trkpt lat="48.885955810547" lon="2.6288464069366"><ele>51</ele><time>2026-4-30T19:27:52Z</time></trkpt>
<trkpt lat="48.885883331299" lon="2.628969669342"><ele>51</ele><time>2026-4-30T19:27:55Z</time></trkpt>
<trkpt lat="48.885829925537" lon="2.6290550231934"><ele>51</ele><time>2026-4-30T19:27:58Z</time></trkpt>
<trkpt lat="48.885768890381" lon="2.6291146278381"><ele>51</ele><time>2026-4-30T19:28:1Z</time></trkpt>
<trkpt lat="48.885669708252" lon="2.6290826797485"><ele>51</ele><time>2026-4-30T19:28:4Z</time></trkpt>
<trkpt lat="48.885597229004" lon="2.6290247440338"><ele>51</ele><time>2026-4-30T19:28:7Z</time></trkpt>
<trkpt lat="48.885536193848" lon="2.6289794445038"><ele>52</ele><time>2026-4-30T19:28:10Z</time></trkpt>
<trkpt lat="48.885536193848" lon="2.6289794445038"><ele>52</ele><time>2026-4-30T19:28:13Z</time></trkpt>
<trkpt lat="48.885456085205" lon="2.6289594173431"><ele>52</ele><time>2026-4-30T19:28:16Z</time></trkpt>
<trkpt lat="48.885402679443" lon="2.6290292739868"><ele>52</ele><time>2026-4-30T19:28:19Z</time></trkpt>
<trkpt lat="48.885353088379" lon="2.6290917396545"><ele>52</ele><time>2026-4-30T19:28:22Z</time></trkpt>
<trkpt lat="48.885311126709" lon="2.6291544437408"><ele>52</ele><time>2026-4-30T19:28:25Z</time></trkpt>
<trkpt lat="48.885261535645" lon="2.6292157173157"><ele>52</ele><time>2026-4-30T19:28:28Z</time></trkpt>
<trkpt lat="48.885200500488" lon="2.6292924880981"><ele>51</ele><time>2026-4-30T19:28:31Z</time></trkpt>
<trkpt lat="48.885143280029" lon="2.6293685436249"><ele>51</ele><time>2026-4-30T19:28:34Z</time></trkpt>
<trkpt lat="48.885082244873" lon="2.6294484138489"><ele>51</ele><time>2026-4-30T19:28:37Z</time></trkpt>
<trkpt lat="48.885021209717" lon="2.6295299530029"><ele>51</ele><time>2026-4-30T19:28:40Z</time></trkpt>
<trkpt lat="48.884956359863" lon="2.6296052932739"><ele>51</ele><time>2026-4-30T19:28:43Z</time></trkpt>
<trkpt lat="48.884887695312" lon="2.6296610832214"><ele>51</ele><time>2026-4-30T19:28:46Z</time></trkpt>
<trkpt lat="48.884887695312" lon="2.6296610832214"><ele>51</ele><time>2026-4-30T19:28:49Z</time></trkpt>
<trkpt lat="48.884830474854" lon="2.6297402381897"><ele>51</ele><time>2026-4-30T19:28:52Z</time></trkpt>
<trkpt lat="48.884826660156" lon="2.6298425197601"><ele>50</ele><time>2026-4-30T19:28:55Z</time></trkpt>
<trkpt lat="48.884746551514" lon="2.6299607753754"><ele>50</ele><time>2026-4-30T19:28:58Z</time></trkpt>
<trkpt lat="48.884685516357" lon="2.6300301551819"><ele>50</ele><time>2026-4-30T19:29:1Z</time></trkpt>
<trkpt lat="48.884632110596" lon="2.6300780773163"><ele>50</ele><time>2026-4-30T19:29:4Z</time></trkpt>
<trkpt lat="48.884578704834" lon="2.6301226615906"><ele>50</ele><time>2026-4-30T19:29:7Z</time></trkpt>
<trkpt lat="48.884517669678" lon="2.6301918029785"><ele>50</ele><time>2026-4-30T19:29:10Z</time></trkpt>
<trkpt lat="48.884517669678" lon="2.6301918029785"><ele>50</ele><time>2026-4-30T19:29:13Z</time></trkpt>
<trkpt lat="48.884441375732" lon="2.6302938461304"><ele>49</ele><time>2026-4-30T19:29:16Z</time></trkpt>
<trkpt lat="48.884414672852" lon="2.6303718090057"><ele>49</ele><time>2026-4-30T19:29:19Z</time></trkpt>
<trkpt lat="48.884414672852" lon="2.6303718090057"><ele>49</ele><time>2026-4-30T19:29:22Z</time></trkpt>
<trkpt lat="48.884334564209" lon="2.6304974555969"><ele>49</ele><time>2026-4-30T19:29:25Z</time></trkpt>
<trkpt lat="48.884269714355" lon="2.630578994751"><ele>49</ele><time>2026-4-30T19:29:28Z</time></trkpt>
<trkpt lat="48.88419342041" lon="2.6306536197662"><ele>48</ele><time>2026-4-30T19:29:31Z</time></trkpt>
<trkpt lat="48.884124755859" lon="2.6307258605957"><ele>48</ele><time>2026-4-30T19:29:34Z</time></trkpt>
<trkpt lat="48.884056091309" lon="2.6307818889618"><ele>48</ele><time>2026-4-30T19:29:37Z</time></trkpt>
<trkpt lat="48.883991241455" lon="2.6308100223541"><ele>48</ele><time>2026-4-30T19:29:40Z</time></trkpt>
<trkpt lat="48.883930206299" lon="2.6308085918427"><ele>47</ele><time>2026-4-30T19:29:43Z</time></trkpt>
<trkpt lat="48.883876800537" lon="2.6307713985443"><ele>47</ele><time>2026-4-30T19:29:46Z</time></trkpt>
<trkpt lat="48.883876800537" lon="2.6307713985443"><ele>47</ele><time>2026-4-30T19:29:49Z</time></trkpt>
<trkpt lat="48.883827209473" lon="2.6306757926941"><ele>48</ele><time>2026-4-30T19:29:52Z</time></trkpt>
</trkseg></trk></gpx>